[[{"header":{"parameterUnit":"m.s-1","parameterCategory":1,"la1":30.6,"la2":28.766,"lo1":-90.7593,"lo2":-88.6598,"dy":0.0162,"dx":0.0183,"nx":116,"ny":114,"refTime":"2023-06-19T12:00:00:Z","depth":0,"parameterNumber":2,"parameterNumberName":"U-component_of_WINDS"},"data":[0.0,0.0,0.0,0.0,0.0,0.0,0.0,0.0,0.0,0.0,0.0,0.0,0.0,0.0,0.0,0.0,0.0,0.0,0.0,0.0,0.0,0.0,0.0,0.0,0.0,0.0,0.0,0.0,0.0,0.0,0.0,0.0,0.0,0.0,0.0,0.0,0.0,0.0,0.0,0.0,0.0,0.0,0.0,0.0,0.0,0.0,0.0,0.0,0.0,0.0,0.0,0.0,0.0,0.0,0.0,0.0,0.0,0.0,0.0,0.0,0.0,0.0,0.0,0.0,0.0,0.0,0.0,0.0,0.0,0.0,0.0,0.0,0.0,0.0,0.0,0.0,0.0,0.0,0.0,0.0,0.0,0.0,0.0,0.0,0.0,0.0,0.0,0.0,0.0,0.0,0.0,0.0,0.0,0.0,0.0,0.0,0.0,0.0,0.0,0.0,0.0,0.0,0.0,0.0,0.0,0.0,0.0,0.0,0.0,0.0,0.0,0.0,0.0,0.0,0.0,0.0,0.0,0.0,0.0,0.0,0.0,0.0,0.0,0.0,0.0,0.0,0.0,0.0,0.0,0.0,0.0,0.0,0.0,0.0,0.0,0.0,0.0,0.0,0.0,0.0,0.0,0.0,0.0,0.0,0.0,0.0,0.0,0.0,0.0,0.0,0.0,0.0,0.0,0.0,0.0,0.0,0.0,0.0,0.0,0.0,0.0,0.0,0.0,0.0,0.0,0.0,0.0,0.0,0.0,0.0,0.0,0.0,0.0,0.0,0.0,0.0,0.0,0.0,0.0,0.0,0.0,0.0,0.0,0.0,0.0,0.0,0.0,0.0,0.0,0.0,0.0,0.0,0.0,0.0,0.0,0.0,0.0,0.0,0.0,0.0,0.0,0.0,0.0,0.0,0.0,0.0,0.0,0.0,0.0,0.0,0.0,0.0,0.0,0.0,0.0,0.0,0.0,0.0,0.0,0.0,0.0,0.0,0.0,0.0,0.0,0.0,0.0,0.0,0.0,0.0,0.0,0.0,0.0,0.0,0.0,0.0,0.0,0.0,0.0,0.0,0.0,0.0,0.0,0.0,0.0,0.0,0.0,0.0,0.0,0.0,0.0,0.0,0.0,0.0,0.0,0.0,0.0,0.0,0.0,0.0,0.0,0.0,0.0,0.0,0.0,0.0,0.0,0.0,0.0,0.0,0.0,0.0,0.0,0.0,0.0,0.0,0.0,0.0,0.0,0.0,0.0,0.0,0.0,0.0,0.0,0.0,0.0,0.0,0.0,0.0,0.0,0.0,0.0,0.0,0.0,0.0,0.0,0.0,0.0,0.0,0.0,0.0,0.0,0.0,0.0,0.0,0.0,0.0,0.0,0.0,0.0,0.0,0.0,0.0,0.0,0.0,0.0,0.0,0.0,0.0,0.0,0.0,0.0,0.0,0.0,0.0,0.0,0.0,0.0,0.0,0.0,0.0,0.0,0.0,0.0,0.0,0.0,0.0,0.0,0.0,0.0,0.0,0.0,0.0,0.0,0.0,0.0,0.0,0.0,0.0,0.0,0.0,0.0,0.0,0.0,0.0,0.0,0.0,0.0,0.0,0.0,0.0,0.0,0.0,0.0,0.0,0.0,0.0,0.0,0.0,0.0,0.0,0.0,0.0,0.0,0.0,0.0,0.0,0.0,0.0,0.0,0.0,0.0,0.0,0.0,0.0,0.0,0.0,0.0,0.0,0.0,0.0,0.0,0.0,0.0,0.0,0.0,0.0,0.0,0.0,0.0,0.0,0.0,0.0,0.0,0.0,0.0,0.0,0.0,0.0,0.0,0.0,0.0,0.0,0.0,0.0,0.0,0.0,0.0,0.0,0.0,0.0,0.0,0.0,0.0,0.0,0.0,0.0,0.0,0.0,0.0,0.0,0.0,0.0,0.0,0.0,0.0,0.0,0.0,0.0,0.0,0.0,0.0,0.0,0.0,0.0,0.0,0.0,0.0,0.0,0.0,0.0,0.0,0.0,0.0,0.0,0.0,0.0,0.0,0.0,0.0,0.0,0.0,0.0,0.0,0.0,0.0,0.0,0.0,0.0,0.0,0.0,0.0,0.0,0.0,0.0,0.0,0.0,0.0,0.0,0.0,0.0,0.0,0.0,0.0,0.0,0.0,0.0,0.0,0.0,0.0,0.0,0.0,0.0,0.0,0.0,0.0,0.0,0.0,0.0,0.0,0.0,0.0,0.0,0.0,0.0,0.0,0.0,0.0,0.0,0.0,0.0,0.0,0.0,0.0,0.0,0.0,0.0,0.0,0.0,0.0,0.0,0.0,0.0,0.0,0.0,0.0,0.0,0.0,0.0,0.0,0.0,0.0,0.0,0.0,0.0,0.0,0.0,0.0,0.0,0.0,0.0,0.0,0.0,0.0,0.0,0.0,0.0,0.0,0.0,0.0,0.0,0.0,0.0,0.0,0.0,0.0,0.0,0.0,0.0,0.0,0.0,0.0,0.0,0.0,0.0,0.0,0.0,0.0,0.0,0.0,0.0,0.0,0.0,0.0,0.0,0.0,0.0,0.0,0.0,0.0,0.0,0.0,0.0,0.0,0.0,0.0,0.0,0.0,0.0,0.0,0.0,0.0,0.0,0.0,0.0,0.0,0.0,0.0,0.0,0.0,0.0,0.0,0.0,0.0,0.0,0.0,0.0,0.0,0.0,0.0,0.0,0.0,0.0,0.0,0.0,0.0,0.0,0.0,0.0,0.0,0.0,0.0,0.0,0.0,0.0,0.0,0.0,0.0,0.0,0.0,0.0,0.0,0.0,0.0,0.0,0.0,0.0,0.0,0.0,0.0,0.0,0.0,0.0,0.0,0.0,0.0,0.0,0.0,0.0,0.0,0.0,0.0,0.0,0.0,0.0,0.0,0.0,0.0,0.0,0.0,0.0,0.0,0.0,0.0,0.0,0.0,0.0,0.0,0.0,0.0,0.0,0.0,0.0,0.0,0.0,0.0,0.0,0.0,0.0,0.0,0.0,0.0,0.0,0.0,0.0,0.0,0.0,0.0,0.0,0.0,0.0,0.0,0.0,0.0,0.0,0.0,0.0,0.0,0.0,0.0,0.0,0.0,0.0,0.0,0.0,0.0,0.0,0.0,0.0,0.0,0.0,0.0,0.0,0.0,0.0,0.0,0.0,0.0,0.0,0.0,0.0,0.0,0.0,0.0,0.0,0.0,0.0,0.0,0.0,0.0,0.0,0.0,0.0,0.0,0.0,0.0,0.0,0.0,0.0,0.0,0.0,0.0,0.0,0.0,0.0,0.0,0.0,0.0,0.0,0.0,0.0,0.0,0.0,0.0,0.0,0.0,0.0,0.0,0.0,0.0,0.0,0.0,0.0,0.0,0.0,0.0,0.0,0.0,0.0,0.0,0.0,0.0,0.0,0.0,0.0,0.0,0.0,0.0,0.0,0.0,0.0,0.0,0.0,0.0,0.0,0.0,0.0,0.0,0.0,0.0,0.0,0.0,0.0,0.0,0.0,0.0,0.0,0.0,0.0,0.0,0.0,0.0,0.0,0.0,0.0,0.0,0.0,0.0,0.0,0.0,0.0,0.0,0.0,0.0,0.0,0.0,0.0,0.0,0.0,0.0,0.0,0.0,0.0,0.0,0.0,0.0,0.0,0.0,0.0,0.0,0.0,0.0,0.0,0.0,0.0,0.0,0.0,0.0,0.0,0.0,0.0,0.0,0.0,0.0,0.0,0.0,0.0,0.0,0.0,0.0,0.0,0.0,0.0,0.0,0.0,0.0,0.0,0.0,0.0,0.0,0.0,0.0,0.0,0.0,0.0,0.0,0.0,0.0,0.0,0.0,0.0,0.0,0.0,0.0,0.0,0.0,0.0,0.0,0.0,0.0,0.0,0.0,0.0,0.0,0.0,0.0,0.0,0.0,0.0,0.0,0.0,0.0,0.0,0.0,0.0,0.0,0.0,0.0,0.0,0.0,0.0,0.0,0.0,0.0,0.0,0.0,0.0,0.0,0.0,0.0,0.0,0.0,0.0,0.0,0.0,0.0,0.0,0.0,0.0,0.0,0.0,0.0,0.0,0.0,0.0,0.0,0.0,0.0,0.0,0.0,0.0,0.0,0.0,0.0,0.0,0.0,0.0,0.0,0.0,0.0,0.0,0.0,0.0,0.0,0.0,0.0,0.0,0.0,0.0,0.0,0.0,0.0,0.0,0.0,0.0,0.0,0.0,0.0,0.0,0.0,0.0,0.0,0.0,0.0,0.0,0.0,0.0,0.0,0.0,0.0,0.0,0.0,0.0,0.0,0.0,0.0,0.0,0.0,0.0,0.0,0.0,0.0,0.0,0.0,0.0,0.0,0.0,0.0,0.0,0.0,0.0,0.0,0.0,0.0,0.0,0.0,0.0,0.0,0.0,0.0,0.0,0.0,0.0,0.0,0.0,0.0,0.0,0.0,0.0,0.0,0.0,0.0,0.0,0.0,0.0,0.0,0.0,0.0,0.0,0.0,0.0,0.0,0.0,0.0,0.0,0.0,0.0,0.0,0.0,0.0,0.0,0.0,0.0,0.0,0.0,0.0,0.0,0.0,0.0,0.0,0.0,0.0,0.0,0.0,0.0,0.0,0.0,0.0,0.0,0.0,0.0,0.0,0.0,0.0,0.0,0.0,0.0,0.0,0.0,0.0,0.0,0.0,0.0,0.0,0.0,0.0,0.0,0.0,0.0,0.0,0.0,0.0,0.0,0.0,0.0,0.0,0.0,0.0,0.0,0.0,0.0,0.0,0.0,0.0,0.0,0.0,0.0,0.0,0.0,0.0,0.0,0.0,0.0,0.0,0.0,0.0,0.0,0.0,0.0,0.0,0.0,0.0,0.0,0.0,0.0,0.0,0.0,0.0,0.0,0.0,0.0,0.0,0.0,0.0,0.0,0.0,0.0,0.0,0.0,0.0,0.0,0.0,0.0,0.0,0.0,0.0,0.0,0.0,0.0,0.0,0.0,0.0,0.0,0.0,0.0,0.0,0.0,0.0,0.0,0.0,0.0,0.0,0.0,0.0,0.0,0.0,0.0,0.0,0.0,0.0,0.0,0.0,0.0,0.0,0.0,0.0,0.0,0.0,0.0,0.0,0.0,0.0,0.0,0.0,0.0,0.0,0.0,0.0,0.0,0.0,0.0,0.0,0.0,0.0,0.0,0.0,0.0,0.0,0.0,0.0,0.0,0.0,0.0,0.0,0.0,0.0,0.0,0.0,0.0,0.0,0.0,0.0,0.0,0.0,0.0,0.0,0.0,0.0,0.0,0.0,0.0,0.0,0.0,0.0,0.0,0.0,0.0,0.0,0.0,0.0,0.0,0.0,0.0,0.0,0.0,0.0,0.0,0.0,0.0,0.0,0.0,0.0,0.0,0.0,0.0,0.0,0.0,0.0,0.0,0.0,0.0,0.0,0.0,0.0,0.0,0.0,0.0,0.0,0.0,0.0,0.0,0.0,0.0,0.0,0.0,0.0,0.0,0.0,0.0,0.0,0.0,0.0,0.0,0.0,0.0,0.0,0.0,0.0,0.0,0.0,0.0,0.0,0.0,0.0,0.0,0.0,0.0,0.0,0.0,0.0,0.0,0.0,0.0,0.0,0.0,0.0,0.0,0.0,0.0,0.0,0.0,0.0,0.0,0.0,0.0,0.0,0.0,0.0,0.0,0.0,0.0,0.0,0.0,0.0,0.0,0.0,0.0,0.0,0.0,0.0,0.0,0.0,0.0,0.0,0.0,0.0,0.0,0.0,0.0,0.0,0.0,0.0,0.0,0.0,0.0,0.0,0.0,0.0,0.0,0.0,0.0,0.0,0.0,0.0,0.0,0.0,0.0,0.0,0.0,0.0,0.0,0.0,0.0,0.0,0.0,0.0,0.0,0.0,0.0,0.0,0.0,0.0,0.0,0.0,0.0,0.0,0.0,0.0,0.0,0.0,0.0,0.0,0.0,0.0,0.0,0.0,0.0,0.0,0.0,0.0,0.0,0.0,0.0,0.0,0.0,0.0,0.0,0.0,0.0,0.0,0.0,0.0,0.0,0.0,0.0,0.0,0.0,0.0,0.0,-2.704,-2.0401,0.0,0.0,0.0,0.0,0.0,0.0,0.0,0.0,0.0,0.0,0.0,0.0,0.0,0.0,0.0,0.0,0.0,0.0,0.0,0.0,0.0,0.0,0.0,0.0,0.0,0.0,0.0,0.0,0.0,0.0,0.0,0.0,0.0,0.0,0.0,0.0,0.0,0.0,0.0,0.0,0.0,0.0,0.0,0.0,0.0,0.0,0.0,0.0,0.0,0.0,0.0,0.0,0.0,0.0,0.0,0.0,0.0,0.0,0.0,0.0,0.0,0.0,0.0,0.0,0.0,0.0,0.0,0.0,0.0,0.0,0.0,0.0,0.0,0.0,0.0,0.0,0.0,0.0,0.0,0.0,0.0,0.0,0.0,0.0,0.0,0.0,0.0,0.0,0.0,0.0,0.0,0.0,0.0,0.0,0.0,0.0,0.0,0.0,0.0,0.0,0.0,0.0,0.0,0.0,0.0,0.0,0.0,0.0,0.0,0.0,0.0,0.0,0.0,0.0,-3.1216,-2.845,0.0,0.0,0.0,0.0,0.0,0.0,0.0,0.0,0.0,0.0,0.0,0.0,0.0,0.0,0.0,0.0,0.0,0.0,0.0,0.0,0.0,0.0,0.0,0.0,0.0,0.0,0.0,0.0,0.0,0.0,0.0,0.0,0.0,0.0,0.0,0.0,0.0,0.0,0.0,0.0,0.0,0.0,0.0,0.0,0.0,0.0,0.0,0.0,0.0,0.0,0.0,0.0,0.0,0.0,0.0,0.0,0.0,0.0,0.0,0.0,0.0,0.0,0.0,0.0,0.0,0.0,0.0,0.0,0.0,0.0,0.0,0.0,0.0,0.0,0.0,0.0,0.0,0.0,0.0,0.0,0.0,0.0,0.0,0.0,0.0,0.0,0.0,0.0,0.0,0.0,0.0,0.0,0.0,0.0,0.0,0.0,0.0,0.0,0.0,0.0,0.0,0.0,0.0,0.0,0.0,0.0,0.0,0.0,-2.7033,-2.9006,-3.0491,-3.1889,-3.273,-3.3285,-3.6356,-3.8206,-3.846,-3.2257,0.0,0.0,0.0,0.0,0.0,0.0,0.0,0.0,0.0,0.0,0.0,0.0,0.0,0.0,0.0,0.0,0.0,0.0,0.0,0.0,0.0,0.0,0.0,0.0,0.0,0.0,0.0,0.0,0.0,0.0,0.0,0.0,0.0,0.0,0.0,0.0,0.0,0.0,0.757,0.4487,0.1368,-0.1688,0.0,0.0,0.0,0.0,0.0,0.0,0.0,0.0,0.0,0.0,0.0,0.0,0.0,0.0,0.0,0.0,0.0,0.0,0.0,0.0,0.0,0.0,0.0,0.0,0.0,0.0,0.0,0.0,0.0,0.0,0.0,0.0,0.0,0.0,0.0,0.0,0.0,0.0,0.0,0.0,0.0,0.0,0.0,0.0,-0.8444,-1.2951,0.0,0.0,0.0,0.0,0.0,0.0,0.0,0.0,0.0,0.0,0.0,0.0,0.0,-1.8676,-1.8829,-2.6012,-3.035,-3.1771,-3.8531,-4.2345,-4.3552,-4.4927,-4.5938,-4.6458,-4.3138,0.0,-3.9341,-3.8449,0.0,0.0,0.0,0.0,0.0,0.0,0.0,0.0,0.0,0.0,0.0,0.0,0.0,0.0,0.0,0.0,0.0,0.0,0.0,0.0,0.0,0.0,0.0,0.0,0.0,0.0,0.0,0.0,0.0,0.0,0.0,0.0,0.0,0.0,0.0,0.0,0.0808,-0.1171,-0.3242,-0.1932,-0.4393,-0.9914,-0.9524,-0.5837,-0.017,-0.5191,0.0,0.0,0.0,0.0,0.0,0.0,0.0,0.0,0.0,0.0,0.0,0.0,0.0,0.0,0.0,0.0,0.0,0.0,0.0,0.0,0.0,0.0,0.0,0.0,0.0,0.0,0.0,0.0,0.0,0.0,0.0,0.0,0.0,0.0,0.0,0.0,0.0,0.0,0.0,-0.2879,-0.9527,-1.5319,-1.4548,-1.2242,0.0,0.0,0.0,0.0,0.0,0.0,0.0,0.0,0.0,-2.2145,-2.3956,-2.4919,-2.5081,-3.0774,-3.4054,-3.5098,-3.9173,-4.203,-4.3899,-4.5227,-4.6995,-4.8893,-4.7225,-4.6262,-4.5619,-4.0923,-3.7844,-3.5596,0.0,0.0,0.0,0.0,-2.4482,-2.7307,0.0,0.0,0.0,0.0,0.0,0.0,0.0,0.0,0.0,0.0,0.0,0.0,0.0,0.0,0.0,0.0,0.0,0.0,0.0,0.0,0.0,0.0,0.0,0.0,0.0,0.0,0.0,0.0,-0.3052,-0.5809,-0.9432,-0.5566,-0.6038,-1.0105,-1.025,-0.8998,-0.7053,-1.1008,-0.9666,0.0,0.0,0.0,0.0,0.0,0.0,0.0,0.0,0.0,0.0,0.0,0.0,0.0,0.0,0.0,0.0,0.0,0.0,0.0,0.0,0.0,0.0,0.0,0.0,0.0,0.0,0.0,0.0,0.0,0.0,0.0,0.0,0.0,0.0,0.0,0.0,0.0,0.0,-0.3049,-0.9165,-1.6586,-1.5458,-1.3213,0.0,0.0,0.0,0.0,0.0,0.0,-2.3288,-2.3687,-2.4915,-2.7464,-2.9418,-3.0566,-3.0982,-3.3973,-3.5933,-3.6897,-3.8114,-3.9904,-4.2352,-4.3579,-4.5961,-4.9138,-4.9442,-5.0034,-5.0351,-4.3413,-3.9917,-3.8707,-3.7079,-3.4881,-3.2694,-3.2993,-3.451,-3.6428,0.0,0.0,0.0,0.0,0.0,0.0,0.0,0.0,0.0,0.0,0.0,0.0,0.0,0.0,0.0,0.0,0.0,0.0,0.0,0.0,0.0,0.0,0.0,0.0,0.0,0.0,0.0,-0.4147,-0.769,-0.646,-0.0954,-0.0705,0.047,0.2025,-0.0,-0.5389,-1.2998,-1.4829,-1.6696,-1.7683,0.0,0.0,0.0,0.0,0.0,0.0,0.0,0.0,0.0,0.0,0.0,0.0,0.0,0.0,0.0,0.0,0.0,0.0,0.0,0.0,0.0,0.0,0.0,0.0,0.0,0.0,0.0,0.0,0.0,0.0,0.0,0.0,0.0,0.0,0.0,0.0,0.0,0.0,0.0,-1.7654,-1.9916,0.0,0.0,0.0,0.0,-1.9495,-2.1064,-2.3705,-2.7609,-2.8403,-3.0648,-3.4751,-3.4517,-3.4687,-3.5156,-3.5254,-3.6182,-3.7842,-3.8414,-4.0056,-4.2875,-4.3752,-4.6169,-4.9827,-4.9194,-4.958,-5.0492,-4.7615,-4.5761,-4.415,-3.9616,-3.8106,-3.8155,-3.5596,-3.9166,-4.5451,0.0,0.0,0.0,0.0,0.0,0.0,0.0,0.0,0.0,0.0,0.0,0.0,0.0,0.0,0.0,0.0,0.0,0.0,0.0,0.0,0.0,0.0,0.0,0.0,0.0,0.0,-0.6261,-0.6619,-0.8762,-0.6588,-0.0118,0.7646,1.0623,0.9559,0.7127,0.336,-0.1421,-0.8001,-1.2221,-1.4591,-1.3922,-0.8418,0.0,0.0,0.0,0.0,0.0,0.0,0.0,0.0,0.0,0.0,0.0,0.0,0.0,0.0,0.0,0.0,0.0,0.0,0.0,0.0,0.0,0.0,0.0,0.0,0.0,0.0,0.0,0.0,0.0,0.0,0.0,0.0,0.0,0.0,0.0,0.0,0.0,-1.8058,-1.9029,0.0,-1.7675,-1.9946,-2.1427,-2.1406,-2.5861,-2.9509,-3.1529,-3.3369,-3.5181,-3.6973,-3.6601,-3.6445,-3.6621,-3.6074,-3.6051,-3.6683,-3.6844,-3.8645,-4.18,-4.2047,-4.4689,-4.8959,-4.7775,-4.8021,-4.914,-4.7328,-4.659,-4.6663,-4.542,-4.6658,-4.9015,-4.8882,-5.1168,-5.4383,0.0,0.0,0.0,0.0,0.0,0.0,0.0,0.0,0.0,0.0,0.0,0.0,0.0,0.0,0.0,0.0,0.0,0.0,0.0,0.0,0.0,0.0,0.0,0.0,0.0,-0.5312,-0.819,-0.8406,-1.0477,-0.76,-0.0,1.0946,1.4884,1.2575,1.1285,0.9405,0.6714,-0.0109,-0.5521,-1.004,-1.439,-1.0773,-0.2648,0.0,0.0,0.0,0.0,0.0,0.0,0.0,0.0,0.0,0.0,0.0,0.0,0.0,0.0,0.0,0.0,0.0,0.0,0.0,0.0,0.0,0.0,0.0,0.0,0.0,0.0,0.0,0.0,0.0,0.0,0.0,0.0,0.0,0.0,-1.124,-1.3042,-1.9084,-1.953,-1.9363,-1.934,-2.1789,-2.376,-2.4728,-2.934,-3.2506,-3.3151,-3.4758,-3.5758,-3.6035,-3.6255,-3.6257,-3.6257,-3.615,-3.6016,-3.6016,-3.6016,-3.7842,-4.1181,-4.1002,-4.2508,-4.5272,-4.5809,-4.5775,-4.5437,-4.6576,-4.7742,-4.8776,-4.9337,-5.1889,-5.5409,-5.6867,-5.8265,-5.9302,0.0,0.0,0.0,0.0,0.0,0.0,0.0,0.0,0.0,0.0,0.0,0.0,0.0,0.0,0.0,0.0,0.0,0.0,0.0,0.0,0.0,0.0,0.0,0.0,0.0,0.0,0.0,0.0,-1.2831,-0.9585,-0.0226,0.8863,1.2423,1.1466,1.2711,1.1935,0.9516,0.7725,0.2423,-0.5247,-0.9797,-1.0586,-0.8189,0.0,0.0,0.0,0.0,0.0,0.0,0.0,0.0,0.0,0.0,0.0,0.0,0.0,0.0,0.0,0.0,0.0,0.0,0.0,0.0,0.0,0.0,0.0,0.0,0.0,0.0,0.0,0.0,0.0,0.0,0.0,0.0,0.0,-2.0128,-2.1485,-2.1383,-2.0663,-2.1617,-2.2736,-2.3804,-2.574,-2.7702,-2.9741,-3.1056,-3.1975,-3.2337,-3.2439,-3.2423,-3.2423,-3.3482,-3.4109,-3.4091,-3.5262,-3.5899,-3.6016,-3.6016,-3.7822,-4.1136,-4.0539,-3.9945,-3.9411,-4.3689,-4.3111,-3.9777,-4.5974,-4.9448,-5.074,-5.074,-5.3198,-5.6808,-5.8296,-5.9413,-5.9877,0.0,0.0,0.0,0.0,0.0,0.0,0.0,0.0,0.0,0.0,0.0,0.0,0.0,0.0,0.0,0.0,0.0,0.0,0.0,0.0,0.0,0.0,0.0,0.0,0.0,0.0,0.0,0.0,0.0,0.0,-0.4627,0.3993,0.9998,1.3665,1.2346,1.1919,1.211,0.9654,0.7371,0.4636,-0.3543,-0.8364,-1.0282,0.0,0.0,0.0,0.0,0.0,0.0,0.0,0.0,0.0,0.0,0.0,0.0,0.0,0.0,0.0,0.0,0.0,0.0,0.0,0.0,0.0,0.0,0.0,0.0,0.0,0.0,0.0,0.0,0.0,0.0,0.0,-0.7987,-1.5036,-2.033,-2.1474,-2.1704,-2.1562,-2.1136,-2.109,-2.1545,-2.2961,-2.4022,-2.454,-2.7936,-3.0115,-3.0207,-3.0648,-3.0952,-3.0952,-3.0903,-3.1373,-3.26,-3.3688,-3.489,-3.6016,-3.6016,-3.7657,-4.0516,-4.0867,-4.2226,-4.4333,-4.603,-4.6184,-4.5714,-4.8547,-5.0443,-5.1488,-5.2594,-5.4584,-5.7119,-5.8899,-5.9755,-5.89,0.0,0.0,0.0,0.0,0.0,0.0,0.0,0.0,0.0,0.0,0.0,0.0,0.0,0.0,0.0,0.0,0.0,0.0,0.0,0.0,0.0,0.0,0.0,0.0,0.0,0.0,0.0,0.0,0.0,0.0,0.0,0.0,0.0,1.2206,1.2421,1.2459,1.2299,1.0696,0.9794,0.8752,0.1902,-0.3906,-0.866,-1.0877,-0.9723,-0.6783,-0.6668,-0.5773,-0.4355,-0.2074,0.0,0.0,0.0,0.0,0.0,0.0,0.0,0.0,0.0,0.0,0.0,0.0,0.0,0.0,0.0,0.0,0.0,0.0,0.0,0.0,0.0,0.0,0.0,0.0,-0.7163,-1.3542,-1.8396,-1.9435,-1.9875,-1.9959,-1.964,-1.9413,-1.9654,-2.0505,-2.1468,-2.2529,-2.5257,-2.7148,-2.8246,-2.8612,-2.8106,-2.6952,-2.8442,-2.9453,-2.9751,-3.2294,-3.4427,-3.6016,-3.6809,-3.8319,-4.0733,-4.2349,-4.2824,-4.2541,-4.632,-4.6762,-4.4878,-4.9364,-5.1884,0.0,0.0,0.0,0.0,0.0,-5.9019,-5.7997,0.0,0.0,0.0,0.0,0.0,0.0,0.0,0.0,0.0,0.0,0.0,0.0,0.0,0.0,0.0,0.0,0.0,0.0,0.0,0.0,0.0,0.0,0.0,0.0,0.0,0.0,0.0,0.0,0.0,0.0,0.0,0.0,0.0,0.0,0.0,1.2763,1.1042,1.0824,1.02,0.9051,0.6039,0.1306,-0.4798,-1.2123,-1.125,-0.6352,-0.7766,-0.8513,-0.8952,-1.0319,0.0,0.0,0.0,0.0,0.0,0.0,0.0,0.0,0.0,0.0,0.0,0.0,0.0,0.0,0.0,0.0,0.0,0.0,0.0,0.0,0.0,0.0,0.0,0.0,-0.6527,-1.0337,-1.4506,-1.5515,-1.6131,-1.7211,-1.7615,-1.796,-1.8158,-1.8552,-1.9676,-2.1784,-2.2669,-2.4061,-2.6318,-2.6228,0.0,0.0,0.0,-2.7685,-2.6526,-3.1097,-3.4165,-3.5724,-3.7647,-3.9541,-4.1452,-4.4476,-4.3159,-3.8827,-4.6488,-4.6682,-4.2125,-4.9805,-5.3839,-5.5221,-5.4496,-5.5394,-5.7026,-5.6627,-5.6858,-5.7126,0.0,0.0,0.0,0.0,0.0,0.0,0.0,0.0,0.0,0.0,0.0,0.0,0.0,0.0,0.0,0.0,0.0,0.0,0.0,0.0,0.0,0.0,0.0,0.0,0.0,0.0,0.0,0.0,0.0,0.0,0.0,0.0,0.0,0.0,0.0,0.0,0.0,0.9504,0.899,0.8729,0.5726,0.2427,-0.1884,-1.0891,-1.499,-1.605,-1.6254,-1.7116,-1.7675,-1.3646,-1.058,-0.8254,-0.693,0.0,0.0,0.0,0.0,0.0,0.0,0.0,0.0,0.0,0.0,0.0,0.0,0.0,0.0,0.0,0.0,0.0,0.0,0.0,0.0,-0.5743,-0.807,-0.9812,-0.7818,-0.7725,-1.0439,-1.6842,-1.7084,-1.6733,-1.6769,-1.6924,-1.7146,-1.7654,-2.106,-2.3419,-2.4166,-2.4482,-2.4449,-2.4101,-2.4823,-2.5512,-2.6299,-2.9806,-3.2411,-3.3725,0.0,0.0,-4.2339,-4.4861,-4.703,-4.8986,-5.1598,-5.2252,-5.1855,-5.4683,-5.652,-5.7357,-5.6169,-5.6597,-5.6761,-4.8377,-5.0747,-5.6759,0.0,0.0,0.0,0.0,0.0,0.0,0.0,0.0,0.0,0.0,0.0,0.0,0.0,0.0,0.0,0.0,0.0,0.0,0.0,0.0,0.0,0.0,0.0,0.0,0.0,0.0,0.0,0.0,0.0,0.0,0.0,0.0,0.0,0.0,0.0,0.0,0.0,0.0,0.0,0.8635,0.7283,0.3981,-0.0684,-0.7085,-1.2729,-1.7415,-1.7615,-1.8744,-1.9723,-1.663,-1.4223,-1.2271,-1.0932,-0.8099,-0.4806,0.0,0.0,0.0,0.0,0.0,0.0,0.0,0.0,0.0,0.0,0.0,0.0,0.0,0.0,-1.1293,-0.7778,0.0,-0.8249,-0.463,-0.6439,-0.7603,-0.5695,-0.5655,-0.7264,-1.1473,-1.1547,-1.2172,-1.4693,-1.4853,-1.5491,-1.6626,-1.8862,-2.0662,-2.2056,-2.3377,-2.3359,-2.1912,-2.4276,-2.5281,-2.5047,-2.8243,-3.0891,-3.3309,-3.6523,-3.9836,-4.3017,-4.6718,-4.961,-5.182,-5.3416,-5.4516,-5.5252,-5.7183,-5.8208,-5.853,-5.7543,-5.7118,-5.6434,-5.101,-5.2579,-5.6589,0.0,0.0,0.0,0.0,0.0,0.0,0.0,0.0,0.0,0.0,0.0,0.0,0.0,0.0,0.0,0.0,0.0,0.0,0.0,0.0,0.0,0.0,0.0,0.0,0.0,0.0,0.0,0.0,0.0,0.0,0.0,0.0,0.0,0.0,0.0,0.0,0.0,0.0,0.0,0.0,0.8776,0.5982,0.1265,-0.2534,-0.853,-1.4982,-1.6821,-1.7886,-1.8301,-1.8242,-1.6098,-1.3575,-1.3118,-1.1033,-0.7786,-0.2851,-0.3183,0.0,0.0,0.0,0.0,0.0,0.0,0.0,0.0,-1.101,-1.0278,-1.5819,-1.6977,-1.5012,-0.8855,-0.7065,-0.5852,-0.3569,-0.4403,-0.5198,-0.4383,-0.4498,-0.4715,-0.5053,-0.5024,-0.7015,-1.176,-1.301,-1.4287,-1.6358,-1.6883,-1.797,-2.0036,-2.2029,-2.2033,-1.9604,-2.3317,-2.474,-2.3047,-2.6178,-2.9152,-3.2088,-3.6142,-4.0096,-4.3988,-4.8744,-5.1572,-5.2881,-5.4898,-5.6229,-5.7091,-5.8813,-5.9428,-5.9219,-5.856,-5.7603,-5.6479,-5.5938,-5.6093,-5.6479,0.0,0.0,0.0,0.0,0.0,0.0,0.0,0.0,0.0,0.0,0.0,0.0,0.0,0.0,0.0,0.0,0.0,0.0,0.0,0.0,0.0,0.0,0.0,0.0,0.0,0.0,0.0,0.0,0.0,0.0,0.0,0.0,0.0,0.0,0.0,0.0,0.0,0.0,0.0,0.0,0.0,0.0,0.7269,0.1378,-0.4879,-1.1256,-1.7032,-1.7261,-1.4934,-1.6354,-1.4632,-1.1733,-1.1698,-1.035,-0.8541,-0.684,-0.627,-0.5074,0.0246,0.4194,0.586,0.1883,-0.3409,-0.8558,0.0,-1.6784,-2.0816,-2.1002,-1.9879,-1.817,-1.5803,-1.4162,-1.1307,-0.5794,-0.5363,-0.4617,-0.1124,-0.0643,-0.0648,-0.0668,-0.0675,-0.2541,-0.7304,-1.151,-1.4016,-1.418,-1.6042,-1.7298,-1.782,-1.9673,-2.066,-2.0507,-2.0755,-2.0565,-1.9918,-2.3678,-2.6332,-2.8282,-3.4528,-4.033,-4.5504,-4.9832,-5.3433,-5.6644,-5.8595,-5.9896,-6.0552,-6.0753,-6.0535,-5.9907,-5.9249,-5.856,-5.7663,-5.5951,-5.5932,-5.6528,0.0,0.0,0.0,0.0,0.0,0.0,0.0,0.0,0.0,0.0,0.0,0.0,0.0,0.0,0.0,0.0,0.0,0.0,0.0,0.0,0.0,0.0,0.0,0.0,0.0,0.0,0.0,0.0,0.0,0.0,0.0,0.0,0.0,0.0,0.0,0.0,0.0,0.0,0.0,0.0,0.0,0.0,0.8659,0.4922,0.035,-0.4498,-0.7062,-0.8714,0.0,0.0,-0.9145,-0.7761,-1.0369,-0.8661,-0.5899,-0.7128,-0.4763,-0.1325,0.1376,0.0686,-0.1168,-0.3095,-0.9114,-1.5269,-1.7804,-2.0559,-2.2671,-2.312,-2.0379,-1.7633,-1.6945,-1.3043,-0.9795,-0.9292,-0.7285,-0.5259,-0.401,-0.1605,-0.0967,-0.3312,0.1297,0.3191,-0.032,-0.8914,-1.32,-1.1049,-1.3641,-1.5414,-1.5578,-1.7648,-1.8676,-1.8557,-1.9805,-2.0079,-1.9381,-2.0801,-2.2961,-2.5758,-3.17,-3.7847,-4.4132,-4.932,-5.4194,-5.8351,-5.9967,-6.1074,-6.1613,-6.0835,-6.0565,-6.0595,-5.9518,-5.8949,-5.8471,-5.6496,-5.6707,-5.7762,0.0,0.0,0.0,0.0,0.0,0.0,0.0,0.0,0.0,0.0,0.0,0.0,0.0,0.0,0.0,0.0,0.0,0.0,0.0,0.0,0.0,0.0,0.0,0.0,0.0,0.0,0.0,0.0,0.0,0.0,0.0,0.0,0.0,0.0,0.0,0.0,0.0,0.0,0.0,0.0,0.0,0.0,0.9946,0.7891,0.5864,0.3844,0.1758,-0.0199,0.0,0.0,-0.3864,-0.43,-0.6063,-0.5232,-0.3785,-0.4756,-0.1522,0.2038,0.118,-0.1389,-0.4446,-0.7284,-1.2578,-1.7696,-2.0241,-2.1149,-2.1727,-2.2141,-1.8947,-1.6231,-1.631,-1.1924,-0.916,-1.1737,-0.9563,-0.7778,-0.8309,-0.5602,-0.3507,-0.3516,0.1696,0.5212,0.5066,-0.5396,-1.1558,-1.0297,-1.2621,-1.4095,-1.4292,-1.5707,-1.6387,-1.6212,-1.7882,-1.8348,-1.7603,-1.8068,-2.0141,-2.3645,-2.9617,-3.6113,-4.2999,-4.9945,-5.5516,-5.9697,-6.0475,-6.1313,-6.2002,-6.0835,-6.0565,-6.0745,-5.9757,-5.9249,-5.8919,-5.7304,-5.7565,-5.8469,0.0,0.0,0.0,0.0,0.0,0.0,0.0,0.0,0.0,0.0,0.0,0.0,0.0,0.0,0.0,0.0,0.0,0.0,0.0,0.0,0.0,0.0,0.0,0.0,0.0,0.0,0.0,0.0,0.0,0.0,0.0,0.0,0.0,0.0,0.0,0.0,0.0,0.0,0.0,0.0,0.0,0.0,1.2293,1.0001,1.1298,1.3431,0.5985,0.0,0.0,0.0,-0.0,-0.2376,0.2608,0.0247,-0.351,0.0612,0.3055,0.3304,-0.1853,0.0297,0.1674,-0.8026,-1.0631,-1.1651,-1.5276,-1.7609,-1.8726,-1.7099,-1.5552,-1.4483,-1.4677,-1.3243,-1.2081,-1.2264,-1.2266,-1.2265,-1.2279,-1.2489,-0.8476,0.2386,0.0444,0.0704,0.7281,-0.0995,-0.8884,-1.3601,-1.3919,-1.398,-1.4285,-1.4156,-1.4174,-1.3844,-1.4009,-1.3789,-1.3329,-1.5247,-1.8179,-2.1778,-2.9218,-3.615,-4.2999,-5.2597,-5.8423,-6.1014,-6.0386,-6.0864,-6.2061,-6.1373,-6.0715,-6.0116,-6.0086,-5.9668,-5.9009,-5.8321,-5.8082,-5.7992,0.0,0.0,0.0,0.0,0.0,0.0,0.0,0.0,0.0,0.0,0.0,0.0,0.0,0.0,0.0,0.0,0.0,0.0,0.0,0.0,0.0,0.0,0.0,0.0,0.0,0.0,0.0,0.0,0.0,0.0,0.0,0.0,0.0,0.0,0.0,0.0,0.0,0.0,0.0,0.0,0.0,0.0,1.6464,1.3836,1.2384,1.1888,0.0,0.0,0.0,0.0,0.0,0.6675,0.5318,0.4885,0.5539,0.8646,0.4454,-0.0467,0.3048,-0.0412,-0.5243,-0.6379,-1.1191,-1.5603,-1.5853,-1.6165,-1.6766,-1.8064,-1.4308,-1.1408,-1.313,-0.8312,-0.5559,-1.0432,-0.684,-0.6144,-1.3737,-1.0847,-0.7759,-0.7217,-0.2729,-0.1386,-0.5351,-0.6173,-0.7205,-0.8785,-1.2024,-1.3933,-1.4136,-1.4102,-1.4,-1.3844,-1.3838,-1.3627,-1.3173,-1.381,-1.6233,-2.0152,-3.109,-4.0232,-4.7854,-5.3669,-5.7812,-6.0446,-6.0685,-6.1014,-6.1373,-6.0715,-6.0296,-6.0057,-5.9608,-5.9039,-5.8441,-5.8201,-5.7842,-5.7393,0.0,0.0,0.0,0.0,0.0,0.0,0.0,0.0,0.0,0.0,0.0,0.0,0.0,0.0,0.0,0.0,0.0,0.0,0.0,0.0,0.0,0.0,0.0,0.0,0.0,0.0,0.0,0.0,0.0,0.0,0.0,0.0,0.0,0.0,0.0,0.0,0.0,0.0,0.0,0.0,0.0,0.0,1.7781,1.4521,1.2609,0.0,0.0,0.0,0.0,0.0,1.3141,1.0807,0.9966,1.0665,1.113,0.7758,0.3175,-0.048,0.0769,-0.3789,-0.873,-0.7948,-1.1675,-1.4891,-1.2618,-1.2201,-1.3284,-1.6752,-1.3633,-1.0546,-1.1476,-0.6674,-0.4244,-0.9366,-0.5758,-0.5591,-1.5186,-1.2558,-1.0505,-1.2964,-0.7115,-0.486,-0.991,-0.8342,-0.7493,-0.8827,-1.1804,-1.3837,-1.4112,-1.4069,-1.3992,-1.3912,-1.3871,-1.3654,-1.3261,-1.3254,-1.6292,-2.2283,-3.2918,-4.2259,-5.0233,-5.3867,-5.5568,-5.5634,-5.8961,-5.8673,-5.5896,-5.8367,-5.9398,-5.9308,-5.865,-5.8291,-5.8082,-5.7842,-5.7483,-5.7124,0.0,0.0,0.0,0.0,0.0,0.0,0.0,0.0,0.0,0.0,0.0,0.0,0.0,0.0,0.0,0.0,0.0,0.0,0.0,0.0,0.0,0.0,0.0,0.0,0.0,0.0,0.0,0.0,0.0,0.0,0.0,0.0,0.0,0.0,0.0,0.0,0.0,0.0,0.0,0.0,0.0,0.0,1.6443,1.2721,0.0,0.0,0.0,0.0,0.0,1.7702,1.4273,0.996,1.5568,1.621,1.2385,-0.0511,-0.0194,0.2232,-0.738,-0.8991,-0.8872,-1.2599,-1.1954,-0.9709,-0.646,-0.657,-0.8735,-1.3352,-1.3198,-1.1464,-0.949,-0.7618,-0.7022,-0.8967,-0.8503,-1.0122,-1.652,-1.7038,-1.5979,-1.434,-1.2073,-0.9642,-0.7074,-0.7729,-0.9855,-1.3398,-1.3483,-1.364,-1.4283,-1.4155,-1.4062,-1.4041,-1.4084,-1.3865,-1.3576,-1.3721,-1.837,-2.7379,-3.4334,-4.188,-4.997,-5.322,-5.2113,-4.8016,-5.5703,-5.442,-4.7322,-5.499,-5.8141,-5.8052,-5.7393,-5.7513,-5.7932,-5.7244,-5.6974,-5.7034,0.0,0.0,0.0,0.0,0.0,0.0,0.0,0.0,0.0,0.0,0.0,0.0,0.0,0.0,0.0,0.0,0.0,0.0,0.0,0.0,0.0,0.0,0.0,0.0,0.0,0.0,0.0,0.0,0.0,0.0,0.0,0.0,0.0,0.0,0.0,0.0,0.0,0.0,0.0,0.0,0.0,0.0,1.6639,0.0,0.0,0.0,0.0,0.0,0.0,1.4663,1.2664,0.844,0.6264,0.503,0.4389,0.4151,-0.1212,-0.6144,-0.203,-0.7119,-1.3163,-1.1773,-0.982,-0.8428,-0.9227,-1.1214,-1.2535,-1.118,-0.9779,-0.7674,-0.4308,0.1615,0.2668,-0.7458,-0.3148,-0.2305,-1.2885,-1.1242,-0.9649,-1.1402,-1.0883,-1.1247,-1.3406,-1.2521,-1.2403,-1.3603,-1.3653,-1.3839,-1.4076,-1.4055,-1.4152,-1.4061,-1.533,-1.6133,-1.6044,-1.8856,-2.2769,-2.7467,-3.355,-3.9864,-4.6562,-5.1215,-5.3613,-5.4426,-5.7744,-5.7832,-5.5918,-5.7999,-5.856,-5.8112,-5.7932,-5.7363,-5.6585,-5.5927,-5.5359,-5.497,0.0,0.0,0.0,0.0,0.0,0.0,0.0,0.0,0.0,0.0,0.0,0.0,0.0,0.0,0.0,0.0,0.0,0.0,0.0,0.0,0.0,0.0,0.0,0.0,0.0,0.0,0.0,0.0,0.0,0.0,0.0,0.0,0.0,0.0,0.0,0.0,0.0,0.0,0.0,0.0,0.0,0.0,0.0,0.0,0.0,0.0,0.0,0.0,0.9103,1.1397,1.1641,0.9985,0.406,0.0499,-0.1922,-0.4105,-0.7416,-0.969,-0.673,-1.0632,-1.4785,-1.1607,-0.9086,-0.8108,-1.0527,-1.2169,-1.2826,-1.1411,-0.8283,-0.5384,-0.3912,0.1414,0.3231,-0.4144,-0.2464,-0.3424,-1.2694,-1.1774,-1.0939,-1.3617,-1.2626,-1.3775,-1.8857,-1.641,-1.4754,-1.5192,-1.4356,-1.4016,-1.418,-1.4187,-1.4725,-1.57,-1.6584,-1.7268,-1.7992,-2.1784,-2.5027,-2.7598,-3.4168,-4.0012,-4.535,-5.0631,-5.2346,-5.135,0.0,-5.674,-5.3203,-5.6746,-5.7992,-5.7633,-5.7064,-5.6376,-5.5658,-5.4999,-5.4341,-5.3773,0.0,0.0,0.0,0.0,0.0,0.0,0.0,0.0,0.0,0.0,0.0,0.0,0.0,0.0,0.0,0.0,0.0,0.0,0.0,0.0,0.0,0.0,0.0,0.0,0.0,0.0,0.0,0.0,0.0,0.0,0.0,0.0,0.0,0.0,0.0,0.0,0.0,0.0,0.0,0.0,0.0,0.0,0.0,0.0,0.0,0.0,0.0,0.0,0.6899,0.8715,1.0813,1.142,0.4797,-0.0571,-0.607,-1.4417,-1.3752,-1.0931,-1.4508,-1.5535,-1.501,-1.2231,-1.0203,-0.9618,-1.2051,-1.2268,-1.1994,-1.2236,-0.802,-0.4743,-0.5796,-0.3327,-0.1399,-0.2185,-0.4692,-0.8477,-1.3985,-1.5121,-1.5678,-1.6554,-1.5502,-1.699,-2.274,-1.9062,-1.6563,-1.7178,-1.5186,-1.4117,-1.4288,-1.4273,-1.5483,-1.7957,-1.8022,-1.8881,-2.0612,-2.3844,-2.6397,-2.8282,-3.547,-4.1066,-4.5119,-5.0777,-5.0335,-4.5542,-5.4931,-5.4293,-4.7188,-5.4215,-5.7034,-5.6855,-5.5748,-5.5209,-5.497,-5.4311,-5.3593,-5.2905,0.0,0.0,0.0,0.0,0.0,0.0,0.0,0.0,0.0,0.0,-1.0102,-0.9285,0.0,0.0,0.0,0.0,0.0,0.0,0.0,0.0,0.0,0.0,0.0,0.0,0.0,0.0,0.0,0.0,0.0,0.0,0.0,0.0,0.0,0.0,0.0,0.0,0.0,0.0,0.0,0.0,0.0,0.0,0.0,0.0,0.0,0.0,0.0,0.2823,0.0,0.0,0.9109,0.4975,0.0565,-0.2943,-0.4767,-0.1809,-0.7475,-1.3952,-1.0537,-1.2819,-1.5883,-1.4485,-1.5529,-1.7139,-1.7495,-1.6774,-1.4748,-1.019,-0.8949,-0.7904,-0.5429,-0.4188,-0.5352,-1.0716,-0.8692,-0.7987,-1.2652,-1.5228,-1.5082,-1.096,-1.6029,-2.0746,-2.3011,-1.9554,-1.7171,-1.6952,-1.5116,-1.4222,-1.4208,-1.4263,-1.5833,-1.957,-2.1477,-2.3816,-2.6875,-2.6891,-2.8722,-3.2211,-3.6077,-3.9845,-4.3471,-4.9902,-5.2449,-5.1999,-5.6355,0.0,-5.5115,-5.6497,-5.6795,-5.6316,-5.6077,-5.5329,-5.4311,-5.3623,-5.2606,-5.1468,0.0,0.0,0.0,0.0,0.0,0.0,0.0,-1.2038,-1.1937,-1.2364,-1.1316,-1.0657,-1.084,-1.019,-0.9631,0.0,0.0,0.0,0.0,0.0,0.0,0.0,0.0,0.0,0.0,0.0,-0.5669,-0.5845,0.0,-0.486,-0.5382,-0.5382,-0.4132,-0.1865,0.0,0.0,0.0,0.0,0.0,0.0,0.0,0.0,0.0,0.0,0.0,0.0,0.0,-0.0979,0.0941,0.0,0.5877,0.4118,0.4428,0.2857,0.074,-0.0576,-0.5843,-1.1565,-1.2687,-1.6021,-1.8916,-1.7857,-1.8916,-1.9599,-1.754,-1.6253,-1.3664,-0.7416,-0.6813,-0.6829,-0.4824,-0.3561,-0.5681,-1.4454,-1.2531,-1.1035,-1.4269,-1.7348,-1.7795,-1.3562,-1.7518,-2.1567,-2.4219,-2.1352,-1.8707,-1.7345,-1.5058,-1.3851,-1.4027,-1.6207,-1.8175,-1.9905,-2.3155,-2.5949,-2.8089,-2.8588,-3.0086,-3.2863,-3.6294,-3.9412,-4.2221,-4.8618,-5.2014,-5.3093,-5.6581,-5.7903,-5.7389,-5.6839,-5.6552,-5.6274,-5.546,-5.4551,-5.3593,-5.2905,-5.1828,-5.0661,0.0,0.0,0.0,0.0,0.0,0.0,0.0,-1.2949,-1.2622,-1.2538,-1.2018,-1.1439,-1.0989,-1.0559,-1.001,0.0,0.0,0.0,0.0,0.0,0.0,0.0,0.0,0.0,0.0,0.0,0.0,-0.5033,-0.4455,0.0,0.0,0.0,0.0,0.0,-0.3485,-0.3284,-0.3284,0.0,0.0,0.0,0.0,-0.5379,0.0,0.0,0.0,0.0,0.0,-0.3972,-0.1536,0.1748,0.3447,0.4789,0.8106,0.8598,0.6515,0.0228,-0.4038,-0.8149,-1.457,-1.8843,-2.1468,-2.1493,-2.2522,-2.2378,-1.7922,-1.614,-1.345,-0.6596,-0.5241,-0.5299,-0.5265,-0.4243,-0.6543,-1.6171,-1.4431,-1.2842,-1.5375,-1.8227,-1.9273,-1.7133,-1.953,-2.2461,-2.5583,-2.2907,-2.0355,-1.8818,-1.5885,-1.3929,-1.379,-1.8042,-2.0352,-1.9745,-2.4356,-2.7381,-2.8319,-2.9741,-3.134,-3.2991,-3.6314,-3.9066,-4.152,-4.7307,-5.0802,-5.2623,-5.6142,-5.7661,-5.7446,-5.6414,-5.6124,-5.607,-5.469,-5.3773,-5.3084,-5.2276,-5.1169,-5.0002,0.0,0.0,0.0,0.0,0.0,0.0,0.0,-1.3772,-1.3378,-1.3076,-1.2126,-1.121,-1.0444,-1.0754,-1.0449,0.0,0.0,0.0,0.0,0.0,0.0,0.0,0.0,0.0,0.0,0.0,0.0,-0.3747,-0.4773,0.0,0.0,0.0,0.0,0.0,0.0,-0.5119,-0.5119,-0.5119,0.0,0.0,0.0,0.0,0.0,0.0,0.0,0.0,0.0,-0.5087,-0.3924,0.1356,0.3573,0.4284,0.5252,0.7771,1.0134,0.9154,0.187,-0.6855,-1.0911,-1.6067,-2.1245,-2.4367,-2.8364,-2.9628,-2.3099,-2.101,-1.8213,-1.0822,-0.7147,-0.6009,-0.8215,-0.8979,-1.1127,-1.6873,-1.218,-0.9331,-1.3436,-1.4929,-1.5883,-1.7007,-2.195,-2.5513,-2.5878,-2.3222,-2.1654,-2.2194,-1.8493,-1.5569,-1.3817,-1.8042,-2.0352,-1.9745,-2.5544,-2.8972,-2.9949,-3.1081,-3.2625,-3.4483,-3.6095,-3.8438,-4.1497,-4.6375,-5.002,-5.2595,-5.5206,-5.6466,0.0,-5.5702,-5.5288,-5.5272,-5.4458,-5.3773,-5.3025,-5.1768,-5.0481,-4.9284,0.0,0.0,0.0,0.0,0.0,0.0,-1.469,-1.4179,-1.3492,-1.315,-1.2092,-1.1011,-1.0083,-0.9964,-0.944,-0.8158,0.0,0.0,0.0,0.0,0.0,0.0,0.0,0.0,0.0,0.0,-0.5225,-0.4881,-0.5218,0.0,0.0,0.0,0.0,0.0,0.0,-0.5896,-0.5446,-0.6067,0.0,0.0,0.0,0.0,0.0,0.0,0.0,0.0,0.0,0.0,-0.455,-0.2504,-0.154,-0.1189,-0.0663,0.044,0.2256,0.5925,0.2447,-0.448,-1.2618,-1.8186,-2.2957,-2.8109,-3.0983,-3.0605,-2.4297,-2.2122,-1.8616,-0.8783,-0.6136,-0.5705,-0.6099,-0.6786,-0.8716,-1.2956,-1.1797,-1.1958,-1.6612,-1.8947,-2.0267,-2.0714,-2.4121,-2.6195,-2.5598,-2.415,-2.3007,-2.2007,-1.7435,-1.5474,-1.7321,-1.9183,-1.9957,-1.9344,-2.412,-2.7415,-2.8485,-2.8643,-3.0055,-3.3066,-3.3135,-3.5578,-4.0062,-4.4128,-4.7781,-5.11,-5.4257,-5.5698,0.0,-5.5349,-5.4752,-5.399,-5.3712,-5.3174,-5.2426,-5.1109,-5.0062,-4.9074,0.0,0.0,0.0,0.0,0.0,-1.2928,-1.4436,-1.3979,-1.3194,-1.2625,-1.1573,-1.0462,-0.9457,-0.8622,-0.788,-0.7179,-0.6822,0.0,0.0,0.0,0.0,0.0,0.0,0.0,0.0,0.0,-0.5663,-0.608,-0.5962,-0.6249,0.0,0.0,-0.6423,-0.6541,0.0,0.0,0.0,0.0,0.0,0.0,0.0,0.0,0.0,0.0,0.0,0.0,0.0,0.0,0.0,0.0,0.0,-0.4756,-0.4502,-0.4492,0.0,0.0938,-0.0286,-0.4886,-1.3121,-1.852,-2.3119,-2.8793,-3.0148,-2.8913,-2.3816,-2.1165,-1.7061,-0.747,-0.5819,-0.5826,-0.4771,-0.5287,-0.6979,-1.0379,-1.1792,-1.4194,-1.8982,-2.18,-2.3262,-2.2841,-2.5338,-2.6387,-2.5106,-2.4839,-2.3868,-2.2066,-1.7763,-1.6581,-1.9584,-1.9806,-1.9783,-2.0022,-2.3985,-2.656,-2.7356,-2.7195,-2.8777,-3.1666,-3.1114,-3.3532,-3.867,-4.2001,-4.5761,-4.9995,-5.2748,-5.4496,0.0,-5.4745,-5.3929,-5.2948,-5.2743,-5.2293,-5.1697,-5.0236,-4.9159,-4.8231,0.0,0.0,0.0,0.0,0.0,0.0,-1.2893,-1.3009,-1.2619,-1.1495,-1.0436,-0.9385,-0.8353,-0.6796,-0.5957,-0.6213,-0.6311,0.0,0.0,0.0,0.0,0.0,0.0,0.0,0.0,0.0,-0.5978,-0.7086,-0.7086,-0.7656,-0.8754,-0.8754,-0.8754,-0.8754,0.0,0.0,0.0,0.0,0.0,0.0,0.0,0.0,0.0,0.0,0.0,0.0,0.0,0.0,0.0,0.0,0.0,0.0,0.0,0.0,0.0,0.0,-0.6208,-0.9197,-1.0763,-1.5462,-2.0931,-2.4849,-2.5592,-2.4699,-2.1971,-1.8303,-1.3933,-0.8408,-0.7085,-0.6604,-0.5681,-0.6249,-0.7757,-1.0469,-1.1967,-1.4408,-1.9073,-2.1713,-2.2791,-2.1824,-2.5082,-2.6456,-2.4426,-2.4716,-2.4366,-2.2851,-2.0654,0.0,-1.9563,-1.9563,-2.0411,-2.2233,-2.5896,-2.7524,-2.684,-2.8451,-2.9868,-3.1253,-3.097,-3.3287,-3.7837,-4.0195,-4.4377,-4.9681,-5.0716,-5.2714,0.0,-5.3778,-5.2928,-5.2398,-5.1518,-5.1195,-5.0988,-4.9031,-4.7561,-4.6281,0.0,0.0,0.0,0.0,0.0,0.0,0.0,-1.2504,-1.1767,-1.0569,-0.9571,-0.8549,-0.744,-0.6454,-0.5936,-0.6155,-0.5763,0.0,0.0,0.0,0.0,0.0,0.0,0.0,0.0,0.0,-0.7641,-0.9091,-0.8929,-0.9446,-1.0606,-0.9787,-0.9389,-0.9488,-0.9661,-0.9184,0.0,0.0,0.0,0.0,0.0,0.0,-0.5425,0.0,0.0,0.0,0.0,0.0,0.0,0.0,0.0,0.0,0.0,0.0,0.0,0.0,-0.5752,-0.8249,-1.1678,-1.3265,-1.5459,-2.1603,-2.3809,-2.3602,-2.015,-1.6315,-1.207,-0.686,-0.5784,-0.5622,-0.4959,-0.5333,-0.6982,-1.0679,-1.1902,-1.3943,-1.8566,-2.0335,-2.1339,-2.1892,-2.4266,-2.5456,-2.4609,-2.4842,-2.498,-2.4328,-2.1969,-2.1331,-2.3532,-2.3181,-2.3228,-2.3429,-2.5093,-2.622,-2.684,-2.6197,-2.7195,-3.0121,-2.963,-3.2142,-3.7576,-3.932,-4.2255,-4.6215,-4.8718,-5.1165,-5.3346,-5.32,-5.2597,-5.1607,-5.1323,-5.0947,-5.0312,-4.8864,-4.7453,-4.6187,0.0,0.0,0.0,0.0,0.0,0.0,0.0,-1.1581,-1.1085,-1.0322,-0.9078,-0.7969,-0.7288,-0.6174,-0.5413,-0.514,-0.5109,0.0,0.0,0.0,0.0,0.0,0.0,0.0,0.0,-0.8585,-0.9593,-1.0567,-1.0728,-1.1397,-1.2639,-1.1845,-1.1316,-1.1032,-1.1313,-1.0728,0.0,0.0,0.0,0.0,0.0,0.0,-0.6654,0.0,0.0,0.0,0.0,0.0,0.0,0.0,0.0,0.0,0.0,0.0,0.0,0.0,-0.5241,-0.6783,-1.0179,-1.1326,-1.2356,-1.5055,-1.7401,-1.8637,-1.7331,-1.3241,-0.8965,-0.6349,-0.7407,-0.8083,-0.5369,-0.691,-0.8767,-0.9101,-1.1411,-1.4683,-1.909,-2.0752,-2.1314,-2.0794,-2.3134,-2.4327,0.0,-2.4467,-2.5194,-2.5321,-2.2651,-2.2393,-2.5126,-2.4688,-2.4847,-2.5855,-2.6532,-2.7127,-2.7958,-2.6736,-2.7647,-3.0549,-2.9935,-3.1728,-3.5669,-3.7247,-3.9741,-4.3144,-4.5846,-4.8297,0.0,-5.1413,-5.1299,-5.0427,-5.015,-4.9875,-4.9369,-4.8298,-4.6803,-4.5172,0.0,0.0,0.0,0.0,0.0,0.0,0.0,-1.0354,-1.0541,-1.0491,-0.8896,-0.7747,-0.7768,-0.6055,-0.4504,-0.3527,0.0,0.0,0.0,0.0,0.0,0.0,0.0,0.0,0.0,-1.0482,-1.1517,-1.1857,-1.2595,-1.3565,-1.4612,-1.4544,-1.4013,-1.3175,-1.3502,-1.2618,0.0,0.0,0.0,0.0,0.0,0.0,0.0,0.0,0.0,0.0,0.0,0.0,0.0,0.0,0.0,0.0,0.0,0.0,0.0,0.0,0.0,0.0,0.0,-0.9388,-1.0446,-0.6085,-0.749,-1.0517,-1.3074,-0.9113,0.0,-0.7128,0.0,-1.3095,-0.7114,-1.0653,-1.2554,-0.6598,-1.0916,-1.6283,-2.0018,-2.205,-2.1903,-1.8579,-2.1713,-2.3433,-2.1643,-2.3625,-2.517,-2.5398,-2.3054,-2.2719,-2.5106,-2.4488,-2.5555,-2.9067,-2.9655,-2.9976,-2.9838,-2.9385,-3.0139,-3.1817,-3.1529,-3.177,-3.2664,-3.4412,-3.7084,0.0,-4.2303,-4.4628,-4.742,-4.8741,-4.9254,-4.9254,-4.8563,-4.8267,-4.8268,-4.7578,-4.5677,-4.3503,0.0,0.0,0.0,0.0,0.0,0.0,0.0,0.0,0.0,0.0,-0.9095,-0.8567,-0.8111,-0.6417,-0.5212,0.0,0.0,0.0,0.0,0.0,0.0,0.0,0.0,0.0,0.0,-1.1022,-1.2395,-1.4144,-1.45,-1.5067,-1.5707,-1.5016,-1.434,-1.3696,-1.3369,-1.2727,0.0,0.0,0.0,0.0,0.0,0.0,0.0,0.0,0.0,0.0,-0.7648,-0.6949,0.0,0.0,0.0,0.0,0.0,0.0,0.0,0.0,-0.4944,-0.5085,-0.5186,0.0,-0.2684,-0.1524,-0.1851,-0.2646,0.0,0.0,0.0,0.0,0.0,0.0,0.0,-1.4657,-1.5922,-1.0034,-1.3257,-1.681,-1.7846,-1.7522,0.0,-1.3994,-2.046,-2.4966,-2.4317,-2.4793,-2.4917,-2.4543,-2.393,-2.434,-2.6011,-2.7214,-2.8744,-3.06,-3.2298,-3.2335,-3.0856,-2.9682,-2.9877,-3.1471,-3.1395,-3.1968,-3.3196,-3.4161,-3.6397,-3.9744,-4.1663,-4.4026,-4.6784,-4.8563,-4.9254,-4.9224,-4.8566,-4.8268,-4.8268,-4.7578,-4.5677,-4.3503,0.0,0.0,0.0,0.0,0.0,0.0,0.0,0.0,0.0,0.0,0.0,0.0,0.0,0.0,0.0,0.0,0.0,0.0,0.0,0.0,0.0,0.0,0.0,0.0,-1.134,-1.2336,-1.3623,-1.5205,-1.5679,-1.5965,-1.6074,-1.5567,-1.4979,-1.4255,-1.3446,-1.2813,0.0,0.0,0.0,0.0,-1.1178,0.0,0.0,0.0,0.0,0.0,-0.8657,-0.7879,0.0,-0.6406,-0.5866,-0.5336,0.0,0.0,0.0,0.0,-0.5132,-0.5192,-0.495,-0.3727,-0.5726,-1.912,-1.1156,-0.2174,-1.0562,0.0,0.0,0.0,0.0,0.0,0.0,0.0,-1.4815,-1.1021,-1.1913,-1.3701,-1.5434,-1.4393,-1.3733,-1.4663,-1.7545,-2.0414,0.0,-2.4143,-2.4943,-2.5103,-2.4988,-2.5698,-2.7293,-2.8956,-3.0264,-3.1121,-3.2948,-3.3335,-3.2599,-3.1733,-3.1801,-3.2693,-3.234,-3.2492,-3.3021,-3.3101,-3.4666,-3.7464,-3.7022,-3.992,-4.5052,-4.4585,-4.5962,-4.8327,-4.7967,-4.7878,-4.779,-4.7459,-4.5652,-4.352,0.0,0.0,0.0,0.0,0.0,0.0,0.0,0.0,0.0,0.0,0.0,0.0,0.0,0.0,0.0,0.0,0.0,0.0,0.0,0.0,0.0,0.0,0.0,-1.0651,-1.2531,-1.3705,-1.4672,-1.545,-1.6383,-1.6671,-1.6236,-1.6158,-1.5457,-1.4382,-1.3473,-1.2785,0.0,0.0,-1.2265,-1.2265,-1.1891,0.0,0.0,0.0,0.0,0.0,0.0,0.0,0.0,-0.6889,-0.6407,-0.6067,-0.5292,0.0,0.0,0.0,0.0,0.0,-0.5339,-0.5418,-1.2291,-4.1166,-2.7764,-1.0242,-2.0687,0.0,0.0,0.0,0.0,0.0,0.0,-1.6461,0.0,-1.1954,-1.0019,-1.0494,-1.4603,-1.4269,-1.455,-1.6794,-1.5406,0.0,-2.0808,-2.3482,-2.5296,-2.6206,-2.6343,-2.6983,-2.8647,-2.9906,-3.0929,-3.1407,-3.2682,-3.3594,-3.3965,-3.3965,-3.4093,-3.4191,-3.3629,-3.3074,-3.2434,-3.1819,-3.2813,-3.4825,0.0,0.0,-4.2943,-4.059,-4.2653,-4.7309,-4.7309,-4.7309,-4.7309,-4.7309,-4.5752,-4.3575,0.0,0.0,0.0,0.0,0.0,0.0,0.0,0.0,0.0,0.0,0.0,0.0,0.0,0.0,0.0,0.0,0.0,0.0,0.0,0.0,0.0,0.0,-1.2087,-1.2341,-1.3219,-1.3965,-1.4672,-1.5321,-1.6849,-1.745,-1.6995,-1.6244,-1.4926,-1.3079,-1.3111,-1.2671,-1.1931,-1.1931,-1.2078,-1.2238,-1.145,0.0,0.0,0.0,0.0,0.0,0.0,0.0,0.0,-0.8337,-0.7742,-0.6953,-0.6104,0.0,0.0,0.0,0.0,0.0,-0.5132,-0.5422,-1.1853,-3.8622,-4.3358,-3.4882,-0.99,0.0,0.0,0.0,0.0,0.0,0.0,-3.1204,-3.3191,0.0,0.0,-1.3713,0.0,0.0,-2.1582,-1.4729,0.0,-2.3733,-2.4381,-2.5731,-2.65,-2.6401,-2.7214,-2.836,-2.9825,-3.011,-3.0991,-3.2492,-3.3146,-3.3457,-3.3516,-3.3516,-3.3494,-3.3508,-3.3454,-3.2874,-3.1871,-3.1958,-3.2532,-3.3487,0.0,-3.8209,-4.1763,-4.3582,-4.5551,-4.7309,-4.7309,-4.7309,-4.7309,-4.7309,-4.6043,-4.3921,0.0,0.0,0.0,0.0,0.0,0.0,0.0,0.0,0.0,0.0,0.0,0.0,0.0,0.0,0.0,0.0,0.0,0.0,0.0,0.0,0.0,-1.2949,-1.2289,-1.238,-1.3318,-1.3966,-1.4785,-1.5862,-1.7446,-1.798,-1.7405,-1.6581,-1.4984,-1.2797,-1.3089,-1.2623,-1.1623,-1.1623,-1.1703,-1.1784,0.0,0.0,0.0,0.0,0.0,0.0,0.0,0.0,0.0,0.0,-0.8305,-0.7752,-0.6339,0.0,0.0,0.0,0.0,0.0,-0.5219,-0.3973,-0.8192,-3.2022,-4.2345,-4.1654,-2.2773,-1.087,0.0,0.0,0.0,0.0,0.0,0.0,-3.1083,-2.5159,0.0,-2.7849,-2.6255,-2.6713,-2.5373,0.0,0.0,-2.5592,-2.5175,-2.5394,-2.5709,-2.6082,-2.6614,-2.7404,-2.8415,-2.8852,-2.9445,-3.0027,-3.1304,-3.2001,-3.1947,-3.2931,-3.3351,-3.3381,-3.3132,-3.2595,-3.1705,-3.0856,-3.1011,-3.166,0.0,-3.342,-3.8944,-3.928,-4.2189,-4.6344,-4.7019,-4.7309,-4.7249,-4.6515,-4.5229,-4.3655,0.0,0.0,0.0,0.0,0.0,0.0,0.0,0.0,0.0,0.0,0.0,0.0,0.0,0.0,0.0,0.0,0.0,0.0,0.0,0.0,-1.3359,-1.2894,-1.2134,-1.2226,-1.3347,-1.3819,-1.4827,-1.6465,-1.7862,-1.8105,-1.7297,-1.6937,-1.5369,-1.2837,-1.343,-1.3042,-1.1857,-1.1654,-1.1669,-1.1765,0.0,0.0,0.0,0.0,0.0,0.0,0.0,0.0,0.0,0.0,0.0,0.0,0.0,0.0,0.0,-0.5533,-0.5344,-0.5389,-0.5311,-0.327,-0.5985,-2.608,-3.8398,-4.3669,-3.6202,-2.5949,0.0,0.0,0.0,0.0,0.0,-2.7309,0.0,-3.281,-3.726,-3.8509,-3.4505,-3.1167,-2.8636,-2.7139,-2.6364,-2.5827,-2.5305,-2.5299,-2.5483,-2.5982,-2.6299,-2.668,-2.7236,-2.7765,-2.7956,-2.7718,-2.9267,-3.0348,-3.0807,-3.2162,-3.2976,-3.3374,-3.3149,-3.2371,-3.1242,-2.9841,-2.9324,-2.9385,-2.6169,-2.9233,-3.632,-3.5721,-3.9401,-4.5508,-4.6814,-4.7309,-4.7133,-4.6046,-4.4938,-4.3816,0.0,0.0,0.0,0.0,0.0,0.0,0.0,0.0,0.0,0.0,0.0,0.0,0.0,0.0,0.0,0.0,0.0,0.0,0.0,0.0,-1.3267,-1.25,-1.2341,-1.2757,-1.3556,-1.338,-1.4374,-1.6606,-1.778,-1.769,-1.6486,-1.7207,-1.587,-1.2946,-1.4063,-1.4122,-1.3204,-1.2482,-1.2461,-1.2822,-1.1558,0.0,0.0,0.0,0.0,0.0,0.0,0.0,0.0,0.0,0.0,0.0,0.0,0.0,-0.794,-0.6413,-0.6125,-0.6099,-0.5128,-0.4817,-0.8348,-2.3384,-3.7978,-4.636,-3.7548,-4.3129,0.0,-5.6279,0.0,0.0,0.0,-3.4283,-3.06,-3.8065,-3.6242,-3.6436,-4.3117,0.0,-3.2984,-3.242,-2.8802,-2.6074,-2.5483,-2.6411,-2.701,-2.6686,-2.7366,-2.794,-2.7908,-2.7648,-2.7473,-2.749,-2.8063,-2.9129,-3.0846,-3.0954,-3.186,-3.3426,-3.334,-3.2104,-2.9842,-2.965,-2.8377,-2.6436,-2.741,-3.0576,-3.5029,-3.7478,-4.1213,-4.5508,-4.6814,-4.7309,-4.7249,-4.6486,-4.587,-4.5201,0.0,0.0,0.0,0.0,0.0,0.0,0.0,0.0,0.0,0.0,0.0,0.0,0.0,0.0,0.0,0.0,0.0,0.0,0.0,0.0,-1.1856,-1.1706,-1.0854,-1.1106,-1.2554,-1.3165,-1.403,-1.5256,-1.7455,-1.8124,-1.7277,-1.7531,-1.605,-1.3381,-1.4064,-1.3822,-1.2756,-1.2453,-1.2166,-1.1814,-1.1267,-1.1168,0.0,0.0,0.0,0.0,0.0,0.0,0.0,0.0,-0.9566,-0.9184,0.0,0.0,-0.8119,-0.6796,-0.6672,-0.6829,-0.6262,-0.6053,-0.889,-2.102,-2.2099,0.0,0.0,-4.6333,-5.651,-5.56,-4.5281,0.0,0.0,0.0,-4.1044,-4.3419,-4.5716,-4.7194,-4.72,-4.1152,-3.5298,-3.1066,-2.6986,-2.4184,-2.3815,-2.4009,-2.4475,-2.5322,-2.5388,-2.5257,-2.4796,-2.4674,-2.4564,-2.4303,-2.5725,-2.6847,-2.7467,-2.8588,-2.9509,-3.0158,-3.1322,-3.0428,-2.8049,-2.7161,-2.5451,-2.3126,-2.489,-2.6935,-2.9483,-3.425,-3.8842,-4.3121,-4.6107,-4.7073,-4.6691,-4.6867,-4.628,-4.5375,0.0,0.0,0.0,0.0,0.0,0.0,0.0,0.0,0.0,0.0,0.0,0.0,0.0,0.0,0.0,0.0,0.0,0.0,0.0,-1.1941,-1.0872,-1.0929,-1.01,-1.0182,-1.1355,-1.2757,-1.3893,-1.4836,-1.7126,-1.7865,-1.7191,-1.739,-1.6244,-1.3996,-1.4384,-1.4055,-1.3102,-1.2751,-1.2133,-1.1479,-1.145,-1.1241,0.0,0.0,0.0,0.0,0.0,0.0,0.0,0.0,-1.0137,0.0,0.0,0.0,0.0,0.0,-0.7512,-0.7806,-0.7654,-0.7172,-0.8696,-1.7054,0.0,0.0,-3.1141,-4.7001,-5.6614,-5.2794,-4.328,-3.4756,-3.2244,0.0,0.0,0.0,-4.9106,-5.1092,-5.0008,-4.3468,-3.6683,-3.1011,-2.6042,-2.2739,-2.1614,-2.1942,-2.2731,-2.3645,-2.3806,-2.3642,-2.3228,-2.301,-2.2739,-2.2458,-2.3802,-2.4739,-2.5374,-2.665,-2.7085,-2.6485,-2.7621,-2.7638,-2.6456,-2.496,-2.2835,-2.0602,-2.1781,-2.3636,-2.6205,-3.1676,-3.7332,-4.2876,-4.5786,-4.683,-4.6661,-4.6897,-4.6545,-4.6046,0.0,0.0,0.0,0.0,0.0,0.0,0.0,0.0,0.0,0.0,0.0,0.0,0.0,0.0,0.0,0.0,0.0,0.0,-1.2959,-1.1469,-1.0421,-1.0127,-1.0394,-1.0421,-1.0127,-1.1981,-1.3791,-1.5514,-1.6658,-1.6749,-1.59,-1.6812,-1.6366,-1.4805,-1.5254,-1.5195,-1.469,-1.3497,-1.2772,-1.2354,-1.2115,-1.1623,-1.1022,0.0,0.0,0.0,0.0,0.0,0.0,0.0,-1.1617,0.0,0.0,0.0,0.0,0.0,-0.8861,-0.9053,-0.9253,-0.8261,-0.7958,-1.1268,0.0,0.0,-3.383,-4.6434,-5.3675,-4.8892,-5.2479,-5.3984,-4.5987,-4.3737,0.0,-4.5595,-4.4011,-4.5042,-5.2362,-4.4912,-3.7391,-3.323,-2.7038,-2.2134,-1.9437,-2.1101,-2.2071,-2.1722,-2.3151,-2.4115,-2.3859,-2.3174,-2.2709,-2.2395,-2.2382,-2.3311,-2.5056,-2.5359,-2.4573,-2.2859,-2.2722,-2.3499,-2.5024,-2.3106,-2.1086,-1.914,-1.8835,-2.1451,-2.6083,-3.0576,-3.7472,-4.5454,-4.6022,-4.6743,-4.7249,-4.6515,-4.6721,-4.7309,0.0,0.0,0.0,0.0,0.0,0.0,0.0,0.0,0.0,0.0,0.0,0.0,0.0,0.0,0.0,0.0,0.0,0.0,-1.2976,-1.1644,-1.0621,-1.0114,-1.0007,-0.9993,-1.0114,-1.1431,-1.3501,-1.6177,-1.6523,-1.6545,-1.635,-1.69,-1.6509,-1.537,-1.8257,-1.7616,-1.4488,-1.6878,-1.592,-1.2755,-1.2419,-1.2103,-1.1782,0.0,0.0,0.0,0.0,0.0,0.0,0.0,0.0,0.0,0.0,0.0,0.0,-1.4691,-1.3538,-1.2126,-1.4774,-1.305,-1.1282,-1.4662,0.0,0.0,0.0,-3.2913,0.0,0.0,-4.708,-4.755,-3.8272,-4.7672,0.0,-4.7775,-5.0321,-5.2938,-5.2359,-4.5732,-3.8587,-3.2107,-2.7312,-2.3623,-2.1635,-2.1585,-2.2246,-2.3684,-2.3645,-2.3471,-2.3392,-2.2859,-2.2545,-2.2395,-2.2362,-2.2017,-2.1308,-2.162,-2.132,-2.0263,-2.0375,-2.0093,-1.9581,-1.9093,-1.8473,-1.7819,-1.9917,-2.2367,-2.5203,-3.2713,-3.8792,-4.349,-4.5084,-4.6082,-4.6622,-4.689,-4.7133,-4.7133,0.0,0.0,0.0,0.0,0.0,0.0,0.0,0.0,0.0,0.0,0.0,0.0,0.0,0.0,0.0,0.0,0.0,0.0,0.0,0.0,-1.1093,-1.0812,-1.0295,-1.0402,-1.1253,-1.1613,-1.3218,-1.6026,-1.5738,-1.5738,-1.6104,-1.6697,-1.6518,-1.5782,-1.7986,-1.7267,-1.4508,-1.6358,-1.5268,-1.2301,-1.2249,-1.1873,-1.1361,0.0,0.0,0.0,0.0,0.0,0.0,0.0,0.0,0.0,0.0,0.0,0.0,-1.5928,-1.5818,-1.5853,-1.7655,-1.5716,-1.4199,-1.8311,-1.5647,-1.3275,-1.8225,0.0,0.0,0.0,-4.7229,-4.7354,-4.2446,-5.1625,0.0,-5.2114,-5.504,-5.6946,-5.35,-4.7954,-4.1573,-3.4268,-3.0373,-2.7035,-2.3987,-2.3953,-2.4489,-2.5185,-2.4715,-2.4371,-2.4162,-2.3174,-2.2483,-2.2191,-2.1625,-2.1085,-2.0698,-2.0063,-1.9323,-1.8475,-1.7037,-1.5438,-1.368,-1.5847,-1.7,-1.7426,-2.1752,-2.5057,-2.8129,-3.5218,-3.9677,-4.2358,-4.4257,-4.5371,-4.6017,-4.6706,-4.6755,-4.6429,0.0,0.0,0.0,0.0,0.0,0.0,0.0,0.0,0.0,0.0,0.0,0.0,0.0,0.0,0.0,0.0,0.0,0.0,0.0,0.0,-1.1781,-1.1658,-1.1003,-1.1344,-1.2875,-1.2274,-1.3053,-1.5294,-1.4569,-1.4628,-1.543,-1.6309,-1.6484,-1.6115,-1.5959,-1.5507,-1.4727,-1.3906,-1.2735,-1.1473,-1.1955,-1.1435,-1.0343,-1.0782,0.0,0.0,0.0,0.0,0.0,0.0,0.0,0.0,0.0,0.0,-1.8132,-1.4744,-1.6573,-1.9519,-1.9033,-1.7252,-1.6753,-2.1579,-1.8799,-1.6544,-2.3145,-2.7009,-3.3295,-4.7674,0.0,-5.0084,-5.3466,-5.4894,-5.6119,-5.7588,-5.8324,-5.8023,-5.5541,-5.1377,-4.6084,-3.9082,-3.5781,-3.2016,-2.6985,-2.7995,-2.8297,-2.6488,-2.6413,-2.6129,-2.5418,-2.3994,-2.2712,-2.1874,-2.0426,-2.0278,-2.1597,-1.9723,-1.8218,-1.7207,-1.361,-1.0757,-0.8826,-1.3686,-1.6793,-1.8496,-2.4087,-2.8992,-3.3386,-3.7532,-4.026,-4.1932,-4.3638,-4.4791,-4.5607,-4.6036,-4.5902,-4.5392,0.0,0.0,0.0,0.0,0.0,0.0,0.0,0.0,0.0,0.0,0.0,0.0,0.0,0.0,0.0,0.0,0.0,0.0,0.0,0.0,-1.1809,-1.0499,-1.0909,-1.1507,-1.233,-1.2585,-1.3295,-1.4451,-1.4273,-1.4628,-1.543,-1.6309,-1.6484,-1.6194,-1.8885,-1.8071,-1.4975,-1.7402,-1.6175,-1.2587,-1.2772,-1.2271,-1.141,-1.1108,-1.0995,0.0,0.0,0.0,0.0,0.0,0.0,0.0,-1.5348,-1.572,-1.6671,-1.9023,-1.9555,-2.0167,-2.3804,-2.1907,-1.9325,-2.1126,-1.9614,-1.9123,-2.4946,-2.6794,-3.0628,-4.2371,-4.1374,-4.1264,-5.087,-5.427,-5.6277,-5.8196,-5.9195,-5.9345,-5.8108,-5.4903,-5.0626,-4.4969,-4.2072,-3.8642,-3.4167,-3.2416,-3.0938,-2.947,-2.8012,-2.6583,-2.5042,-2.4716,-2.3275,-2.0197,-1.9836,-1.8741,-1.6483,-1.659,-1.5588,0.0,-1.2678,-1.2155,-1.174,-1.4276,-1.8259,-2.3295,-2.6905,-3.0934,-3.4891,-3.7086,-3.9982,-4.3095,-4.3554,-4.5006,-4.681,-4.5929,-4.5499,-4.5109,0.0,0.0,0.0,0.0,0.0,0.0,0.0,0.0,0.0,0.0,0.0,0.0,0.0,0.0,0.0,0.0,0.0,0.0,0.0,0.0,0.0,-1.1525,-1.1889,-1.2469,-1.3132,-1.303,-1.3614,-1.4746,-1.4392,-1.4628,-1.543,-1.6309,-1.6602,-1.6488,-1.8083,-1.7531,-1.5488,-1.6673,-1.5682,-1.3179,-1.2831,-1.2377,-1.1732,-1.1035,-1.0955,-1.129,-1.1845,0.0,0.0,0.0,0.0,0.0,0.0,0.0,-1.8633,-1.8593,-1.9754,-2.1391,-2.3207,-2.2871,-2.2447,-2.4317,0.0,-2.6376,-2.8267,-2.9663,-3.2526,-3.918,-3.8877,-3.9935,-4.7941,-5.1473,-5.4156,-5.6961,-5.9456,-6.0963,-6.0699,-5.9337,-5.6461,-5.1287,-4.8551,-4.5343,-4.0886,-3.8549,-3.6075,-3.3223,-3.1304,-2.9059,-2.6424,-2.5626,-2.3595,-1.9781,-1.9068,-1.7957,-1.6173,-1.2828,-1.1566,-1.2213,-1.2467,-1.3375,-1.522,-1.6099,-1.9426,-2.4946,-2.8507,-3.2153,-3.5508,-3.769,-4.016,-4.2641,-4.3218,-4.4627,-4.6373,-4.6283,-4.5508,-4.4273,0.0,0.0,0.0,0.0,0.0,0.0,0.0,0.0,0.0,0.0,0.0,0.0,0.0,0.0,0.0,0.0,0.0,0.0,0.0,0.0,0.0,-1.319,-1.3264,-1.3674,-1.4351,-1.3796,-1.4165,-1.541,-1.4746,-1.4851,-1.5666,-1.6446,-1.6977,-1.7147,-1.6593,-1.634,-1.6217,-1.49,-1.4071,-1.3522,-1.2956,-1.2446,-1.195,-1.1296,-1.1302,-1.1773,-1.2203,-1.3328,-1.4614,-1.4646,0.0,0.0,0.0,0.0,-2.0186,-1.6397,-1.8602,-2.2019,-2.0994,-2.285,-2.572,-2.8459,-3.0561,0.0,-3.1507,-3.2276,-3.4216,-3.7679,-3.9137,-4.0935,-4.4794,-4.8052,-5.1372,-5.5112,-5.9135,-6.2068,-6.2885,-6.3103,-6.1514,-5.6801,-5.4088,-5.081,-4.6353,-4.4089,-4.107,-3.641,-3.4568,-3.1979,-2.8196,-2.6729,-2.3955,-1.9656,-1.828,-1.7301,-1.6689,-0.9578,-0.8037,-1.2534,-1.2562,-1.4431,-1.8135,-1.7719,-2.0332,-2.544,-2.9458,-3.2772,-3.555,-3.8453,-4.0541,-4.2084,-4.3122,-4.4442,-4.5779,-4.6668,-4.5725,-4.3947,0.0,0.0,0.0,0.0,0.0,0.0,0.0,0.0,0.0,0.0,0.0,0.0,0.0,0.0,0.0,0.0,0.0,0.0,-1.4273,0.0,0.0,-1.3917,-1.4397,-1.4818,-1.5159,-1.5519,-1.5602,-1.541,-1.5294,-1.5724,-1.6732,-1.7168,-1.7957,-1.8993,-1.781,-1.7278,-1.711,-1.5818,-1.4601,-1.3597,-1.3879,-1.3502,-1.2826,-1.2704,-1.2691,-1.2819,-1.3123,-1.392,-1.4827,-1.472,-1.534,0.0,0.0,0.0,-1.6079,-1.5155,-1.716,-1.9984,-2.084,0.0,-2.8328,0.0,-2.7968,-2.6544,0.0,0.0,-2.9764,0.0,-3.9262,-3.9216,-4.2483,-4.5884,-4.9426,-5.3229,-5.7714,-6.1439,-6.3418,-6.3587,-6.2216,-5.8842,-5.6552,-5.3284,-4.8236,-4.5475,-4.2055,-3.7679,-3.5896,-3.3296,-2.9412,-2.829,-2.5208,-1.9495,-1.828,-1.6204,-1.2972,-0.8443,-0.8328,-1.2534,-1.2562,-1.4585,-1.8454,-1.7704,-2.0772,-2.7149,-2.9974,-3.2871,-3.5534,-3.846,-4.1119,-4.3218,-4.3409,-4.4932,-4.6931,-4.5982,-4.581,-4.5756,0.0,0.0,0.0,0.0,0.0,0.0,0.0,0.0,0.0,0.0,0.0,0.0,0.0,0.0,0.0,-1.5039,-1.5059,-1.4772,-1.4204,-1.3375,-1.3304,-1.4051,-1.4818,-1.5128,-1.5012,-1.5718,-1.584,-1.541,-1.541,-1.6175,-1.7669,-1.79,-1.8513,-1.9358,-1.8617,-1.8177,-1.7967,-1.6779,-1.5735,-1.4977,-1.4726,-1.4355,-1.3987,-1.3492,-1.3438,-1.365,-1.3757,-1.4382,-1.5124,-1.5116,-1.5712,-1.6289,-1.541,0.0,0.0,0.0,-1.625,-1.8765,-2.4666,-2.5351,-2.6564,0.0,-3.0747,-2.6787,-3.6267,-3.488,-3.3727,-4.1102,-4.282,-4.3034,-4.3014,-4.5838,-4.8613,-5.0193,-5.5488,-5.987,-6.1218,-6.2505,-6.2441,-6.017,-5.6515,-5.297,-4.9925,-4.5836,-4.181,-3.8225,-3.6453,-3.355,-2.9008,-2.841,-2.5123,-1.8424,-1.7824,-1.5901,-1.2179,-1.0624,-1.0647,-1.2427,-1.2528,-1.3944,-1.6507,-1.7058,-2.0979,-2.7684,-2.8945,-3.1523,-3.4941,-3.7204,-3.9999,-4.3062,-4.3355,-4.5039,-4.7252,-4.7081,-4.6785,-4.6432,0.0,0.0,0.0,0.0,0.0,0.0,0.0,0.0,0.0,0.0,0.0,0.0,0.0,0.0,0.0,0.0,-1.4941,-1.4766,-1.4336,-1.3734,-1.3625,-1.4243,-1.5019,-1.5273,-1.4941,-1.5743,-1.584,-1.541,-1.541,-1.6309,-1.8128,-1.8302,-1.8938,-1.9847,-1.9563,-1.9299,-1.9062,-1.8564,-1.7677,-1.6534,-1.6402,-1.6021,-1.5431,-1.478,-1.4768,-1.5077,-1.5041,-1.5376,-1.5827,-1.5619,-1.6016,-1.6406,-1.5527,-1.5254,0.0,0.0,0.0,-1.8061,-2.5537,0.0,-2.4068,-3.473,-3.0065,-2.5463,0.0,0.0,-3.5706,0.0,-4.5578,-4.7153,-4.5317,-4.6348,-4.7545,-4.7847,-5.2437,-5.6575,-5.8008,-5.9786,-6.0568,-5.9539,-5.5026,-5.1173,-4.9454,-4.4624,-4.0237,-3.7122,-3.5396,-3.2411,-2.7596,-2.7008,-2.3866,-1.7518,-1.7275,-1.5624,-1.2179,-1.1281,-1.0355,-0.9371,-1.1405,-1.2986,-1.4245,-1.6256,-2.0402,-2.6234,-2.751,-3.0217,-3.3915,-3.5868,-3.8967,-4.2781,-4.3121,-4.4975,-4.7339,-4.7899,-4.7744,-4.7478,0.0,0.0,0.0,0.0,0.0,0.0,0.0,0.0,0.0,0.0,0.0,0.0,-1.5332,-1.5019,-1.4941,-1.5352,-1.5371,-1.5195,-1.4785,-1.4746,-1.4746,-1.4746,-1.5176,0.0,-1.5371,-1.582,-1.584,-1.541,-1.541,-1.6151,-1.7542,-1.8335,-1.9542,-2.1189,-2.0824,-2.0607,-2.0602,-2.1753,-2.0507,-1.7933,-1.9618,-1.9121,-1.7239,-1.7239,-1.7445,-1.7736,-1.7375,-1.7239,-1.7142,-1.6328,-1.6055,-1.5998,-1.5078,-1.4824,-1.4902,0.0,0.0,0.0,-1.9935,-2.0969,0.0,-2.439,-2.1112,-1.8905,0.0,0.0,-3.0516,-3.8111,-4.5087,-4.9677,-4.9155,-4.6887,-4.5401,-4.6588,-4.8233,-5.0639,-5.4065,-5.4791,-5.5303,-5.6045,-5.21,-4.8,-4.5158,-4.0999,-3.711,-3.3749,-3.1808,-2.9004,-2.5124,-2.3615,-2.1059,-1.6823,-1.6147,-1.4708,-1.2185,-0.8547,-0.4657,-0.0785,-0.8585,-1.2185,-1.2481,-1.5276,-1.8556,-2.2145,-2.6251,-2.9543,-3.2297,-3.4957,-3.8642,-4.2703,-4.2749,-4.4613,-4.7309,-4.7339,-4.8309,-4.9677,0.0,0.0,0.0,0.0,0.0,0.0,0.0,0.0,0.0,0.0,0.0,0.0,0.0,-1.5273,-1.5254,-1.5391,-1.5156,-1.4824,-1.4394,-1.4355,-1.4238,-1.3984,-1.4902,-1.5156,-1.4609,-1.5566,-1.6079,-1.6083,-1.6083,-1.6947,-1.8564,-1.9134,-2.0093,-2.132,-2.1501,-2.1632,-2.1887,-2.1489,-2.0872,-2.0236,-2.0181,-1.9562,-1.8675,-1.8007,-1.7993,-1.8199,-1.6968,-1.7079,-1.7622,-1.6739,-1.6484,-1.6387,-1.5801,-1.541,-1.5273,-1.5703,-1.5976,-1.691,-2.0956,0.0,0.0,-2.4613,-1.9556,-1.5355,-2.505,-2.8846,-3.1257,-3.427,-4.4041,-5.0279,-4.5076,-4.6081,-4.6985,-4.4928,-4.6183,-4.7951,-4.9297,-4.9519,-4.9937,-5.1061,-4.6296,-4.24,-4.0881,-3.5314,-3.1283,-2.9726,-2.7167,-2.4868,-2.3398,-2.3134,-2.1126,-1.7114,-1.6996,-1.5449,-1.246,-1.1029,-0.8144,-0.3822,-0.8731,-1.1913,-1.3606,-1.672,-1.8661,-1.9726,-2.4039,-2.7872,-3.1211,-3.2248,-3.6183,-4.1612,-4.2358,-4.4351,-4.6834,-4.8348,-4.9268,-5.0104,0.0,0.0,0.0,0.0,0.0,0.0,0.0,0.0,-1.4805,-1.5352,0.0,0.0,0.0,0.0,-1.5469,-1.5625,-1.5371,-1.5039,-1.459,-1.457,-1.4375,-1.3945,-1.4883,-1.5215,-1.4785,-1.6059,-1.6859,-1.7,-1.7141,-1.7796,-1.9083,-1.9528,-2.027,-2.1244,-2.1821,-2.2245,-2.2559,-2.2368,-2.2006,-2.1589,-2.1281,-2.0778,-2.0099,-1.9466,-1.9299,-1.9264,-1.8731,-1.8637,-1.8785,-1.8329,-1.7965,-1.7565,-1.7209,-1.6468,-1.5818,-1.5837,-1.5605,-1.6102,-1.9203,-1.6642,-1.4631,-2.0624,-1.6834,-1.3585,-2.1322,0.0,-3.2597,-3.2977,-4.3644,-5.1111,-4.5404,-4.6566,-4.7258,-4.3698,-4.3545,-4.4038,-4.47,-4.399,-4.3685,-4.4472,-3.9733,-3.5886,-3.4624,-2.9843,-2.6537,-2.6183,-2.0889,0.0,-1.7651,-1.6632,-1.5337,-1.349,-1.3737,-1.2122,-0.8364,-0.836,-0.8123,-0.7816,-1.1079,-1.362,-1.5511,-1.8248,-1.9567,-1.9907,-2.3668,-2.7046,-3.0011,-3.136,-3.5561,-4.1234,-4.2509,-4.4702,-4.7341,-4.8906,-5.0051,-5.1264,0.0,0.0,0.0,0.0,0.0,0.0,0.0,0.0,-1.5332,-1.541,0.0,0.0,0.0,0.0,0.0,-1.6096,-1.6135,-1.5958,-1.5469,-1.5449,-1.5273,-1.4844,-1.5215,-1.5644,-1.6115,-1.7328,-1.8047,-1.8025,-1.8386,-1.8735,-1.9112,-1.9422,-2.0115,-2.1017,-2.188,-2.2331,-2.2627,-2.4696,-2.4049,-2.1877,-2.3211,-2.2871,-2.1592,-2.1677,-2.1394,-2.107,-2.2688,-2.2172,-2.0769,-2.1008,-2.0373,-1.9431,-1.9059,-1.7873,-1.6414,-1.559,-1.5429,-1.5251,0.0,0.0,0.0,-1.1888,-1.2513,0.0,-1.3307,0.0,-3.3912,-3.3912,-4.3917,-5.2139,-5.0413,-4.8446,-4.5816,-4.2627,-4.0028,-3.8866,-4.0433,-3.8316,-3.6639,-3.678,-3.2606,-2.8769,-2.6171,-2.435,-2.3119,-2.2574,-1.2902,-0.7152,-0.7328,-0.3902,-0.2985,-0.519,-0.5824,-0.4088,-0.0,-0.0157,-0.4086,-1.1547,-1.491,-1.7111,-1.8096,-1.984,-2.1341,-2.2749,-2.5233,-2.7117,-2.8675,-3.2583,-3.7202,-4.1934,-4.3162,-4.568,-4.8716,-4.8843,-5.0589,-5.3107,0.0,0.0,0.0,0.0,0.0,-1.4189,-1.4213,-1.4154,-1.4428,0.0,0.0,0.0,-1.7033,-1.7755,-1.8008,-1.7552,-1.7491,-1.7144,-1.6367,-1.6367,-1.6172,-1.5723,-1.6133,-1.6556,-1.7054,-1.7693,-1.836,-1.9171,-1.9259,-1.9404,-1.9624,-2.0558,-2.112,-2.1439,-2.2428,-2.2879,-2.2991,-2.3469,-2.398,-2.4451,-2.3753,-2.284,-2.2024,-2.1873,-2.1128,-2.0343,-2.1301,-2.1635,-2.1608,-2.1558,-2.0841,-1.957,-1.7691,-1.6812,-1.6298,-1.5593,-1.496,-1.4366,-1.4126,0.0,0.0,0.0,0.0,0.0,-1.6268,0.0,-2.8433,-2.7345,-3.6588,-4.3808,-4.0244,-4.2433,-4.4037,-4.1414,-3.938,-3.7846,-3.7308,-3.3956,-3.2214,-3.3886,-2.9215,-2.3017,-1.5913,-1.3644,-1.1142,0.0,-0.3961,-0.0724,0.1047,0.5995,0.827,0.7484,0.1408,-0.1256,-0.0,-0.551,-0.9236,-1.095,-1.6545,-1.943,-1.9893,-2.2438,-2.3591,-2.3977,-2.6686,-2.9006,-3.1064,-3.363,-3.7688,-4.2502,-4.3833,-4.5454,-4.7236,-4.9205,-5.082,-5.2268,0.0,0.0,0.0,0.0,0.0,-1.5476,-1.5737,-1.5723,-1.5989,0.0,0.0,0.0,-1.7854,-1.8881,-1.9275,-1.8533,-1.8339,-1.803,-1.7547,-1.7184,-1.6894,-1.6621,-1.6875,-1.74,-1.8154,-1.8781,-1.9432,-2.0165,-2.0314,-2.0434,-2.0514,-2.0941,-2.12,-2.132,-2.1958,-2.2143,-2.203,-2.1907,-2.2886,-2.4366,-2.3689,-2.2674,-2.1722,-2.2808,-2.1872,-2.0446,-2.2726,-2.3286,-2.3275,-2.4477,-2.3713,-2.2118,-2.1176,-1.8747,-1.6478,-1.7175,-1.5651,-1.3811,-1.3967,-1.4115,-1.4365,-1.4647,0.0,0.0,-1.7904,-2.4067,-2.94,0.0,-3.6665,-4.2615,-3.827,-3.9857,-4.0959,-3.8224,-3.6246,-3.5196,-3.5291,-3.1444,-2.8775,-2.9081,-2.4418,-1.7277,-0.7257,-0.5187,-0.3128,0.0449,0.3913,0.6409,0.7916,1.1124,1.2881,1.2715,0.7893,0.2661,-0.2514,-1.1239,-1.4855,-1.3504,-1.9527,-2.2608,-2.3167,-2.5629,-2.7234,-2.8038,-3.0077,-3.2208,-3.447,-3.6482,-3.9554,-4.3157,-4.4435,-4.619,-4.8202,-5.0168,-5.1869,-5.3573,0.0,0.0,-1.8002,-1.8041,-1.7491,-1.7326,-1.8256,-1.8548,-1.8838,0.0,-1.9145,-1.8953,-1.9057,-1.981,-2.0068,-1.9561,-1.916,-1.8956,-1.8935,-1.8096,-1.7639,-1.777,-1.7573,-1.8127,-1.9552,-2.0268,-2.0785,-2.1129,-2.1453,-2.1543,-2.1468,-2.0986,-2.0839,-2.1009,-2.0936,-2.0788,-2.0618,-2.0621,-2.1449,-2.2726,-2.3054,-2.232,-2.1187,-2.3633,-2.2944,-2.1104,-2.5185,-2.5992,-2.5461,-2.8603,-2.8212,-2.6499,-2.673,-2.2353,-1.7536,-1.8996,-1.6703,-1.3694,-1.3763,-1.4735,-1.5673,-1.5725,-1.7276,0.0,-1.872,-2.5744,-3.2425,0.0,-3.9143,-4.3498,-3.9822,-3.8412,-3.6792,-3.4051,-3.2245,-3.1764,-3.3585,-2.9872,-2.5862,-2.3078,-1.863,-1.1386,-0.0838,0.134,0.284,0.5322,1.0203,1.3116,1.3106,1.3112,1.3058,1.3058,1.2224,0.5952,-0.5984,-1.5821,-2.0059,-1.8567,-2.3221,-2.613,-2.7463,-2.9437,-3.1396,-3.3267,-3.415,-3.566,-3.7868,-3.9968,-4.1995,-4.3918,-4.4961,-4.7311,-5.0113,-5.0922,-5.2983,-5.5477,-1.7929,-1.8015,-1.7975,-1.8015,-1.9727,-2.1032,-2.1009,-2.0053,-1.9627,-2.0478,-2.102,-2.1715,-2.2788,-2.2677,-2.2347,-2.2036,-2.1526,-2.1123,-2.0885,-1.9637,-1.9228,-1.9943,-1.8655,-1.8961,-2.1353,-2.0846,-2.1098,-2.2064,-2.2081,-2.192,-2.1493,-2.1107,-2.0938,-2.1009,-2.0756,-2.0628,-2.068,-2.1381,-2.167,-2.1456,-2.0601,-2.1378,-2.2864,-2.2665,-2.2347,-2.2406,-2.5185,-2.6643,-2.7948,-3.1745,-3.2815,-3.1634,-2.6982,-2.4621,-2.2538,-1.7128,-1.4819,-1.4156,-1.5043,-1.5227,-1.5675,-1.7729,-1.8106,0.0,-1.9831,-2.141,-2.3513,0.0,-2.841,-2.9977,-3.1828,-3.1692,-3.1162,-3.0529,-3.0403,-3.0335,-2.9944,-2.631,-2.2305,-1.8692,-1.2331,-0.6145,-0.0869,0.6463,1.1087,1.1599,1.2759,1.3363,1.3568,1.3342,1.3397,1.3397,0.8752,0.2586,-0.5353,-1.4341,-2.085,-2.5063,-2.69,-2.9002,-3.1272,-3.3074,-3.4119,-3.4521,-3.4928,-3.5769,-3.7318,-3.9796,-4.2453,-4.5035,-4.5776,-4.6826,-4.7973,-4.8954,-5.0948,-5.3357,-1.7492,-1.7782,-1.7974,-1.8014,-1.9877,-2.1694,-2.2539,-2.2501,-2.253,-2.2823,-2.3174,-2.3515,-2.3942,-2.3979,-2.3791,-2.3389,-2.2678,-2.2249,-2.2031,-2.0729,-2.0139,-2.059,-1.9748,-2.0139,-2.1877,-2.1502,-2.1369,-2.1628,-2.1628,-2.1305,-2.0629,-2.0447,-2.0136,-1.9789,-1.992,-1.9619,-1.908,-1.9939,-2.0505,-2.0854,-2.149,-2.1831,-2.1875,-2.3196,-2.3864,-2.4252,-2.6865,-3.0245,-3.363,-3.3854,-3.5998,-3.7659,-3.1994,-2.849,-2.5331,-1.9066,-1.5805,-1.4511,-1.5423,-1.5904,-1.6621,-1.8506,-1.9058,0.0,0.0,-2.1738,-2.332,-2.5039,-2.6777,-2.7878,-2.7702,-2.7402,-2.6942,-2.5876,-2.5695,-2.5661,-2.5955,-2.3983,-2.1543,-1.8613,-1.3439,-0.7468,-0.0872,0.8065,1.2384,1.0257,1.0038,1.0154,1.0239,1.233,1.3653,1.3675,0.6567,-0.0,-0.5826,-1.5757,-2.2846,-2.7317,-3.029,-3.2797,-3.4895,-3.5729,-3.568,-3.4872,-3.4374,-3.5086,-3.6925,-3.8004,-4.0836,-4.4549,-4.5802,-4.7026,-4.8126,-4.9054,-5.0707,-5.278,-1.7216,-1.7437,-1.76,-1.7968,-1.9469,-2.1441,-2.3776,-2.5008,-2.546,-2.5023,-2.4958,-2.4747,-2.4274,-2.4641,-2.4847,-2.4565,-2.3668,-2.3159,-2.34,-2.189,-2.1086,-2.1284,-2.0918,-2.1261,-2.2294,-2.2073,-2.1663,-2.1151,-2.1151,-2.0726,-1.9861,-1.9714,-1.9295,-1.8742,-1.8944,-1.8542,-1.7796,-1.8613,-1.9516,-2.0735,-2.3086,-2.2602,-2.0939,-2.4183,-2.5663,-2.6298,-2.996,-3.491,-3.9122,-3.6042,-3.8204,-4.1543,-3.6508,-3.1319,-2.6174,-2.2038,-1.8052,-1.503,-1.5565,-1.6519,-1.756,-1.8629,-1.9422,-2.0101,0.0,0.0,0.0,-2.3847,-2.6045,-2.7117,-2.4162,0.0,0.0,0.0,0.0,0.0,0.0,-2.1729,0.0,-1.9865,-1.6048,-1.0541,-0.2605,0.5754,0.9978,0.8186,0.6322,0.5428,0.5388,0.9134,1.1148,1.1235,0.4174,-0.2695,-0.8997,-1.8643,-2.5201,-2.8656,-3.3129,-3.6022,-3.7419,-3.699,-3.5907,-3.4198,-3.3221,-3.4115,-3.6251,-3.6641,-3.9481,-4.3889,-4.5421,-4.7205,-4.8841,-4.947,-5.0798,-5.2524,-1.7869,-1.6741,-1.62,-1.7745,-1.9567,-2.2092,-2.5652,-2.6282,-2.6136,-2.5602,-2.5511,-2.5443,-2.5114,-2.5318,-2.5781,-2.639,-2.5292,-2.4959,-2.599,-2.3755,-2.2767,-2.3564,-2.2115,-2.2092,-2.3717,-2.2515,-2.1854,-2.1782,-2.1782,-2.1346,-2.0501,-1.9727,-1.9291,-1.9159,-1.8442,-1.8488,-1.9033,-1.98,-2.0623,-2.1553,-2.3018,-2.3137,-2.2568,-2.4717,-2.6272,-2.8196,-3.5428,-3.9559,-4.1305,-3.9519,-3.9456,-3.9264,-3.5253,-2.9695,-2.4479,-2.3881,-2.0284,-1.6401,-1.586,-1.6519,-1.7493,-1.8195,-1.8163,-1.8395,-1.9676,0.0,-1.8852,-1.9164,0.0,-1.7656,-1.8026,0.0,0.0,0.0,0.0,0.0,-1.7417,-1.8177,-1.9367,-2.0556,-1.5954,-1.1642,-0.9056,-0.2598,0.4651,1.2018,0.5193,0.0689,0.0717,0.1242,0.1736,0.2351,-0.0466,-0.6954,-1.7266,-2.2465,-2.7207,-3.1786,-3.4981,-3.6673,-3.7069,-3.5916,-3.3861,-3.1362,-3.1869,-3.3038,-3.4738,-3.7833,-4.1059,-4.4191,-4.4958,-4.6689,-4.8836,-4.8852,-5.009,-5.1726,-1.8577,-1.7649,-1.7158,-1.7889,-1.8705,-2.0892,-2.5787,-2.688,-2.7018,-2.6659,-2.6866,-2.6928,-2.6668,-2.6759,-2.6879,-2.6864,-2.5994,-2.5564,-2.5695,-2.4568,-2.4136,-2.47,-2.3815,-2.3725,-2.4481,-2.3591,-2.2712,-2.1877,-2.1353,-2.0719,-1.9814,-1.8977,-1.8388,-1.8167,-1.8026,-1.8304,-1.8987,-2.0807,-2.151,-2.165,-2.3278,-2.404,-2.4464,-2.6165,-2.952,-3.3716,-3.6489,-4.1093,-4.4914,-3.9163,-4.2114,-4.6679,-3.7381,-3.3377,-3.1653,-2.8926,-2.3196,-1.8185,-2.0036,-1.9034,-1.7725,-1.9281,-1.906,-1.8675,-1.9618,-1.9018,-1.8188,-1.7823,0.0,0.0,0.0,0.0,0.0,0.0,-1.7969,-1.8418,0.0,0.0,-1.7169,0.0,0.0,0.0,-1.3274,-0.7896,-0.4517,-0.4829,-0.1892,-0.0,-0.0,-0.4533,-0.6853,-0.5823,-0.8425,-1.3084,-1.9923,-2.4177,-2.8339,-3.2316,-3.4142,-3.4583,-3.3504,-3.071,-2.8635,-2.7381,-2.7563,-2.9675,-3.3112,-3.5795,-3.9786,-4.4328,-4.592,-4.7885,-4.9789,-5.0178,-5.1069,-5.2349,-1.9397,-1.8644,-1.8007,-1.8027,-1.8023,-1.9725,-2.4912,-2.6432,-2.6764,-2.6071,-2.6995,-2.7387,-2.6744,-2.7641,-2.811,-2.7723,-2.708,-2.6154,-2.4992,-2.5233,-2.4766,-2.3447,-2.4634,-2.4909,-2.4072,-2.4034,-2.3405,-2.2091,-2.136,-2.0526,-1.9617,-1.8777,-1.8168,-1.7955,-1.8056,-1.8453,-1.9108,-2.1854,-2.2507,-2.2015,-2.4057,-2.5541,-2.6729,-2.8521,-3.3318,-3.8902,-3.868,-4.3127,-4.7823,-4.0026,-4.3653,-4.9647,-3.9544,-3.6252,-3.5469,-3.2694,-2.6662,-2.1213,-2.2816,-2.1294,-1.94,-2.0225,-1.9953,-1.9537,-1.9608,-1.895,-1.8058,-1.6955,-1.6133,0.0,0.0,0.0,-1.6634,-1.6612,0.0,-1.8172,-1.8701,-1.746,-1.6413,-1.6416,-1.7572,0.0,0.0,-1.2363,-1.2205,-1.6954,-0.9652,-0.4121,-0.2106,-0.8705,-1.2427,-1.21,-1.5138,-1.8352,-2.159,-2.6023,-2.9857,-3.3106,-3.3407,-3.2596,-3.0738,-2.6855,-2.4723,-2.4204,-2.4907,-2.7993,-3.2809,-3.5534,-4.015,-4.5646,-4.7886,-5.0128,-5.1867,-5.1902,-5.2624,-5.3952,-2.0392,-1.9199,-1.7986,-1.7986,-1.7966,-1.928,-2.3021,-2.4609,-2.4719,-2.2988,-2.4877,-2.5865,-2.4166,-2.7436,-2.9669,-2.9573,-2.8874,-2.7229,-2.446,-2.5777,-2.4428,-1.915,-2.3764,-2.5136,-2.2244,-2.3416,-2.3578,-2.2703,-2.2139,-2.1439,-2.0526,-1.9683,-1.9222,-1.9243,-1.8765,-1.9105,-2.006,-2.288,-2.3552,-2.2899,-2.5278,-2.7398,-2.9362,-3.1742,-3.6722,-4.2616,-4.3601,-4.6792,-4.9476,-4.3955,-4.282,0.0,0.0,-3.6016,-3.1618,-3.3463,-3.0725,-2.636,-2.2328,-2.2412,-2.3047,-2.0736,-2.0474,-2.0524,-1.9519,-1.8619,-1.7421,-1.5837,-1.4545,-1.3678,-1.3404,-1.4379,-1.5525,-1.6419,-1.7354,0.0,0.0,-1.7429,-1.7926,-1.9532,-1.8748,-1.7722,0.0,-1.6625,-1.618,-1.5535,-1.6696,-1.4357,-0.7242,-1.0445,-1.3532,-1.5692,-1.9435,-2.1989,-2.3449,-2.8592,-3.2382,-3.5113,-3.3436,-3.1788,-2.9972,-2.6277,-2.3779,-2.2682,-2.5612,-2.9599,-3.437,-3.8921,-4.3808,-4.8621,-5.1013,-5.3461,-5.5383,-5.3576,-5.4418,-5.6566,-2.0542,-2.0103,-1.9394,-1.8169,-1.8923,-2.0565,-2.3089,-2.5559,-2.5813,-2.2167,-2.42,-2.52,-2.2795,-2.3662,-2.5166,-2.6904,-2.4863,-2.3761,-2.4473,-2.305,-2.1595,-2.0062,-2.1243,-2.2171,-2.2963,-2.2824,-2.3163,-2.4057,-2.2983,-2.2438,-2.2484,-2.0314,-1.9456,-1.975,-1.8674,-1.8787,-2.0166,-2.374,-2.475,-2.4252,-2.6199,-2.7781,-2.9217,-3.1431,-3.5599,-4.0166,-4.0926,-4.3956,0.0,-4.2286,-4.3177,-4.5479,-4.197,-3.7847,-3.4853,-3.7951,-3.1816,-2.4303,0.0,0.0,-1.9552,-2.0521,-1.9842,-1.8772,-1.7889,-1.7799,-1.7478,-1.6051,-1.52,-1.4561,-1.414,-1.5186,-1.621,-1.6558,-1.7354,-1.7949,0.0,-1.7559,-1.7526,-1.7779,-1.7139,-1.5414,-1.1963,0.0,-1.3966,-1.3193,-1.4398,-1.3496,-0.9396,-1.2535,-1.524,-1.7347,-2.1091,-2.3811,-2.4996,-2.9545,-3.1688,-3.15,-3.0504,-2.9152,-2.7229,-2.493,-2.4626,-2.6199,-2.8443,-3.2556,-3.7839,-4.1571,-4.5943,-5.0505,-5.2724,-5.5272,-5.7745,-5.7295,-5.8015,-5.9527,-2.0682,-2.0678,-2.0266,-1.9097,-1.9806,-2.0667,-2.0992,-2.6049,-2.7127,-1.9458,-2.3087,-2.4901,-2.1337,-2.1778,-2.3142,-2.4585,-2.3938,-2.2874,-2.2023,-2.3147,-2.2057,-1.82,-2.0332,-2.1836,-2.2009,-2.2162,-2.2992,-2.4591,-2.3837,-2.3447,-2.3322,-2.1059,-2.0137,-2.02,-1.8811,-1.8692,-1.9725,-2.3951,-2.5039,-2.4281,-2.5758,-2.7142,-2.8515,-2.9195,-3.3478,-3.9003,0.0,-4.1883,-4.4557,-4.2109,-4.318,-4.4959,-4.1724,-3.8127,-3.5464,-3.641,-3.0445,-2.3766,-2.5012,-2.2638,0.0,-2.0986,-2.0145,0.0,-1.4866,-1.3583,-1.2271,-0.9676,-0.8426,-0.8328,-1.0147,-1.1695,-1.3492,-1.614,-1.7354,-1.7949,0.0,-1.7695,-1.7441,-1.7012,-1.6499,-1.4744,-1.1194,-1.2586,-1.3263,-1.2191,-1.2882,-1.2718,-1.1435,-1.4686,-1.7563,-1.9664,-2.3823,-2.721,-2.9343,-3.2504,-3.3529,-3.2348,-3.1527,-3.0232,-2.87,-2.7521,-2.8298,-3.0723,-3.2867,-3.6849,-4.191,-4.5019,-4.8818,-5.2909,-5.5043,-5.7632,-6.0104,-6.0058,-6.1243,-6.3352,-2.0832,-2.0859,-2.0602,-2.0581,-2.0462,-1.9486,-1.6892,-2.5559,-2.7893,-1.5494,-2.1276,-2.4796,-1.9916,-2.1621,-2.3209,-2.3234,-2.5693,-2.4548,-1.7983,-2.5592,-2.5258,-1.3561,-2.0752,-2.331,-1.9609,-2.131,-2.2901,-2.431,-2.4681,-2.4237,-2.3213,-2.2006,-2.1149,-2.0616,-1.9198,-1.8582,-1.8913,-2.373,-2.4782,-2.33,-2.4016,-2.5577,-2.7227,-2.5448,-3.0518,-3.8626,-3.8761,-4.0356,-4.2282,-4.2816,-4.2427,-4.1459,-3.988,-3.6922,-3.3257,-2.946,-2.6955,-2.5037,-2.279,-2.3272,-2.374,-2.1552,-2.075,0.0,0.0,-0.6598,-0.2644,0.2343,0.4742,0.4085,-0.193,-0.4467,-0.7933,-1.4985,-1.7166,-1.7871,-1.7461,-1.7754,-1.7852,-1.7356,-1.6706,-1.581,-1.4531,-1.4456,-1.3952,-1.2549,-1.2422,-1.265,-1.3403,-1.6677,-2.0034,-2.3044,-2.7361,-3.1634,-3.5893,-3.6828,-3.7298,-3.7476,-3.5939,-3.4862,-3.4133,-3.385,-3.4568,-3.6139,-3.8833,-4.2327,-4.6262,-4.9343,-5.2504,-5.5775,-5.8042,-6.0478,-6.2671,-6.1987,-6.416,-6.7815,-2.0713,-2.0644,-2.0585,-2.0582,-1.8754,-1.7098,-1.6612,-1.9851,-2.1799,-2.0105,-2.0309,-2.0669,-2.0721,-1.8694,-1.9629,-2.5444,-2.3606,-2.2741,-2.3827,-2.3028,-1.9905,-1.4228,-1.5524,-1.7484,-1.9781,-1.9774,-2.1452,-2.4912,-2.479,-2.4821,-2.4893,-2.254,-2.1509,-2.1666,-1.9532,-1.8809,-1.9414,-2.3848,-2.5609,-2.545,-2.4721,-2.4949,-2.5676,0.0,-2.6799,-3.0354,-3.1458,-3.2474,-3.3375,-3.4339,-3.5085,-3.57,-3.6594,-3.5652,-3.3661,-2.9555,-2.6086,-2.3585,-2.2964,-2.062,-1.7348,-1.2876,-1.1817,-1.1063,0.0,0.0,0.0,0.0,0.7885,0.75,0.0823,-0.4133,-0.7819,-0.9784,-1.4541,-1.7969,-1.7871,-1.7949,-1.7562,-1.6437,-1.591,-1.5343,-1.4401,-1.3037,-1.1732,-1.082,-1.0732,-1.2039,-1.5033,0.0,-1.9506,-2.7419,-2.6484,-2.921,-3.6001,-3.4222,-3.4487,-3.6749,-3.7014,-3.7562,-3.8293,-3.998,-4.1801,-4.3654,-4.5557,-4.8253,-5.1432,-5.3287,-5.5626,-5.813,-5.9943,-6.2977,-6.6341,-6.7075,-6.8448,-7.0155,-2.1345,-2.117,-2.0857,-2.0663,-1.9159,-1.7331,-1.5258,-1.7754,-1.9436,-1.8667,-1.907,-1.9199,-1.8547,-1.6514,-1.7096,-2.1557,-2.2229,-2.2024,-2.1094,-2.2675,-2.088,-1.4361,-1.5031,-1.6913,-1.9844,-1.922,-2.079,-2.4704,-2.4996,-2.4764,-2.414,-2.2563,-2.1664,-2.1403,-1.9445,-1.8887,-1.9551,-2.3691,-2.6155,-2.7157,-2.6372,-2.5992,0.0,-2.366,-2.3961,-2.52,-2.2576,-2.4818,-2.8547,-2.4301,-2.3354,-2.394,-2.4037,-2.2631,-2.0333,-1.7994,-1.5334,-1.328,-1.4902,-1.4054,-1.2447,-1.1911,-0.8328,-0.4712,-0.4167,-0.4475,-0.3292,0.0,0.8231,0.9429,0.0,0.0106,-0.258,-1.0919,-1.5806,-1.8356,-1.7675,-1.7671,-1.7235,-1.6082,-1.512,-1.4544,-1.4451,-1.2641,-1.1192,-1.0362,-1.0434,-1.1432,0.0,0.0,-2.0893,-2.5351,-2.7386,-2.9804,-3.2665,-3.1666,-3.2818,-3.6109,-3.7221,-3.9197,-4.1925,-4.4419,-4.6167,-4.7283,-4.9767,-5.2327,-5.4803,-5.6296,-5.839,-6.094,-6.3252,-6.5771,-6.8302,-7.0103,-7.0755,-7.0808,-2.2111,-2.1942,-2.118,-2.0319,-2.0411,-1.9038,-1.4413,-1.7417,-1.8913,-1.5208,-1.7723,-1.8894,-1.6129,-1.5598,-1.5595,-1.6248,-2.1264,-2.1872,-1.5721,-2.3184,-2.3757,-1.4302,-1.6501,-1.8421,-1.9468,-1.8898,-2.0233,-2.3413,-2.4629,-2.4107,-2.2208,-2.221,-2.1743,-2.0686,-1.9393,-1.9151,-2.0005,-2.3329,-2.5976,-2.7883,-2.7921,-2.7308,-2.6048,-2.2471,-2.183,-2.1716,-1.3152,-1.6573,-2.3505,-1.3224,-0.9422,-0.8576,-0.6927,-0.3423,0.0179,-0.0738,0.0379,0.1356,-0.1767,-0.4339,-0.726,-1.2707,-0.7002,-0.0372,-0.1442,-0.4721,-0.613,-0.1668,0.5641,0.8863,0.0,0.4246,0.2521,-1.4757,-1.8366,-1.8483,-1.7008,-1.6959,-1.6817,-1.5934,-1.4304,0.0,-1.4388,-1.2814,-1.1502,-1.0846,-1.0915,-1.1251,0.0,0.0,-2.2029,-2.1188,-2.8217,-3.1144,-2.9428,-2.9779,-3.2259,-3.6792,-3.7253,-4.0142,-4.5113,-4.7402,-4.8604,-4.8995,-5.2305,-5.493,-5.6988,-5.8504,-6.0855,-6.3825,-6.6827,-6.8341,-6.9137,-7.1474,-7.1467,-7.0324,-2.2213,-2.2084,-2.1003,-1.8381,-1.9418,-1.9822,-1.7495,-1.5763,-1.5806,-1.871,-1.707,-1.6784,-1.9774,-1.6936,-1.6487,-2.0436,-2.0899,-2.0711,-2.043,-2.1057,-1.9229,-1.4338,-1.4607,-1.5607,-1.7205,-1.6634,-1.7341,-1.9398,-2.1642,-2.2103,-2.0971,-2.2225,-2.2248,-2.124,-2.0152,-2.075,-2.2582,-2.2866,-2.4032,-2.5809,-2.6028,-2.5172,-2.3541,-2.0746,-1.9542,-1.8063,-0.6082,-0.4406,-0.7329,-0.2833,0.1926,0.6262,0.6411,1.1669,1.6999,1.3252,1.255,1.2735,1.2046,0.8228,0.3276,-0.1524,-0.1313,-0.2025,-0.9392,-1.1248,-1.0525,-0.7151,-0.2029,0.1499,0.0286,0.0,-0.5982,-1.4222,-1.6624,-1.7044,-1.5993,-1.5994,-1.5846,-1.4963,-1.409,-1.3508,-1.3493,-1.224,-1.16,-1.1957,-1.1369,-1.2261,0.0,0.0,-1.7243,0.0,-2.433,0.0,0.0,0.0,-3.4351,-4.3516,-3.9341,-4.1271,-4.8477,-4.9164,-5.0367,-5.1866,-5.4008,-5.6241,-5.851,-6.0127,-6.2777,-6.5992,-6.7833,-6.896,-6.9688,-7.097,-7.0431,-6.9344,-2.3937,-2.3438,-2.2825,-2.2488,-1.8822,-1.7077,-2.0564,-2.1101,-2.0909,-2.0492,-1.8922,-1.8295,-1.91,-1.7529,-1.7015,-1.8119,-1.9375,-1.9453,-1.7942,-1.9144,-1.8207,-1.4434,-1.4156,-1.5056,-1.6906,-1.6284,-1.6915,-1.8735,-2.1115,-2.1775,-2.0674,-2.2178,-2.249,-2.1595,-1.9852,-2.0147,-2.1942,-2.1946,0.0,-2.586,-2.6244,-2.5997,-2.4928,-2.078,-1.825,-1.5578,-0.3858,0.1524,0.4079,1.0099,1.5349,1.9365,1.9297,2.1363,2.3246,2.1576,1.9242,1.6981,1.565,1.3447,1.08,0.8169,0.0364,-0.7538,-1.158,-1.3465,-1.403,-1.2253,-1.1054,-1.0565,-1.1083,-1.3332,0.0,0.0,-1.8703,-1.8419,-1.7301,-1.6512,-1.6012,-1.5993,-1.5258,-1.4607,-1.4128,-1.3092,-1.2363,-1.2131,-1.1543,-1.1792,0.0,0.0,-1.7442,0.0,0.0,0.0,0.0,0.0,0.0,-4.2119,-4.067,-4.3285,-4.9344,-5.0035,-5.0769,-5.1773,-5.4156,-5.65,-5.8823,-6.1964,-6.4641,-6.6885,-6.8193,-6.8871,-6.9271,-7.0171,-6.9769,-6.8963,-2.5164,-2.4845,-2.4709,-2.5769,-2.026,-1.7467,-2.2846,-2.6013,-2.6095,-2.1505,-2.0996,-2.0104,-1.7889,-1.7941,-1.7396,-1.541,-1.7457,-1.7973,-1.6172,-1.7709,-1.77,-1.5481,-1.4583,-1.4843,-1.6596,-1.595,-1.6345,-1.7783,-2.0065,-2.083,-2.0082,-2.1547,-2.1907,-2.1072,-1.8843,0.0,0.0,0.0,-2.3293,-2.6028,-2.6428,-2.6485,-2.5835,-2.091,-1.7541,-1.4155,-0.4204,0.37,1.0679,1.8833,2.4323,2.7942,2.9383,2.8193,2.6338,2.5902,2.2858,1.8928,1.5989,1.5375,1.4835,1.2096,0.0352,-1.1112,-1.2309,-1.4908,-1.6903,-1.6788,-1.8377,-2.0037,-2.0758,-2.1795,0.0,0.0,-2.018,-1.9345,-1.7721,-1.6279,-1.5878,-1.6905,-1.5599,-1.4614,-1.4714,-1.3421,-1.2254,-1.1624,-1.1235,-1.1315,-1.1829,0.0,0.0,0.0,0.0,-2.7024,-2.9193,0.0,-3.5196,-4.0672,-4.1653,-4.4718,-4.9494,-5.0336,-5.0817,-5.1182,-5.3855,-5.6599,-5.9464,-6.3504,-6.5936,-6.7192,-6.8075,-6.851,-6.869,-6.9333,-6.9064,-6.8471,-2.438,-2.5082,-2.5008,-2.2794,-2.6152,-2.7693,-2.3719,-2.5085,-2.5231,-2.1221,-2.1049,-2.0327,-1.8078,-1.778,-1.7554,-1.6959,-1.5593,-1.6575,-2.0859,-1.7082,-1.5979,-1.8436,-1.5801,-1.4338,-1.4421,-1.4173,-1.393,-1.4001,-1.5919,-1.734,-1.8391,-1.9579,-1.9555,-1.8536,0.0,0.0,0.0,-2.0886,-2.2667,-2.4623,-2.5261,-2.4481,-2.2558,-1.938,-1.7218,-1.482,-0.6762,0.192,1.0351,1.5917,2.2128,2.8233,3.2623,3.2778,3.041,2.6301,2.3466,2.0753,1.645,1.4922,1.274,0.4586,-0.1368,-0.6963,-1.4179,-1.7529,-1.9239,-1.9848,-2.0244,-2.0014,-1.8432,-1.9154,-1.9261,0.0,0.0,-1.7318,-1.4484,-1.3389,-1.3773,-1.615,-1.2819,-1.1428,-1.4051,-1.1483,-0.9938,-1.0503,-1.0231,-1.1761,0.0,0.0,0.0,-1.7906,0.0,-2.2837,-2.9015,-3.0182,-3.5722,-4.5455,-4.268,-4.4467,-5.0122,-5.0212,-5.0789,-5.1801,-5.3805,-5.7294,-6.177,-6.4317,-6.6051,-6.7116,-6.7422,-6.7922,-6.8436,-6.8527,-6.8013,-6.7368,-2.3036,-2.4555,-2.5913,-2.5562,-2.6817,-2.7109,-2.4508,-2.3356,-2.2196,-2.0966,-2.2161,-2.2278,-2.0,-1.8627,-1.7231,-1.5609,-1.4764,-1.5152,-1.7164,-1.5376,-1.4807,-1.6197,-1.4938,-1.4278,-1.4245,-1.4156,-1.3939,-1.3741,-1.6529,-1.7929,-1.8235,-2.0247,0.0,0.0,0.0,-1.8489,-1.9069,-1.9903,-2.1437,-2.3092,-2.2347,-2.2267,-2.2187,-1.817,-1.6925,-1.6486,-1.1171,-0.5066,0.1813,1.1458,2.0529,2.788,3.0035,3.0274,2.952,2.803,2.4174,1.9258,1.3758,0.9295,0.4903,-0.0,-0.6236,-1.2615,-1.8301,-2.0272,-2.0919,-2.137,-2.1824,-2.2077,-2.1518,-2.1938,-2.1836,-2.0259,0.0,-2.0068,-1.8076,-1.734,-1.7523,-1.9283,-1.6315,-1.5229,-1.7859,-1.3205,-1.1027,-1.3239,-1.1254,-1.0779,0.0,0.0,0.0,-2.2546,0.0,-2.6775,-3.6377,-3.4961,-3.8266,-4.6181,-4.5738,-4.7365,-5.084,-5.084,-5.1758,-5.3619,-5.531,-5.8268,-6.2041,-6.41,-6.5789,-6.7108,-6.7299,-6.7475,-6.7616,-6.7641,-6.7116,-6.6672,-2.1408,-2.3559,-2.5336,-2.551,-2.6101,-2.6157,-2.497,-2.1179,-1.9336,-2.1616,-2.2062,-2.1661,-2.0337,-1.8802,-1.7107,-1.5257,-1.4653,-1.4909,-1.6411,-1.5167,-1.4682,-1.5709,-1.4828,-1.4312,-1.4333,-1.4312,-1.4458,-1.4916,-1.7019,-1.8534,-1.949,0.0,0.0,0.0,-1.8865,-1.9048,-1.932,-1.9566,-2.0367,-2.1513,-2.0383,-2.0179,-2.0377,-1.7158,-1.5491,-1.4647,-1.3197,-0.9918,-0.4193,0.864,1.5861,2.0139,2.4116,2.4723,2.3971,2.3137,1.9141,1.3819,0.8765,0.2607,-0.2913,-0.624,-1.3096,-1.9757,-2.1579,-2.2766,-2.3308,-2.2855,-2.2984,-2.326,-2.346,-2.3888,-2.3821,-2.2659,0.0,-2.1924,-2.0494,-1.9681,-1.9416,-2.0191,-1.7212,-1.6259,-1.9248,-1.443,-1.2144,-1.4674,-1.2504,-1.1398,0.0,0.0,0.0,0.0,0.0,0.0,-3.6963,-3.5515,-3.8261,-4.5176,-4.7059,-4.8785,-5.0135,-5.0624,-5.1939,-5.3903,-5.56,-5.8203,-6.1256,-6.3431,-6.5294,-6.6834,-6.7058,-6.7039,-6.6885,-6.6885,-6.657,-6.6369,-1.9831,-2.1829,-2.2724,-2.0816,-2.4199,-2.6716,-2.479,-1.875,-1.6896,-2.3984,-2.0456,-1.7552,-1.7738,-1.7763,-1.763,-1.7232,-1.5432,-1.6411,-2.1394,-1.7056,-1.5694,-1.8862,-1.5924,-1.4299,-1.4299,-1.4299,-1.5184,-1.7053,-1.6282,-1.8021,-2.219,0.0,-2.0671,-1.9853,-1.8031,-1.8347,-2.0016,-1.9769,-1.9816,-2.019,-2.0051,-1.8412,-1.6037,-1.6451,-1.2462,-0.7394,-1.1761,-1.0437,-0.4671,0.8511,0.7284,0.2232,1.478,1.6651,1.3338,0.8856,0.5879,0.3567,0.1029,-0.3907,-0.9711,-1.5186,-2.202,-2.656,-2.3407,-2.5145,-2.6874,-2.4735,-2.3637,-2.2873,-2.2873,-2.3607,-2.3621,-2.1857,0.0,0.0,-1.9666,-1.8402,-1.7481,-1.7104,-1.3303,-1.2242,-1.6291,-1.4092,-1.2778,-1.3646,-1.3707,0.0,0.0,0.0,0.0,-1.6522,-1.4279,0.0,-2.6865,-2.9276,-3.4414,-4.2488,-4.583,-4.7413,-4.7536,-4.936,-5.0819,-5.2051,-5.3937,-5.6498,-5.9451,-6.2401,-6.4585,-6.6166,-6.6466,-6.6538,-6.6423,-6.6423,-6.6384,-6.6499,-2.3302,-2.2414,-2.1806,-2.3117,-2.291,-2.1965,-2.0219,-1.99,-1.9486,-1.7817,-1.6325,-1.5293,-1.5366,-1.5352,-1.5395,-1.5265,-1.5854,-1.6433,0.0,-1.6441,-1.6089,-1.5801,-1.6129,-1.6433,-1.6811,-1.7764,-1.8996,-2.0366,0.0,0.0,0.0,-2.3848,-2.3515,-2.1779,-2.2929,-2.2802,-2.1906,-2.1552,-2.0227,-1.8089,-1.8089,-1.5958,-1.2692,-1.039,-0.6407,-0.2362,-0.3825,-0.3338,-0.2456,-0.4385,-0.6845,-0.89,-0.6516,0.0167,0.5631,-0.1523,-0.4068,-0.6114,-1.3049,-1.6508,-1.8763,-2.1839,-2.4124,-2.6139,-2.7804,-2.7391,-2.6575,-2.5959,-2.3898,-2.2392,-2.2792,-2.31,-2.2913,-2.1737,-2.3588,0.0,-2.2508,-2.1775,-2.127,-2.0644,-1.7728,-1.7218,-2.1121,-1.8625,-1.7151,-1.8024,-1.5342,0.0,0.0,0.0,0.0,0.0,-2.433,0.0,-3.5521,-3.3168,-3.5527,-4.2563,-4.3625,-4.501,-4.6622,-4.7234,-4.8635,-5.0603,-5.2511,-5.5049,-5.8187,-6.1479,-6.3275,-6.4095,-6.5801,-6.5987,-6.5363,-6.587,-6.6502,-6.722,-2.0857,-2.0251,-1.9654,-2.0693,-2.0711,-1.9997,-1.8336,-1.8768,-1.8521,-1.6175,-1.501,-1.4306,-1.4326,-1.4312,0.0,-1.4269,-1.3817,-1.4055,-1.5683,-1.5903,-1.5593,-1.4278,-1.6229,-1.7465,-1.7765,-1.9524,0.0,-2.2377,-2.3344,-2.4386,-2.5367,-2.6729,-2.6619,-2.5418,-2.6663,-2.5982,-2.398,-2.3616,-2.1034,-1.7248,-1.7097,-1.4796,-1.117,-0.7561,-0.3645,-0.0,-0.0,-0.2127,-0.5833,-1.1527,-1.4116,-1.513,-1.6485,-1.1299,-0.5829,-1.0986,-1.2529,-1.4052,-2.0507,-2.2947,-2.4356,-2.6402,-2.7478,-2.852,-3.0223,-2.8472,-2.6232,-2.5482,-2.3592,-2.2098,-2.2458,-2.2806,-2.2859,-2.2311,-2.4545,-2.5888,-2.455,-2.3788,-2.3171,-2.269,-1.9949,-1.9671,0.0,-2.2215,-2.1216,0.0,0.0,0.0,0.0,0.0,0.0,-2.7504,-2.7767,0.0,-3.7069,-3.4606,-3.6137,-4.1565,-4.2255,-4.376,-4.5916,-4.5745,-4.6595,-4.8248,-5.0065,-5.2502,-5.5501,-5.9302,-6.15,-6.2648,-6.4778,-6.5208,-6.4734,-6.564,-6.6498,-6.7383,-1.5115,-1.6671,-1.7364,0.0,-1.8139,0.0,-1.8383,-1.591,-1.5248,-1.7682,-1.5918,-1.4272,-1.4272,-1.4272,-1.436,-1.4216,0.0,0.0,0.0,-1.5958,-1.4558,-1.4448,-1.6776,-1.8009,-1.7664,-2.0011,-2.2002,-2.3746,-2.6738,-2.88,-2.9954,-2.9743,-2.9743,-3.0026,-2.9343,-2.8067,-2.6375,-2.5486,-2.2133,-1.7278,-1.7137,-1.4829,-1.1195,-0.7298,-0.3346,-0.0172,-0.0709,-0.6415,-1.3487,-1.3644,-1.5481,-1.7618,-1.7196,-1.8172,-1.9366,-1.9335,-1.9635,-2.0253,-2.2529,-2.4598,-2.6752,-2.9105,-3.1776,-3.3218,-3.0918,-2.8511,-2.6124,-2.4067,-2.2765,-2.2017,-2.2044,-2.2752,-2.334,-2.3354,-2.5211,-2.6339,-2.574,-2.4456,-2.3541,-2.313,0.0,0.0,-2.4349,-2.504,-2.5092,0.0,0.0,0.0,0.0,0.0,-1.9743,-2.4094,-2.6648,-2.9667,-3.3335,-3.427,-3.6383,-3.9747,-4.1618,-4.3332,-4.5018,-4.4553,-4.4621,-4.5205,-4.7014,-4.9213,-5.1862,-5.6294,-5.9435,-6.1676,-6.3553,-6.422,-6.4266,-6.5513,-6.6298,-6.7012,0.0,0.0,-1.9696,-1.9805,-1.7645,-1.5755,-1.525,-1.4435,-1.4235,-1.474,-1.4358,-1.396,-1.3987,-1.3994,-1.4068,-1.3905,-1.4455,-1.4885,-1.5269,-1.7408,-1.8063,-1.6299,-1.9692,-2.1615,-2.1557,-2.3489,-2.5419,-2.7282,-2.9112,-3.0193,-3.0178,-3.1652,-3.2205,-3.1873,-3.1815,-3.0445,-2.8154,-2.6645,-2.2605,-1.7511,-1.7539,-1.5291,-1.1485,-0.7317,-0.3328,-0.1019,-0.8257,-1.2027,-1.366,-1.5724,-1.8005,-2.0413,-2.2175,-2.4111,-2.5472,-2.3429,-2.2918,-2.3753,-2.7703,-2.9374,-3.0728,-3.3037,-3.4353,-3.424,-3.1778,-2.8973,-2.6437,-2.4577,-2.3215,-2.2378,-2.2619,-2.302,-2.3407,-2.3634,-2.6459,-2.7455,-2.4149,-2.5658,-2.5845,0.0,-2.3445,-2.4702,-2.5733,-2.7976,-2.8146,0.0,0.0,-2.4386,-2.6918,-2.6883,-2.8765,-3.294,-3.5106,-3.7268,-3.9247,-3.9109,-3.9465,-4.0325,-4.074,-4.144,-4.2213,-4.2112,-4.2422,-4.3243,-4.5431,-4.7833,-5.0468,-5.5348,-5.8105,-5.9584,-6.289,-6.337,-6.2447,-6.4076,-6.4788,-6.5315,-2.4104,-2.2168,-2.0311,-2.0821,-1.8229,-1.5971,-1.5474,-1.56,-1.5205,-1.4009,-1.3838,-1.4159,-1.5116,-1.5278,-1.5624,-1.6334,-1.7785,-1.7706,-1.5843,-1.9037,-2.0028,-1.8099,-2.1155,-2.2748,-2.2627,-2.477,-2.7114,-2.9555,-3.0373,-3.1531,-3.2874,-3.4205,-3.4621,-3.4396,-3.4327,-3.2456,-2.9556,-2.8132,-2.3773,-1.7753,-1.794,-1.5759,-1.1956,-0.8574,-0.6727,-0.6812,-1.1888,-1.4298,-1.5731,-1.9318,-2.153,-2.2901,-2.4837,-2.7144,-2.894,-2.8268,-2.7629,-2.774,-3.0876,-3.2073,-3.2815,-3.4857,-3.5501,-3.4701,-3.107,-2.8782,-2.6649,-2.3941,-2.2979,-2.2672,-2.2832,-2.3233,-2.3581,-2.3741,-2.5485,-2.5814,-2.3397,-2.4926,-2.5883,-2.4879,-2.6206,-2.7678,-2.9089,-3.0354,-3.018,-2.792,-2.6536,0.0,-3.0409,-3.1127,-3.3276,-3.7396,-3.945,-4.0893,-4.1706,-4.1656,-4.163,-4.163,-4.1379,-4.1594,-4.2067,-4.1275,-4.1307,-4.1982,-4.3335,-4.5247,-4.783,-5.2554,-5.5825,-5.8199,-6.1466,-6.2352,-6.1903,-6.2577,-6.3271,-6.4269,-2.0548,-2.079,-2.0693,-2.0578,-1.9884,-1.9042,-1.7971,-1.7812,-1.7129,-1.4916,-1.4408,-1.4857,-1.6859,-1.7121,-1.7682,-1.9331,-2.011,-1.974,-1.7838,-2.0149,-2.1249,-1.9936,-2.1919,-2.3091,-2.2948,-2.5166,-2.7633,-3.0339,-3.0628,-3.219,-3.5177,-3.552,-3.573,-3.5788,-3.5406,-3.3242,-3.0075,-2.9314,-2.489,-1.8477,-1.8761,-1.6326,-1.237,-1.0325,-1.1542,-1.4408,-1.4372,-1.6045,-1.8789,-2.3005,-2.4967,-2.5778,-2.7012,-2.9244,-3.1614,-3.2983,-3.2544,-3.2004,-3.3296,-3.3586,-3.4001,-3.551,-3.5879,-3.4661,-3.0001,-2.8362,-2.6791,-2.3015,-2.2659,-2.306,-2.306,-2.3795,-2.4249,-2.3607,-2.4072,-2.4024,-2.3127,0.0,-2.5575,-2.7955,-2.8707,-3.002,-3.2591,-3.2411,-3.2058,-3.2058,-2.9912,-3.0368,-3.464,-3.4447,-3.5987,-3.9642,-4.1558,-4.2434,-4.2534,-4.3087,-4.3313,-4.3212,-4.276,-4.2685,-4.2911,-4.1549,-4.0942,-4.122,-4.1595,-4.2966,-4.5288,-4.9512,-5.3481,-5.72,-5.9956,-6.1365,-6.169,-6.0667,-6.0523,-6.0606,-2.4444,-2.4777,-2.439,-2.2006,-2.33,-2.3828,-2.1405,-1.8952,-1.7512,-1.8428,-1.6982,-1.6649,-1.8862,-1.8533,-1.8534,-1.8996,-2.0361,-2.0447,-1.8911,-2.0494,-2.1488,-2.1232,-2.2967,-2.4298,-2.473,-2.6673,-2.7806,-2.8,-2.9552,-3.0643,-3.1158,-3.1226,-3.1412,-3.1718,-3.1667,-3.0356,-2.8334,-2.8228,-2.5359,-2.1049,-2.1197,-1.7923,-1.2698,-1.2301,-1.4815,-1.8721,-1.9667,-2.1459,-2.3648,-2.4087,-2.6552,-2.9808,-3.1046,-3.3477,-3.5831,-3.6051,-3.622,-3.615,-3.5662,-3.5587,-3.551,-3.5586,-3.5195,-3.3804,-2.9747,-2.8609,-2.7455,-2.3791,-2.3594,-2.3995,-2.3995,-2.5538,-2.5912,-2.3106,-2.5161,-2.6117,-2.3145,0.0,-2.856,-2.8917,-3.1188,-3.2825,-3.3301,-3.4065,-3.4565,-3.4565,-3.5078,-3.6455,-3.8958,-3.8948,-4.0186,-4.2999,-4.3375,-4.3765,-4.4242,-4.4819,-4.4844,-4.4367,-4.4292,-4.379,-4.2961,-4.2771,-4.1915,-4.0706,-4.1776,-4.3306,-4.5268,-4.9001,-5.2773,-5.6553,-5.9599,-6.0566,-5.9972,-5.7697,-5.2961,-4.6133,-2.517,-2.5518,-2.5321,-2.412,-2.4969,-2.5335,-2.3903,-2.1534,-1.9727,-1.9223,-1.8274,-1.8552,-2.0479,-2.0418,-2.0691,-2.1754,-2.2301,-2.2325,-2.1347,-2.2311,-2.2868,-2.2718,-2.3523,-2.4102,-2.4369,-2.5229,-2.6215,-2.7221,-2.8048,-2.9122,-3.031,-3.0508,-3.0788,-3.1135,-3.1135,-3.0092,-2.8492,-2.8327,-2.565,-2.1825,-2.1942,-1.9966,-1.6979,-1.6457,-1.8698,-2.2349,-2.3076,-2.4545,-2.6514,-2.8343,-3.0316,-3.2088,-3.3576,-3.5256,-3.6719,-3.6953,-3.6816,-3.6465,-3.5859,-3.5508,-3.5156,-3.4492,-3.4355,-3.357,-3.0609,-2.9865,-2.9074,-2.6418,-2.56,-2.5569,-2.6364,-2.6877,-2.6907,-2.6102,-2.7305,0.0,-2.6592,-2.9754,-3.2377,-3.2621,-3.5373,-3.7192,-3.7192,-3.7256,-3.7287,-3.7287,-3.8134,-3.9098,-4.035,-4.0658,-4.1645,-4.374,-4.4669,-4.5422,-4.5974,-4.6527,-4.6652,-4.6401,-4.61,-4.5698,-4.5196,-4.4267,-4.3288,-4.2233,-4.1991,-4.245,-4.3795,-4.6857,-5.0338,-5.4168,-5.7989,-6.0195,-6.0266,-5.287,-4.4413,-3.5002,-2.4863,-2.5264,-2.5558,-2.5551,-2.5812,-2.571,-2.5114,-2.3426,-2.182,-2.0559,-1.9927,-2.0307,-2.2234,-2.2464,-2.2843,-2.3997,-2.3834,-2.3453,-2.2717,-2.2989,-2.3392,-2.3674,-2.3728,-2.3701,-2.3567,-2.3701,-2.4561,-2.631,-2.6383,-2.7289,-2.89,-2.8925,-2.8958,-2.9282,-2.8881,-2.8218,-2.7648,-2.7197,-2.5661,-2.3441,-2.3591,-2.3084,-2.2177,-2.1831,-2.3267,-2.5358,-2.6171,-2.7525,-2.9217,-3.1983,-3.3375,-3.4084,-3.5104,-3.5976,-3.6758,-3.7168,-3.7094,-3.6833,-3.6196,-3.5382,-3.4779,-3.4279,-3.4053,-3.3289,-3.1103,-3.0717,-3.0254,-2.8558,-2.7526,-2.7369,-2.8467,-2.8324,-2.8158,-2.8943,0.0,-2.9922,0.0,-3.3319,-3.5517,-3.6824,-3.9165,-4.0598,-4.0598,-4.0286,-4.0007,-4.0007,-4.0526,-4.1087,-4.1474,-4.1533,-4.2158,-4.3564,-4.5372,-4.6627,-4.7305,-4.7832,-4.8109,-4.8109,-4.7707,-4.738,-4.7104,-4.5799,-4.4769,-4.3915,-4.266,-4.2302,-4.2811,-4.498,-4.7804,-5.1176,-5.5112,-5.743,-5.706,-4.4277,-3.285,-2.1673,-2.4556,-2.4953,-2.5259,-2.5197,-2.5536,-2.5617,-2.4704,-2.3101,-2.2481,-2.4337,-2.2937,-2.2373,-2.4245,-2.4129,-2.3997,-2.3834,-2.3527,-2.2602,-2.0935,-2.0533,-2.1241,-2.32,-2.3621,-2.35,-2.2939,-2.3487,-2.3924,-2.4079,-2.435,-2.4634,-2.4918,-2.3229,-2.273,-2.2829,-2.1166,-2.1556,-2.3572,-2.3308,-2.5048,-2.7968,-2.7688,-2.7159,-2.7053,-2.8757,-2.8454,-2.7371,-2.9218,-3.1101,-3.2699,-3.26,-3.3997,-3.5802,-3.5527,-3.5976,-3.6758,-3.7168,-3.8465,-3.9312,-3.7999,-3.6506,-3.5514,-3.6204,-3.4652,-3.2478,-3.0628,-3.0391,-3.0125,-2.8427,-2.8472,-2.8809,-2.893,-3.0343,-3.0971,-2.9469,0.0,0.0,-3.4593,-3.5352,-3.6868,-4.0382,-4.1002,-4.1136,-4.1136,-4.2024,-4.2583,-4.2583,-4.3198,-4.3576,-4.3626,-4.2685,-4.2384,-4.3011,-4.5171,-4.6803,-4.7832,-4.841,-4.8711,-4.8711,-4.8661,-4.8109,-4.7129,-4.7004,-4.6075,-4.4543,-4.4443,-4.3943,-4.3229,-4.4376,-4.601,-4.7932,-5.022,-4.9591,-4.5556,-2.9436,-1.5939,-0.1836,-2.2559,-2.2681,-2.2698,-2.2754,-2.4214,-2.4739,-2.2433,-2.2879,-2.389,-2.4648,-2.4039,-2.3838,-2.4502,-2.4543,-2.4356,-2.4062,-2.3928,-2.295,-2.0838,-2.0495,-2.0721,-2.1356,-2.1443,-2.1963,-2.2873,-2.3086,-2.2728,-2.174,-2.1882,-2.1546,-2.0615,-2.0114,-2.0109,-2.0344,-1.9779,-2.0729,-2.2894,-2.28,-2.4829,-2.8015,-2.7881,-2.8458,-2.9234,-3.0009,-3.056,-3.109,-3.1861,-3.3309,-3.4865,-3.4694,-3.5316,-3.5996,-3.584,-3.6016,-3.6622,-3.8097,-3.962,-4.0923,-4.1871,-4.0052,-3.8016,-3.7767,-3.6173,-3.439,-3.3474,-3.2777,-3.211,-3.1451,-3.0829,-3.0513,-3.1229,-3.2264,-3.2906,-3.2913,0.0,-3.8403,-3.9518,-4.0834,-4.2471,-4.4205,-4.4374,-4.4374,-4.4374,-4.4719,-4.4962,-4.4962,-4.4568,-4.4317,-4.4317,-4.3263,-4.214,-4.1047,-4.3457,-4.5447,-4.6903,-4.8159,-4.8761,-4.8786,-4.9113,-4.9063,-4.8636,-4.8309,-4.7606,-4.6602,-4.5598,-4.4141,-4.2494,-4.2447,-4.2598,-4.2912,-4.4271,-4.6783,-4.6982,-2.4448,-0.6089,1.0656,-2.1507,-2.0921,-2.0559,-2.0977,-2.1176,-2.1329,-2.1732,-2.3315,-2.4529,-2.4623,-2.4556,-2.4502,-2.4502,-2.4583,-2.4476,-2.4102,-2.4155,-2.293,-2.0084,-1.9257,-1.9327,-2.0192,-2.0098,-2.1032,-2.2859,-2.2297,-2.1495,-2.0556,-2.0014,-1.942,-1.8451,-1.7999,-1.8251,-1.9083,-1.8591,-1.9937,-2.2635,-2.314,-2.5469,-2.8835,-2.9309,-3.0557,-3.2158,-3.2158,-3.2874,-3.402,-3.402,-3.4883,-3.6016,-3.6016,-3.6016,-3.6016,-3.6016,-3.6601,-3.7521,-3.9146,-4.1079,-4.31,-4.463,-4.3475,-4.1405,-4.0002,-3.8065,-3.651,-3.6058,-3.5491,-3.4984,-3.4984,-3.4485,-3.4359,-3.4942,-3.5353,-3.5998,-3.7188,-3.9817,-4.2066,-4.3095,-4.4754,-4.5874,-4.6276,-4.5942,-4.5601,-4.555,-4.5159,-4.4814,-4.4645,-4.3796,-4.3044,-4.2535,-4.1662,-4.0781,-3.9831,-4.1574,-4.3507,-4.5497,-4.7179,-4.8259,-4.8786,-4.9163,-4.9439,-4.959,-4.9213,-4.8711,-4.8109,-4.7004,-4.5067,-4.2445,-4.1854,-4.0616,-3.9109,-3.9275,-4.1201,-4.1062,-1.8123,0.0504,1.7054,-2.1543,-1.9951,-1.8988,-2.0244,-1.6054,-1.5236,-2.3304,-2.4195,-2.4143,-2.4449,-2.4382,-2.4209,-2.4209,-2.4462,-2.4409,-2.3834,-2.4035,-2.241,-1.8387,-1.612,-1.6496,-2.0167,-2.0204,-2.1044,-2.2859,-2.1044,-2.0321,-2.0682,-1.8778,-1.8249,-1.8752,-1.6751,-1.7006,-1.8906,-1.6871,-1.8445,-2.2353,-2.3983,-2.7114,-3.0965,-3.2614,-3.4314,-3.6016,-3.6016,-3.6016,-3.6016,-3.6016,-3.6016,-3.6016,-3.6016,-3.6016,-3.6016,-3.6016,-3.7935,-4.0119,-4.0119,-4.2996,-4.5954,-4.6085,-4.6134,-4.5689,-4.2952,-4.0406,-3.8326,-3.7758,-3.8005,-3.8439,-3.8439,-3.9634,-4.0513,-4.0017,-3.9927,-4.0441,-4.2065,-4.2329,-4.3119,-4.516,-4.5974,-4.6326,-4.6326,-4.5105,-4.4175,-4.3778,-4.2509,-4.1696,-4.1226,-4.0583,-3.9645,-3.8052,-3.7658,-3.8088,-3.9718,-3.9831,-4.1039,-4.3765,-4.5447,-4.7129,-4.8761,-4.8761,-4.9063,-4.959,-4.959,-4.9289,-4.8761,-4.8761,-4.6786,-4.3497,-4.3083,-4.0574,-3.702,-3.5486,-3.1455,-2.4623,-0.8802,0.4115,1.7251,-1.9404,-1.6753,-1.4524,-1.4838,-1.3583,-1.4207,-1.9517,-2.1083,-2.1613,-2.136,-2.2013,-2.2386,-2.2386,-2.3671,-2.4569,-2.4396,-2.4449,-2.3209,-2.0479,-1.8173,-1.7369,-1.8307,-1.9651,-2.0614,-2.1047,-2.0651,-1.9216,-1.659,-1.7615,-1.7495,-1.633,-1.7386,-1.8329,-1.8852,-1.8378,-2.035,-2.3983,-2.4468,-2.77,-3.2474,-3.3067,-3.4314,-3.6016,-3.6016,-3.6016,-3.6016,-3.6016,-3.6016,-3.6016,-3.6016,-3.6016,-3.6152,-3.7441,-3.8844,-4.0665,-4.3035,-4.5085,-4.6777,-4.766,-4.8006,-4.7558,-4.5547,-4.312,-4.1044,-4.0903,-4.0387,-3.9994,-3.9994,-4.1022,-4.1678,-4.118,-4.1969,-4.2862,-4.3501,-4.4402,-4.5494,-4.6431,-4.5944,-4.5489,-4.5126,-4.3811,-4.2867,-4.2366,-4.2253,-4.2058,-4.1589,-4.0762,-3.9456,-3.7441,-3.8385,-3.8232,-3.6948,-3.8335,-3.9285,-3.9476,-4.3198,-4.5773,-4.7054,-4.6263,-4.6925,-4.9012,-4.6431,-4.5997,-4.7244,-4.5677,-4.3608,-4.1432,-4.0345,-3.8357,-3.5496,-3.1543,-2.7903,-2.329,-0.9052,0.5179,1.9125,-1.7445,-1.4716,-1.2454,-1.2515,-1.2501,-1.3906,-1.799,-1.7937,-1.783,-1.9208,-2.0225,-2.1172,-2.2423,-2.3741,-2.4462,-2.4462,-2.3806,-2.2843,-2.1237,-1.9881,-1.8664,-1.7569,-1.9681,-2.0221,-1.9162,-1.9393,-1.8529,-1.612,-1.7575,-1.7722,-1.6688,-1.8084,-1.9569,-2.1148,-2.1204,-2.3229,-2.6925,-2.7785,-2.9997,-3.3309,-3.402,-3.5021,-3.6016,-3.6016,-3.6016,-3.6016,-3.6016,-3.6016,-3.6016,-3.6016,-3.6016,-3.6268,-3.8088,-3.9763,-4.1702,-4.4607,-4.6535,-4.8118,-4.8907,-4.8937,-4.8535,-4.7531,-4.5673,-4.4183,-4.3988,-4.3575,-4.334,-4.3529,-4.4428,-4.5066,-4.4887,-4.5604,-4.6061,-4.5991,-4.6737,-4.7405,-4.7732,-4.647,-4.5491,-4.5181,-4.3125,-4.1521,-4.1042,-4.0758,-4.0371,-3.9848,-3.9103,-3.7968,-3.6514,-3.7189,-3.7192,-3.6269,-3.7326,-3.7558,-3.7025,-3.9607,-4.1971,-4.3747,-4.3475,-4.438,-4.611,-4.4038,-4.3891,-4.51,-4.3938,-4.2364,-4.0699,-3.9773,-3.7508,-3.4223,-3.017,-2.6477,-2.2596,-1.3958,-0.2636,0.932,-1.5802,-1.3868,-1.2501,-1.2501,-1.2433,-1.38,-1.7492,-1.4851,-1.3798,-1.7586,-1.8422,-2.0016,-2.3095,-2.3786,-2.4168,-2.4168,-2.2793,-2.1793,-2.1531,-2.1361,-2.0219,-1.8061,-1.9892,-1.9803,-1.7612,-1.7834,-1.8047,-1.809,-1.8525,-1.888,-1.9295,-1.9531,-2.1613,-2.512,-2.5011,-2.7082,-3.0734,-3.2455,-3.3309,-3.3586,-3.5314,-3.6016,-3.6016,-3.6016,-3.6016,-3.6016,-3.6016,-3.6016,-3.6016,-3.6016,-3.6016,-3.6287,-3.8262,-4.0693,-4.3144,-4.5195,-4.7537,-4.9615,-4.9665,-4.9264,-4.8862,-4.8912,-4.8134,-4.7205,-4.6602,-4.6878,-4.7431,-4.7958,-4.8962,-4.9766,-4.9816,-4.9766,-4.959,-4.9138,-4.8987,-4.8937,-4.8987,-4.7369,-4.6251,-4.6156,-4.2923,-4.0452,-4.0087,-3.8789,-3.7598,-3.6836,-3.6387,-3.5957,-3.5586,-3.5156,-3.554,-3.6758,-3.6346,-3.5869,-3.5602,-3.4962,-3.6308,-3.9489,-4.0129,-4.0862,-4.1723,-4.1905,-4.2127,-4.2349,-4.2569,-4.1645,-4.0162,-4.0021,-3.7325,-3.311,-3.0483,-2.6666,-2.2553,-2.1429,-1.5693,-0.7979,-1.5776,-1.3868,-1.2501,-1.2501,-1.2488,-1.279,-1.3744,-1.3063,-1.2838,-1.3702,-1.3932,-1.5363,-1.864,-2.1832,-2.3861,-2.4501,-2.4209,-2.3901,-2.3627,-2.2117,-2.095,-2.0249,-1.9305,-1.8402,-1.7834,-1.8218,-1.836,-1.809,-2.1132,-2.2639,-2.2898,-2.5884,-2.7891,-2.9091,-2.9012,-3.0277,-3.2595,-3.3031,-3.402,-3.5451,-3.5879,-3.6016,-3.6016,-3.6016,-3.6016,-3.6016,-3.6016,-3.6016,-3.6016,-3.6016,-3.6016,-3.6598,-4.0212,-4.2013,-4.3476,-4.6987,-4.8782,-4.969,-5.0117,-4.9841,-4.9515,-4.9967,-4.9565,-4.8786,-4.7782,-4.8008,-4.856,-4.9113,-5.0117,-5.1046,-5.1473,-5.1197,-5.1021,-5.1322,-5.0645,-5.0218,-5.067,-4.9157,-4.7718,-4.6908,-4.3858,-4.141,-4.0591,-3.897,-3.7851,-3.7676,-3.7266,-3.6973,-3.6894,-3.6797,-3.5989,-3.4463,-3.4232,-3.3157,-3.0839,-2.9257,-3.0955,-3.5396,-3.4231,-3.5023,-3.753,-3.6327,-3.6758,-3.8304,-3.7255,-3.65,-3.6122,-3.4734,-3.35,-3.1911,-2.9245,-2.7158,-2.5145,-2.1173,-1.9066,-1.7641,-1.4538,-1.3317,-1.2522,-1.2596,-1.2549,-1.2501,-1.2501,-1.2447,-1.2512,-1.2546,-1.2282,-1.4131,-1.9524,-2.1728,-2.3195,-2.4453,-2.469,-2.4258,-2.2915,-2.3141,-2.2198,-1.9878,-1.968,-2.0059,-2.0654,-2.0781,-2.0793,-2.0654,-2.4671,-2.6609,-2.6751,-2.8771,-3.04,-3.1738,-3.1738,-3.2735,-3.459,-3.459,-3.5158,-3.6016,-3.6016,-3.6016,-3.6016,-3.6016,-3.5898,-3.5742,-3.5937,-3.6016,-3.6016,-3.6016,-3.6016,-3.6443,-3.9401,-4.1507,-4.3367,-4.6569,-4.867,-5.0042,-5.0343,-5.0218,-4.9992,-5.0017,-4.9816,-4.9439,-4.8837,-4.8962,-4.9414,-5.0218,-5.087,-5.1523,-5.2352,-5.2251,-5.2076,-5.2101,-5.1825,-5.1624,-5.1674,-5.0084,-4.8625,-4.7814,-4.5228,-4.2797,-4.0899,-3.901,-3.7754,-3.7363,-3.7129,-3.6992,-3.6992,-3.6992,-3.6093,-3.3875,-3.3875,-3.1684,-2.7227,-2.6168,-2.6127,-2.6773,-2.8583,-3.0818,-3.3345,-3.2753,-3.3107,-3.4106,-3.3594,-3.3448,-3.3317,-3.2844,-3.1934,-3.0479,-2.8842,-2.7507,-2.632,-2.3144,-2.159,-2.0816,-1.2943,-1.2589,-1.269,-1.3099,-1.3007,-1.2909,-1.302,-1.3065,-1.31,-1.3297,-1.339,-1.5763,-2.2001,-2.2078,-2.2281,-2.3865,-2.4026,-2.319,-2.1117,-2.3249,-2.2979,-1.9693,-2.1141,-2.289,-2.4671,-2.482,-2.4666,-2.433,-2.8142,-3.0048,-3.0115,-3.0375,-3.1738,-3.3743,-3.3743,-3.459,-3.6016,-3.6016,-3.6016,-3.6016,-3.6016,-3.6016,-3.6016,-3.6016,-3.5762,-3.5449,-3.5879,-3.6016,-3.6016,-3.6016,-3.6016,-3.6287,-3.8191,-4.0539,-4.3122,-4.5455,-4.8093,-5.0318,-5.0519,-5.0494,-5.0318,-4.9967,-4.9741,-4.959,-4.959,-4.959,-4.9916,-5.1046,-5.1272,-5.1624,-5.2729,-5.2929,-5.2779,-5.2327,-5.2628,-5.2779,-5.2302,-5.0921,-4.971,-4.9181,-4.6589,-4.3823,-4.1249,-3.9191,-3.7715,-3.6953,-3.6894,-3.6855,-3.6777,-3.6777,-3.5933,-3.3836,-3.3854,-3.1023,-2.498,-2.4212,-2.2388,-1.9378,-2.3543,-2.6657,-2.8769,-2.9771,-3.0176,-3.0422,-3.1134,-3.1292,-3.1356,-3.1756,-3.0685,-2.888,-2.8379,-2.7686,-2.6721,-2.5781,-2.381,-2.157,-1.2804,-1.2515,-1.2923,-1.4462,-1.4724,-1.4935,-1.5458,-1.5544,-1.5775,-1.649,-1.8899,-2.1044,-2.2054,-2.0747,-2.0239,-2.129,-2.0494,-1.9637,-1.9294,-2.0001,-2.1324,-2.3804,-2.3857,-2.5366,-2.8461,-2.9919,-2.9868,-2.7932,-3.0032,-3.1328,-3.1801,-3.3292,-3.4528,-3.5587,-3.5587,-3.5743,-3.6016,-3.6016,-3.6016,-3.6016,-3.6016,-3.6016,-3.6016,-3.6016,-3.5762,-3.5449,-3.5879,-3.6016,-3.6016,-3.6016,-3.6016,-3.6346,-3.8543,-4.0583,-4.2713,-4.5361,-4.7849,-4.9916,-5.0896,-5.0795,-5.0519,-5.0946,-5.0318,-4.959,-4.959,-4.959,-4.9916,-5.1046,-5.1272,-5.1624,-5.2729,-5.2929,-5.2904,-5.2829,-5.2879,-5.2904,-5.2829,-5.2529,-5.2167,-5.1619,-4.7675,-4.4088,-4.2158,-3.9815,-3.8281,-3.7793,-3.7754,-3.7598,-3.7226,-3.7207,-3.5638,-3.2159,-3.2176,-3.0202,-2.6186,-2.2487,-2.1199,-2.2498,-1.9413,-1.9978,-2.3476,-2.5152,-2.6994,-2.8746,-2.9243,-2.9529,-2.9434,-2.8528,-2.7647,-2.7146,-2.6507,-2.6758,-2.7274,-2.7358,-2.5955,-2.4142,-1.4268,-1.4168,-1.4646,-1.6624,-1.674,-1.6849,-1.7789,-1.7969,-1.8443,-2.0117,-2.167,-2.1521,-1.9141,-1.8736,-1.8937,-1.9499,-1.8621,-1.8668,-2.0506,-2.1058,-2.2373,-2.4829,-2.5451,-2.7191,-3.0615,-3.1132,-3.1222,-3.132,-3.2339,-3.2954,-3.3274,-3.3946,-3.4824,-3.5664,-3.5664,-3.5801,-3.6016,-3.6016,-3.6016,-3.6016,-3.6016,-3.6016,-3.6016,-3.6016,-3.5762,-3.541,-3.5605,-3.582,-3.6016,-3.6016,-3.6016,-3.6191,-3.7144,-3.9614,-4.2361,-4.4262,-4.7099,-4.9841,-5.0971,-5.087,-5.0469,-5.0745,-5.0193,-4.959,-4.959,-4.9841,-5.0293,-5.1122,-5.1272,-5.1523,-5.2327,-5.2226,-5.2101,-5.2427,-5.2477,-5.2477,-5.2477,-5.2729,-5.2729,-5.2176,-4.786,-4.4442,-4.3477,-4.0269,-3.8027,-3.7598,-3.7578,-3.7598,-3.7637,-3.639,-3.4631,-3.2241,-3.0855,-2.8476,-2.4589,-2.2659,-2.1523,-2.1362,-1.941,-1.9896,-2.26,-2.3478,-2.5037,-2.7143,-2.7423,-2.7619,-2.7647,-2.7148,-2.6841,-2.6692,-2.7297,-2.8308,-2.9576,-3.0283,-2.9367,-2.7731]},{"header":{"parameterUnit":"m.s-1","parameterCategory":1,"la1":30.6,"la2":28.766,"lo1":-90.7593,"lo2":-88.6598,"dy":0.0162,"dx":0.0183,"nx":116,"ny":114,"refTime":"2023-06-19T12:00:00:Z","depth":0,"parameterNumber":3,"parameterNumberName":"V-component_of_WINDS"},"data":[0.0,0.0,0.0,0.0,0.0,0.0,0.0,0.0,0.0,0.0,0.0,0.0,0.0,0.0,0.0,0.0,0.0,0.0,0.0,0.0,0.0,0.0,0.0,0.0,0.0,0.0,0.0,0.0,0.0,0.0,0.0,0.0,0.0,0.0,0.0,0.0,0.0,0.0,0.0,0.0,0.0,0.0,0.0,0.0,0.0,0.0,0.0,0.0,0.0,0.0,0.0,0.0,0.0,0.0,0.0,0.0,0.0,0.0,0.0,0.0,0.0,0.0,0.0,0.0,0.0,0.0,0.0,0.0,0.0,0.0,0.0,0.0,0.0,0.0,0.0,0.0,0.0,0.0,0.0,0.0,0.0,0.0,0.0,0.0,0.0,0.0,0.0,0.0,0.0,0.0,0.0,0.0,0.0,0.0,0.0,0.0,0.0,0.0,0.0,0.0,0.0,0.0,0.0,0.0,0.0,0.0,0.0,0.0,0.0,0.0,0.0,0.0,0.0,0.0,0.0,0.0,0.0,0.0,0.0,0.0,0.0,0.0,0.0,0.0,0.0,0.0,0.0,0.0,0.0,0.0,0.0,0.0,0.0,0.0,0.0,0.0,0.0,0.0,0.0,0.0,0.0,0.0,0.0,0.0,0.0,0.0,0.0,0.0,0.0,0.0,0.0,0.0,0.0,0.0,0.0,0.0,0.0,0.0,0.0,0.0,0.0,0.0,0.0,0.0,0.0,0.0,0.0,0.0,0.0,0.0,0.0,0.0,0.0,0.0,0.0,0.0,0.0,0.0,0.0,0.0,0.0,0.0,0.0,0.0,0.0,0.0,0.0,0.0,0.0,0.0,0.0,0.0,0.0,0.0,0.0,0.0,0.0,0.0,0.0,0.0,0.0,0.0,0.0,0.0,0.0,0.0,0.0,0.0,0.0,0.0,0.0,0.0,0.0,0.0,0.0,0.0,0.0,0.0,0.0,0.0,0.0,0.0,0.0,0.0,0.0,0.0,0.0,0.0,0.0,0.0,0.0,0.0,0.0,0.0,0.0,0.0,0.0,0.0,0.0,0.0,0.0,0.0,0.0,0.0,0.0,0.0,0.0,0.0,0.0,0.0,0.0,0.0,0.0,0.0,0.0,0.0,0.0,0.0,0.0,0.0,0.0,0.0,0.0,0.0,0.0,0.0,0.0,0.0,0.0,0.0,0.0,0.0,0.0,0.0,0.0,0.0,0.0,0.0,0.0,0.0,0.0,0.0,0.0,0.0,0.0,0.0,0.0,0.0,0.0,0.0,0.0,0.0,0.0,0.0,0.0,0.0,0.0,0.0,0.0,0.0,0.0,0.0,0.0,0.0,0.0,0.0,0.0,0.0,0.0,0.0,0.0,0.0,0.0,0.0,0.0,0.0,0.0,0.0,0.0,0.0,0.0,0.0,0.0,0.0,0.0,0.0,0.0,0.0,0.0,0.0,0.0,0.0,0.0,0.0,0.0,0.0,0.0,0.0,0.0,0.0,0.0,0.0,0.0,0.0,0.0,0.0,0.0,0.0,0.0,0.0,0.0,0.0,0.0,0.0,0.0,0.0,0.0,0.0,0.0,0.0,0.0,0.0,0.0,0.0,0.0,0.0,0.0,0.0,0.0,0.0,0.0,0.0,0.0,0.0,0.0,0.0,0.0,0.0,0.0,0.0,0.0,0.0,0.0,0.0,0.0,0.0,0.0,0.0,0.0,0.0,0.0,0.0,0.0,0.0,0.0,0.0,0.0,0.0,0.0,0.0,0.0,0.0,0.0,0.0,0.0,0.0,0.0,0.0,0.0,0.0,0.0,0.0,0.0,0.0,0.0,0.0,0.0,0.0,0.0,0.0,0.0,0.0,0.0,0.0,0.0,0.0,0.0,0.0,0.0,0.0,0.0,0.0,0.0,0.0,0.0,0.0,0.0,0.0,0.0,0.0,0.0,0.0,0.0,0.0,0.0,0.0,0.0,0.0,0.0,0.0,0.0,0.0,0.0,0.0,0.0,0.0,0.0,0.0,0.0,0.0,0.0,0.0,0.0,0.0,0.0,0.0,0.0,0.0,0.0,0.0,0.0,0.0,0.0,0.0,0.0,0.0,0.0,0.0,0.0,0.0,0.0,0.0,0.0,0.0,0.0,0.0,0.0,0.0,0.0,0.0,0.0,0.0,0.0,0.0,0.0,0.0,0.0,0.0,0.0,0.0,0.0,0.0,0.0,0.0,0.0,0.0,0.0,0.0,0.0,0.0,0.0,0.0,0.0,0.0,0.0,0.0,0.0,0.0,0.0,0.0,0.0,0.0,0.0,0.0,0.0,0.0,0.0,0.0,0.0,0.0,0.0,0.0,0.0,0.0,0.0,0.0,0.0,0.0,0.0,0.0,0.0,0.0,0.0,0.0,0.0,0.0,0.0,0.0,0.0,0.0,0.0,0.0,0.0,0.0,0.0,0.0,0.0,0.0,0.0,0.0,0.0,0.0,0.0,0.0,0.0,0.0,0.0,0.0,0.0,0.0,0.0,0.0,0.0,0.0,0.0,0.0,0.0,0.0,0.0,0.0,0.0,0.0,0.0,0.0,0.0,0.0,0.0,0.0,0.0,0.0,0.0,0.0,0.0,0.0,0.0,0.0,0.0,0.0,0.0,0.0,0.0,0.0,0.0,0.0,0.0,0.0,0.0,0.0,0.0,0.0,0.0,0.0,0.0,0.0,0.0,0.0,0.0,0.0,0.0,0.0,0.0,0.0,0.0,0.0,0.0,0.0,0.0,0.0,0.0,0.0,0.0,0.0,0.0,0.0,0.0,0.0,0.0,0.0,0.0,0.0,0.0,0.0,0.0,0.0,0.0,0.0,0.0,0.0,0.0,0.0,0.0,0.0,0.0,0.0,0.0,0.0,0.0,0.0,0.0,0.0,0.0,0.0,0.0,0.0,0.0,0.0,0.0,0.0,0.0,0.0,0.0,0.0,0.0,0.0,0.0,0.0,0.0,0.0,0.0,0.0,0.0,0.0,0.0,0.0,0.0,0.0,0.0,0.0,0.0,0.0,0.0,0.0,0.0,0.0,0.0,0.0,0.0,0.0,0.0,0.0,0.0,0.0,0.0,0.0,0.0,0.0,0.0,0.0,0.0,0.0,0.0,0.0,0.0,0.0,0.0,0.0,0.0,0.0,0.0,0.0,0.0,0.0,0.0,0.0,0.0,0.0,0.0,0.0,0.0,0.0,0.0,0.0,0.0,0.0,0.0,0.0,0.0,0.0,0.0,0.0,0.0,0.0,0.0,0.0,0.0,0.0,0.0,0.0,0.0,0.0,0.0,0.0,0.0,0.0,0.0,0.0,0.0,0.0,0.0,0.0,0.0,0.0,0.0,0.0,0.0,0.0,0.0,0.0,0.0,0.0,0.0,0.0,0.0,0.0,0.0,0.0,0.0,0.0,0.0,0.0,0.0,0.0,0.0,0.0,0.0,0.0,0.0,0.0,0.0,0.0,0.0,0.0,0.0,0.0,0.0,0.0,0.0,0.0,0.0,0.0,0.0,0.0,0.0,0.0,0.0,0.0,0.0,0.0,0.0,0.0,0.0,0.0,0.0,0.0,0.0,0.0,0.0,0.0,0.0,0.0,0.0,0.0,0.0,0.0,0.0,0.0,0.0,0.0,0.0,0.0,0.0,0.0,0.0,0.0,0.0,0.0,0.0,0.0,0.0,0.0,0.0,0.0,0.0,0.0,0.0,0.0,0.0,0.0,0.0,0.0,0.0,0.0,0.0,0.0,0.0,0.0,0.0,0.0,0.0,0.0,0.0,0.0,0.0,0.0,0.0,0.0,0.0,0.0,0.0,0.0,0.0,0.0,0.0,0.0,0.0,0.0,0.0,0.0,0.0,0.0,0.0,0.0,0.0,0.0,0.0,0.0,0.0,0.0,0.0,0.0,0.0,0.0,0.0,0.0,0.0,0.0,0.0,0.0,0.0,0.0,0.0,0.0,0.0,0.0,0.0,0.0,0.0,0.0,0.0,0.0,0.0,0.0,0.0,0.0,0.0,0.0,0.0,0.0,0.0,0.0,0.0,0.0,0.0,0.0,0.0,0.0,0.0,0.0,0.0,0.0,0.0,0.0,0.0,0.0,0.0,0.0,0.0,0.0,0.0,0.0,0.0,0.0,0.0,0.0,0.0,0.0,0.0,0.0,0.0,0.0,0.0,0.0,0.0,0.0,0.0,0.0,0.0,0.0,0.0,0.0,0.0,0.0,0.0,0.0,0.0,0.0,0.0,0.0,0.0,0.0,0.0,0.0,0.0,0.0,0.0,0.0,0.0,0.0,0.0,0.0,0.0,0.0,0.0,0.0,0.0,0.0,0.0,0.0,0.0,0.0,0.0,0.0,0.0,0.0,0.0,0.0,0.0,0.0,0.0,0.0,0.0,0.0,0.0,0.0,0.0,0.0,0.0,0.0,0.0,0.0,0.0,0.0,0.0,0.0,0.0,0.0,0.0,0.0,0.0,0.0,0.0,0.0,0.0,0.0,0.0,0.0,0.0,0.0,0.0,0.0,0.0,0.0,0.0,0.0,0.0,0.0,0.0,0.0,0.0,0.0,0.0,0.0,0.0,0.0,0.0,0.0,0.0,0.0,0.0,0.0,0.0,0.0,0.0,0.0,0.0,0.0,0.0,0.0,0.0,0.0,0.0,0.0,0.0,0.0,0.0,0.0,0.0,0.0,0.0,0.0,0.0,0.0,0.0,0.0,0.0,0.0,0.0,0.0,0.0,0.0,0.0,0.0,0.0,0.0,0.0,0.0,0.0,0.0,0.0,0.0,0.0,0.0,0.0,0.0,0.0,0.0,0.0,0.0,0.0,0.0,0.0,0.0,0.0,0.0,0.0,0.0,0.0,0.0,0.0,0.0,0.0,0.0,0.0,0.0,0.0,0.0,0.0,0.0,0.0,0.0,0.0,0.0,0.0,0.0,0.0,0.0,0.0,0.0,0.0,0.0,0.0,0.0,0.0,0.0,0.0,0.0,0.0,0.0,0.0,0.0,0.0,0.0,0.0,0.0,0.0,0.0,0.0,0.0,0.0,0.0,0.0,0.0,0.0,0.0,0.0,0.0,0.0,0.0,0.0,0.0,0.0,0.0,0.0,0.0,0.0,0.0,0.0,0.0,0.0,0.0,0.0,0.0,0.0,0.0,0.0,0.0,0.0,0.0,0.0,0.0,0.0,0.0,0.0,0.0,0.0,0.0,0.0,0.0,0.0,0.0,0.0,0.0,0.0,0.0,0.0,0.0,0.0,0.0,0.0,0.0,0.0,0.0,0.0,0.0,0.0,0.0,0.0,0.0,0.0,0.0,0.0,0.0,0.0,0.0,0.0,0.0,0.0,0.0,0.0,0.0,0.0,0.0,0.0,0.0,0.0,0.0,0.0,0.0,0.0,0.0,0.0,0.0,0.0,0.0,0.0,0.0,0.0,0.0,0.0,0.0,0.0,0.0,0.0,0.0,0.0,0.0,0.0,0.0,0.0,0.0,0.0,0.0,0.0,0.0,0.0,0.0,0.0,0.0,0.0,0.0,0.0,0.0,0.0,0.0,0.0,0.0,0.0,0.0,0.0,0.0,0.0,0.0,0.0,0.0,0.0,0.0,0.0,0.0,0.0,0.0,0.0,0.0,0.0,0.0,0.0,0.0,0.0,0.0,0.0,0.0,0.0,0.0,0.0,0.0,0.0,0.0,0.0,0.0,0.0,0.0,0.0,0.0,0.0,0.0,0.0,0.0,0.0,0.0,0.0,0.0,0.0,0.0,0.0,0.0,0.0,0.0,0.0,0.0,0.0,0.0,0.0,0.0,0.0,0.0,0.0,0.0,0.0,0.0,0.0,0.0,0.0,0.0,0.0,0.0,0.0,0.0,0.0,0.0,0.0,0.0,0.0,0.0,0.0,0.0,0.0,0.0,0.0,0.0,0.0,0.0,0.0,0.0,0.0,0.0,0.0,0.0,0.0,0.0,0.0,0.0,0.0,0.0,0.0,0.0,0.0,0.0,0.0,0.0,0.0,0.0,0.0,0.0,0.0,0.0,0.0,0.0,0.0,0.0,0.0,0.0,-3.3243,-3.3129,0.0,0.0,0.0,0.0,0.0,0.0,0.0,0.0,0.0,0.0,0.0,0.0,0.0,0.0,0.0,0.0,0.0,0.0,0.0,0.0,0.0,0.0,0.0,0.0,0.0,0.0,0.0,0.0,0.0,0.0,0.0,0.0,0.0,0.0,0.0,0.0,0.0,0.0,0.0,0.0,0.0,0.0,0.0,0.0,0.0,0.0,0.0,0.0,0.0,0.0,0.0,0.0,0.0,0.0,0.0,0.0,0.0,0.0,0.0,0.0,0.0,0.0,0.0,0.0,0.0,0.0,0.0,0.0,0.0,0.0,0.0,0.0,0.0,0.0,0.0,0.0,0.0,0.0,0.0,0.0,0.0,0.0,0.0,0.0,0.0,0.0,0.0,0.0,0.0,0.0,0.0,0.0,0.0,0.0,0.0,0.0,0.0,0.0,0.0,0.0,0.0,0.0,0.0,0.0,0.0,0.0,0.0,0.0,0.0,0.0,0.0,0.0,0.0,0.0,-3.5283,-3.4512,0.0,0.0,0.0,0.0,0.0,0.0,0.0,0.0,0.0,0.0,0.0,0.0,0.0,0.0,0.0,0.0,0.0,0.0,0.0,0.0,0.0,0.0,0.0,0.0,0.0,0.0,0.0,0.0,0.0,0.0,0.0,0.0,0.0,0.0,0.0,0.0,0.0,0.0,0.0,0.0,0.0,0.0,0.0,0.0,0.0,0.0,0.0,0.0,0.0,0.0,0.0,0.0,0.0,0.0,0.0,0.0,0.0,0.0,0.0,0.0,0.0,0.0,0.0,0.0,0.0,0.0,0.0,0.0,0.0,0.0,0.0,0.0,0.0,0.0,0.0,0.0,0.0,0.0,0.0,0.0,0.0,0.0,0.0,0.0,0.0,0.0,0.0,0.0,0.0,0.0,0.0,0.0,0.0,0.0,0.0,0.0,0.0,0.0,0.0,0.0,0.0,0.0,0.0,0.0,0.0,0.0,0.0,0.0,-4.2433,-4.2204,-4.2161,-4.0816,-4.0598,-4.1104,-3.8145,-3.6574,-3.6022,-3.444,0.0,0.0,0.0,0.0,0.0,0.0,0.0,0.0,0.0,0.0,0.0,0.0,0.0,0.0,0.0,0.0,0.0,0.0,0.0,0.0,0.0,0.0,0.0,0.0,0.0,0.0,0.0,0.0,0.0,0.0,0.0,0.0,0.0,0.0,0.0,0.0,0.0,0.0,-4.3487,-4.2694,-4.1774,-4.0707,0.0,0.0,0.0,0.0,0.0,0.0,0.0,0.0,0.0,0.0,0.0,0.0,0.0,0.0,0.0,0.0,0.0,0.0,0.0,0.0,0.0,0.0,0.0,0.0,0.0,0.0,0.0,0.0,0.0,0.0,0.0,0.0,0.0,0.0,0.0,0.0,0.0,0.0,0.0,0.0,0.0,0.0,0.0,0.0,-3.7699,-4.0766,0.0,0.0,0.0,0.0,0.0,0.0,0.0,0.0,0.0,0.0,0.0,0.0,0.0,-4.5369,-4.4628,-4.766,-4.7869,-4.5373,-4.7159,-4.7236,-4.5694,-4.4343,-4.3976,-4.428,-4.2763,0.0,-3.8492,-3.7949,0.0,0.0,0.0,0.0,0.0,0.0,0.0,0.0,0.0,0.0,0.0,0.0,0.0,0.0,0.0,0.0,0.0,0.0,0.0,0.0,0.0,0.0,0.0,0.0,0.0,0.0,0.0,0.0,0.0,0.0,0.0,0.0,0.0,0.0,0.0,0.0,-4.6282,-4.8775,-4.9464,-4.9181,-4.8983,-4.8728,-4.6296,-4.2886,-3.8906,-3.7533,0.0,0.0,0.0,0.0,0.0,0.0,0.0,0.0,0.0,0.0,0.0,0.0,0.0,0.0,0.0,0.0,0.0,0.0,0.0,0.0,0.0,0.0,0.0,0.0,0.0,0.0,0.0,0.0,0.0,0.0,0.0,0.0,0.0,0.0,0.0,0.0,0.0,0.0,0.0,-3.5587,-3.8567,-3.914,-3.9433,-3.8245,0.0,0.0,0.0,0.0,0.0,0.0,0.0,0.0,0.0,-4.6954,-4.9118,-5.0255,-5.0305,-5.2505,-5.3198,-5.228,-5.2699,-5.2368,-5.1172,-4.9791,-4.8453,-4.7215,-4.7019,-4.566,-4.3291,-4.1826,-4.1299,-4.0949,0.0,0.0,0.0,0.0,-3.1336,-3.0865,0.0,0.0,0.0,0.0,0.0,0.0,0.0,0.0,0.0,0.0,0.0,0.0,0.0,0.0,0.0,0.0,0.0,0.0,0.0,0.0,0.0,0.0,0.0,0.0,0.0,0.0,0.0,0.0,-4.9907,-5.3042,-5.4185,-5.4089,-5.4039,-5.3865,-5.1529,-4.7395,-4.2148,-4.0726,-3.8412,0.0,0.0,0.0,0.0,0.0,0.0,0.0,0.0,0.0,0.0,0.0,0.0,0.0,0.0,0.0,0.0,0.0,0.0,0.0,0.0,0.0,0.0,0.0,0.0,0.0,0.0,0.0,0.0,0.0,0.0,0.0,0.0,0.0,0.0,0.0,0.0,0.0,0.0,-3.7689,-4.0099,-3.9554,-4.1345,-4.0969,0.0,0.0,0.0,0.0,0.0,0.0,-4.7748,-4.777,-4.9164,-5.22,-5.3901,-5.5142,-5.5894,-5.7103,-5.7785,-5.7917,-5.7312,-5.6463,-5.5194,-5.3577,-5.1495,-4.9138,-4.9442,-4.8954,-4.7781,-4.6149,-4.5317,-4.4921,-4.1726,-3.908,-3.6791,-3.4767,-3.3036,-3.1806,0.0,0.0,0.0,0.0,0.0,0.0,0.0,0.0,0.0,0.0,0.0,0.0,0.0,0.0,0.0,0.0,0.0,0.0,0.0,0.0,0.0,0.0,0.0,0.0,0.0,0.0,0.0,-4.9906,-5.3039,-5.458,-5.464,-5.3823,-5.3865,-5.4572,-5.2656,-5.0219,-4.7269,-4.3684,-4.1325,-3.9718,0.0,0.0,0.0,0.0,0.0,0.0,0.0,0.0,0.0,0.0,0.0,0.0,0.0,0.0,0.0,0.0,0.0,0.0,0.0,0.0,0.0,0.0,0.0,0.0,0.0,0.0,0.0,0.0,0.0,0.0,0.0,0.0,0.0,0.0,0.0,0.0,0.0,0.0,0.0,-4.5692,-4.9293,0.0,0.0,0.0,0.0,-4.3786,-4.4915,-4.7805,-5.2477,-5.2585,-5.5007,-6.0495,-6.0088,-6.008,-6.0892,-6.1061,-6.0516,-5.94,-6.0008,-5.883,-5.5875,-5.3789,-5.1728,-4.961,-4.9194,-4.958,-5.0492,-5.0616,-4.9939,-4.8606,-4.5373,-4.2694,-4.0207,-3.6381,-3.3896,-3.227,0.0,0.0,0.0,0.0,0.0,0.0,0.0,0.0,0.0,0.0,0.0,0.0,0.0,0.0,0.0,0.0,0.0,0.0,0.0,0.0,0.0,0.0,0.0,0.0,0.0,0.0,-4.9213,-4.9442,-5.307,-5.4643,-5.4258,-5.3558,-5.3407,-5.3528,-5.2369,-5.1257,-5.0097,-4.7178,-4.4444,-4.1783,-3.9866,-3.6102,0.0,0.0,0.0,0.0,0.0,0.0,0.0,0.0,0.0,0.0,0.0,0.0,0.0,0.0,0.0,0.0,0.0,0.0,0.0,0.0,0.0,0.0,0.0,0.0,0.0,0.0,0.0,0.0,0.0,0.0,0.0,0.0,0.0,0.0,0.0,0.0,0.0,-4.7044,-5.0227,0.0,-4.9228,-5.0962,-5.2051,-5.1679,-5.4832,-5.7915,-6.0566,-6.051,-6.1554,-6.4038,-6.3396,-6.3125,-6.3429,-6.2482,-6.1818,-6.1354,-6.1622,-6.037,-5.7797,-5.7084,-5.494,-5.1818,-5.2596,-5.2636,-5.2238,-5.326,-5.2661,-5.0701,-4.8283,-4.4861,-4.1128,-3.8883,-3.6162,-3.3489,0.0,0.0,0.0,0.0,0.0,0.0,0.0,0.0,0.0,0.0,0.0,0.0,0.0,0.0,0.0,0.0,0.0,0.0,0.0,0.0,0.0,0.0,0.0,0.0,0.0,-4.8499,-5.0987,-5.0912,-5.3276,-5.4078,-5.3281,-5.2624,-5.2339,-5.2379,-5.1433,-5.1373,-5.1872,-4.9922,-4.7532,-4.4827,-4.3008,-3.8846,-3.3646,0.0,0.0,0.0,0.0,0.0,0.0,0.0,0.0,0.0,0.0,0.0,0.0,0.0,0.0,0.0,0.0,0.0,0.0,0.0,0.0,0.0,0.0,0.0,0.0,0.0,0.0,0.0,0.0,0.0,0.0,0.0,0.0,0.0,0.0,-4.3856,-4.8673,-4.8447,-5.2584,-5.468,-5.2779,-5.603,-5.844,-5.897,-6.2563,-6.5197,-6.6491,-6.6415,-6.6548,-6.7065,-6.5744,-6.5073,-6.5073,-6.3249,-6.2381,-6.2381,-6.2381,-6.1152,-5.8812,-5.8556,-5.6155,-5.2309,-5.4112,-5.3833,-5.2269,-5.3816,-5.3256,-5.1399,-4.9987,-4.6517,-4.2134,-4.0751,-3.7657,-3.4238,0.0,0.0,0.0,0.0,0.0,0.0,0.0,0.0,0.0,0.0,0.0,0.0,0.0,0.0,0.0,0.0,0.0,0.0,0.0,0.0,0.0,0.0,0.0,0.0,0.0,0.0,0.0,0.0,-5.3964,-5.3007,-5.1874,-5.0914,-5.0768,-5.1192,-5.0052,-5.0684,-5.2623,-5.1691,-5.045,-4.8899,-4.56,-4.1684,-3.7715,0.0,0.0,0.0,0.0,0.0,0.0,0.0,0.0,0.0,0.0,0.0,0.0,0.0,0.0,0.0,0.0,0.0,0.0,0.0,0.0,0.0,0.0,0.0,0.0,0.0,0.0,0.0,0.0,0.0,0.0,0.0,0.0,0.0,-3.9504,-4.6873,-5.1943,-5.0507,-5.7058,-6.081,-5.8549,-6.2526,-6.5262,-6.5261,-6.7366,-6.8963,-6.9743,-6.9566,-6.9531,-6.9531,-6.7155,-6.5873,-6.5838,-6.3615,-6.2493,-6.2381,-6.2381,-6.1119,-5.8748,-5.8165,-5.5233,-5.0901,-5.3235,-5.3001,-5.0913,-5.2423,-5.2108,-5.074,-5.074,-4.769,-4.3198,-4.1774,-3.8399,-3.457,0.0,0.0,0.0,0.0,0.0,0.0,0.0,0.0,0.0,0.0,0.0,0.0,0.0,0.0,0.0,0.0,0.0,0.0,0.0,0.0,0.0,0.0,0.0,0.0,0.0,0.0,0.0,0.0,0.0,0.0,-5.159,-5.0741,-5.0265,-5.0124,-4.9982,-5.0126,-5.0442,-5.0849,-5.0835,-5.0451,-4.913,-4.5686,-4.1237,0.0,0.0,0.0,0.0,0.0,0.0,0.0,0.0,0.0,0.0,0.0,0.0,0.0,0.0,0.0,0.0,0.0,0.0,0.0,0.0,0.0,0.0,0.0,0.0,0.0,0.0,0.0,0.0,0.0,0.0,0.0,-4.4166,-4.8422,-4.7895,-5.1524,-5.5098,-5.7288,-6.1385,-6.3956,-6.3928,-6.716,-6.9273,-6.9299,-7.0023,-7.0518,-7.0734,-6.7252,-6.5258,-6.5258,-6.4069,-6.2925,-6.1636,-6.3358,-6.3597,-6.2381,-6.2381,-6.0853,-5.8133,-5.8364,-5.6806,-5.402,-5.51,-5.5531,-5.521,-5.4632,-5.3156,-5.1263,-5.0128,-4.724,-4.3434,-4.2207,-3.8805,-3.4695,0.0,0.0,0.0,0.0,0.0,0.0,0.0,0.0,0.0,0.0,0.0,0.0,0.0,0.0,0.0,0.0,0.0,0.0,0.0,0.0,0.0,0.0,0.0,0.0,0.0,0.0,0.0,0.0,0.0,0.0,0.0,0.0,0.0,-4.9413,-4.9359,-4.9511,-4.9792,-5.0321,-5.0982,-5.1607,-5.1254,-4.828,-4.4039,-4.3625,-4.1292,-3.8469,-3.9321,-3.9818,-3.9762,-3.799,0.0,0.0,0.0,0.0,0.0,0.0,0.0,0.0,0.0,0.0,0.0,0.0,0.0,0.0,0.0,0.0,0.0,0.0,0.0,0.0,0.0,0.0,0.0,0.0,-4.8655,-5.4314,-5.6617,-5.8085,-5.9832,-6.2352,-6.4743,-6.6603,-6.7428,-6.9784,-7.1331,-7.1454,-7.1821,-7.213,-7.2169,-6.9074,-6.6618,-6.5068,-6.5412,-6.3889,-6.0329,-6.338,-6.4071,-6.2381,-6.187,-6.0439,-5.8172,-5.7493,-5.6062,-5.4206,-5.4958,-5.4994,-5.4684,-5.4108,-5.2797,0.0,0.0,0.0,0.0,0.0,-3.8145,-3.5367,0.0,0.0,0.0,0.0,0.0,0.0,0.0,0.0,0.0,0.0,0.0,0.0,0.0,0.0,0.0,0.0,0.0,0.0,0.0,0.0,0.0,0.0,0.0,0.0,0.0,0.0,0.0,0.0,0.0,0.0,0.0,0.0,0.0,0.0,0.0,-4.8909,-4.9806,-4.9854,-5.0703,-5.1991,-5.1994,-4.9866,-4.6629,-4.6048,-4.3894,-4.1272,-4.242,-4.2316,-4.1666,-4.1389,0.0,0.0,0.0,0.0,0.0,0.0,0.0,0.0,0.0,0.0,0.0,0.0,0.0,0.0,0.0,0.0,0.0,0.0,0.0,0.0,0.0,0.0,0.0,0.0,-5.3155,-5.938,-6.4762,-6.5251,-6.5303,-6.5955,-6.7505,-6.8828,-6.9584,-7.1096,-7.217,-7.2379,-7.3007,-7.3506,-7.3807,-7.2553,0.0,0.0,0.0,-6.6837,-6.1006,-6.3758,-6.4255,-6.2503,-6.1135,-5.974,-5.8382,-5.5914,-5.4016,-5.2712,-5.3478,-5.2997,-5.1789,-5.2254,-5.1539,-4.9939,-4.9284,-4.6894,-4.3364,-3.9467,-3.7455,-3.6394,0.0,0.0,0.0,0.0,0.0,0.0,0.0,0.0,0.0,0.0,0.0,0.0,0.0,0.0,0.0,0.0,0.0,0.0,0.0,0.0,0.0,0.0,0.0,0.0,0.0,0.0,0.0,0.0,0.0,0.0,0.0,0.0,0.0,0.0,0.0,0.0,0.0,-4.8332,-4.9106,-5.0144,-5.0261,-5.0528,-5.0785,-5.0159,-4.9417,-4.8672,-4.8933,-4.9011,-4.8563,-4.6068,-4.5826,-4.6222,-4.4384,0.0,0.0,0.0,0.0,0.0,0.0,0.0,0.0,0.0,0.0,0.0,0.0,0.0,0.0,0.0,0.0,0.0,0.0,0.0,0.0,-5.3521,-5.9297,-6.469,-6.8618,-6.914,-6.8822,-6.8185,-6.9815,-7.1064,-7.1216,-7.2584,-7.3535,-7.3535,-7.3446,-7.3713,-7.4375,-7.0106,-6.763,-6.7589,-6.7286,-6.5604,-6.2335,-6.5403,-6.5724,-6.3427,0.0,0.0,-5.6185,-5.5152,-5.3627,-5.1846,-5.2967,-5.3639,-5.3697,-5.2577,-5.089,-4.8988,-4.7973,-4.6242,-4.4347,-4.3178,-4.0366,-3.7036,0.0,0.0,0.0,0.0,0.0,0.0,0.0,0.0,0.0,0.0,0.0,0.0,0.0,0.0,0.0,0.0,0.0,0.0,0.0,0.0,0.0,0.0,0.0,0.0,0.0,0.0,0.0,0.0,0.0,0.0,0.0,0.0,0.0,0.0,0.0,0.0,0.0,0.0,0.0,-4.9605,-4.9467,-5.0586,-5.2222,-5.2059,-5.202,-5.2047,-5.2268,-5.2206,-5.1718,-4.9343,-4.9196,-4.9679,-4.7829,-4.5932,-4.3014,0.0,0.0,0.0,0.0,0.0,0.0,0.0,0.0,0.0,0.0,0.0,0.0,0.0,0.0,-4.3277,-4.468,0.0,-5.2085,-5.7235,-6.1264,-6.5458,-7.0395,-7.1848,-7.2135,-7.1428,-7.1891,-7.2738,-7.3865,-7.467,-7.5298,-7.5775,-7.5653,-7.5788,-7.629,-7.3029,-7.0323,-6.8453,-6.9516,-6.7616,-6.2386,-6.6136,-6.6624,-6.3647,-6.1086,-5.8507,-5.6061,-5.3743,-5.2278,-5.1594,-5.1809,-5.2188,-5.2661,-5.1262,-5.0155,-4.9113,-4.8284,-4.7085,-4.5699,-4.4147,-4.145,-3.835,0.0,0.0,0.0,0.0,0.0,0.0,0.0,0.0,0.0,0.0,0.0,0.0,0.0,0.0,0.0,0.0,0.0,0.0,0.0,0.0,0.0,0.0,0.0,0.0,0.0,0.0,0.0,0.0,0.0,0.0,0.0,0.0,0.0,0.0,0.0,0.0,0.0,0.0,0.0,0.0,-4.9144,-5.0546,-5.2719,-5.2752,-5.3108,-5.3569,-5.3758,-5.3454,-5.2776,-5.1514,-5.1446,-5.1563,-5.027,-4.9768,-4.7808,-3.8371,-3.8305,0.0,0.0,0.0,0.0,0.0,0.0,0.0,0.0,-4.1089,-4.2003,-4.3169,-4.5407,-4.7611,-4.8971,-5.1076,-5.4531,-6.052,-6.2971,-6.6046,-7.1663,-7.3534,-7.4421,-7.4595,-7.4166,-7.4553,-7.6405,-7.6717,-7.7085,-7.7791,-7.7758,-7.7835,-7.8176,-7.6826,-7.4383,-7.0691,-7.2843,-7.0843,-6.4191,-6.7316,-6.7446,-6.4358,-6.1357,-5.8613,-5.605,-5.2501,-5.0901,-5.0844,-5.0525,-5.0629,-5.0955,-5.0231,-4.9866,-4.969,-4.9138,-4.8335,-4.7182,-4.4695,-4.2461,-4.0286,0.0,0.0,0.0,0.0,0.0,0.0,0.0,0.0,0.0,0.0,0.0,0.0,0.0,0.0,0.0,0.0,0.0,0.0,0.0,0.0,0.0,0.0,0.0,0.0,0.0,0.0,0.0,0.0,0.0,0.0,0.0,0.0,0.0,0.0,0.0,0.0,0.0,0.0,0.0,0.0,0.0,0.0,-5.3414,-5.2638,-5.3097,-5.4115,-5.4019,-5.3125,-5.2081,-5.2267,-5.1882,-5.1332,-5.118,-5.0872,-4.9067,-4.1431,-3.9585,-3.7904,-2.8163,-2.5754,-2.7867,-3.5927,-3.8011,-3.9833,0.0,-5.0527,-5.2845,-5.3317,-5.6528,-5.9433,-6.0025,-6.1957,-6.4128,-6.6231,-6.8148,-7.0435,-7.3585,-7.3708,-7.4294,-7.6559,-7.7302,-7.7614,-7.7626,-7.8181,-7.8485,-7.8416,-7.7976,-7.8027,-7.8751,-7.7463,-7.6437,-7.5871,-7.5479,-7.4154,-7.182,-7.0258,-6.8596,-6.6629,-6.1654,-5.7596,-5.447,-5.2283,-5.0264,-4.8379,-4.9824,-5.0705,-5.1261,-5.1204,-5.0795,-5.0268,-4.9715,-4.9138,-4.8385,-4.6534,-4.489,-4.318,0.0,0.0,0.0,0.0,0.0,0.0,0.0,0.0,0.0,0.0,0.0,0.0,0.0,0.0,0.0,0.0,0.0,0.0,0.0,0.0,0.0,0.0,0.0,0.0,0.0,0.0,0.0,0.0,0.0,0.0,0.0,0.0,0.0,0.0,0.0,0.0,0.0,0.0,0.0,0.0,0.0,0.0,-5.3167,-5.3563,-5.3436,-5.2738,-5.0248,-4.8798,0.0,0.0,-4.7049,-4.7653,-4.9312,-4.7895,-4.4809,-4.0947,-3.8102,-3.5718,-3.3175,-3.4915,-3.8224,-4.1643,-4.5303,-4.88,-5.1708,-5.3908,-5.5763,-5.7224,-6.0034,-6.2522,-6.3238,-6.3399,-6.4574,-6.8277,-6.7891,-6.8744,-7.3445,-7.3537,-7.3861,-7.5865,-7.4285,-7.3094,-7.3359,-7.675,-7.7834,-7.505,-7.7361,-7.9297,-8.014,-7.879,-7.7789,-7.7296,-7.6582,-7.4935,-7.2331,-7.1366,-6.9632,-6.7101,-6.2892,-5.884,-5.4988,-5.2658,-5.0537,-4.8962,-5.0318,-5.1247,-5.1699,-5.1046,-5.082,-5.0845,-4.9941,-4.9464,-4.9063,-4.7405,-4.5921,-4.4523,0.0,0.0,0.0,0.0,0.0,0.0,0.0,0.0,0.0,0.0,0.0,0.0,0.0,0.0,0.0,0.0,0.0,0.0,0.0,0.0,0.0,0.0,0.0,0.0,0.0,0.0,0.0,0.0,0.0,0.0,0.0,0.0,0.0,0.0,0.0,0.0,0.0,0.0,0.0,0.0,0.0,0.0,-5.302,-5.3602,-5.2486,-5.0244,-4.7389,-4.5624,0.0,0.0,-4.2049,-4.3656,-4.455,-4.3397,-4.1194,-3.8732,-3.485,-3.2162,-3.6035,-3.978,-4.3209,-4.5989,-5.0448,-5.4463,-5.5611,-5.6566,-5.7726,-5.9615,-6.1973,-6.3909,-6.4815,-6.4334,-6.518,-6.9207,-6.8042,-6.8269,-7.2926,-7.3223,-7.3002,-7.3197,-7.0644,-6.8121,-6.6213,-7.2612,-7.6199,-7.4447,-7.7494,-7.9939,-8.1054,-7.9876,-7.8782,-7.7941,-7.7455,-7.5698,-7.2623,-7.2469,-7.0824,-6.7709,-6.4244,-6.0102,-5.5533,-5.2174,-5.0427,-5.0092,-5.0745,-5.1448,-5.2026,-5.1046,-5.082,-5.0971,-5.0142,-4.9715,-4.9439,-4.8083,-4.7033,-4.6093,0.0,0.0,0.0,0.0,0.0,0.0,0.0,0.0,0.0,0.0,0.0,0.0,0.0,0.0,0.0,0.0,0.0,0.0,0.0,0.0,0.0,0.0,0.0,0.0,0.0,0.0,0.0,0.0,0.0,0.0,0.0,0.0,0.0,0.0,0.0,0.0,0.0,0.0,0.0,0.0,0.0,0.0,-5.3248,-5.2056,-4.9428,-4.6457,-4.7043,0.0,0.0,0.0,-3.8359,-4.0281,-3.6156,-3.7733,-4.012,-3.5073,-2.9687,-2.6907,-3.3934,-3.4022,-3.4843,-4.6103,-5.0015,-5.2552,-5.8023,-5.9927,-6.0774,-6.1657,-6.3554,-6.5328,-6.6205,-6.7343,-6.8513,-6.9552,-7.0464,-7.1376,-7.2404,-7.2685,-7.1609,-6.8318,-6.7811,-6.4527,-5.6249,-6.5149,-7.3685,-7.9152,-7.8938,-7.9285,-8.1016,-8.0285,-7.9369,-7.8515,-7.8446,-7.7216,-7.4639,-7.4112,-7.224,-6.907,-6.524,-6.0763,-5.5533,-5.0351,-4.924,-5.1197,-5.067,-5.1071,-5.2076,-5.1498,-5.0946,-5.0444,-5.0419,-5.0067,-4.9515,-4.8937,-4.8736,-4.8661,0.0,0.0,0.0,0.0,0.0,0.0,0.0,0.0,0.0,0.0,0.0,0.0,0.0,0.0,0.0,0.0,0.0,0.0,0.0,0.0,0.0,0.0,0.0,0.0,0.0,0.0,0.0,0.0,0.0,0.0,0.0,0.0,0.0,0.0,0.0,0.0,0.0,0.0,0.0,0.0,0.0,0.0,-5.1822,-4.8251,-4.5817,-4.3604,0.0,0.0,0.0,0.0,0.0,-3.2445,-3.2656,-3.1736,-2.9524,-2.4247,-2.6266,-3.0582,-3.2396,-3.7771,-4.43,-5.0143,-5.5006,-5.8744,-6.0214,-6.1949,-6.3124,-6.248,-5.9596,-5.7353,-5.8025,-5.6462,-5.6446,-6.0712,-6.1221,-6.3806,-7.1505,-6.7533,-6.5558,-7.0137,-6.5803,-6.35,-6.6151,-6.8825,-7.0021,-6.9053,-7.4861,-7.9015,-8.0169,-7.9977,-7.94,-7.8515,-7.8477,-7.7284,-7.4707,-7.4512,-7.3222,-7.0862,-6.4456,-5.9088,-5.4567,-5.1377,-5.0255,-5.072,-5.0921,-5.1197,-5.1498,-5.0946,-5.0594,-5.0393,-5.0017,-4.954,-4.9038,-4.8837,-4.8535,-4.8159,0.0,0.0,0.0,0.0,0.0,0.0,0.0,0.0,0.0,0.0,0.0,0.0,0.0,0.0,0.0,0.0,0.0,0.0,0.0,0.0,0.0,0.0,0.0,0.0,0.0,0.0,0.0,0.0,0.0,0.0,0.0,0.0,0.0,0.0,0.0,0.0,0.0,0.0,0.0,0.0,0.0,0.0,-4.8524,-4.4692,-4.1894,0.0,0.0,0.0,0.0,0.0,-2.6795,-2.8153,-2.7757,-2.5433,-2.2821,-2.253,-2.6333,-3.1442,-3.5265,-4.2252,-4.951,-5.3988,-5.8694,-6.2026,-6.1333,-6.277,-6.3867,-6.2521,-5.8471,-5.4894,-5.3989,-5.1562,-5.1074,-5.5227,-5.5954,-5.9425,-6.9213,-6.5367,-6.3631,-6.9107,-6.4963,-6.3525,-6.8348,-6.9186,-6.8419,-6.5935,-7.1493,-7.558,-7.7078,-7.6847,-7.7378,-7.89,-7.8669,-7.7438,-7.5207,-7.5168,-7.3489,-7.0139,-6.3234,-5.7898,-5.4104,-5.1792,-5.0254,-4.9655,-5.0357,-5.0333,-4.9889,-4.985,-4.9841,-4.9766,-4.9213,-4.8912,-4.8736,-4.8535,-4.8234,-4.7933,0.0,0.0,0.0,0.0,0.0,0.0,0.0,0.0,0.0,0.0,0.0,0.0,0.0,0.0,0.0,0.0,0.0,0.0,0.0,0.0,0.0,0.0,0.0,0.0,0.0,0.0,0.0,0.0,0.0,0.0,0.0,0.0,0.0,0.0,0.0,0.0,0.0,0.0,0.0,0.0,0.0,0.0,-4.3688,-4.1288,0.0,0.0,0.0,0.0,0.0,-2.3491,-2.5227,-2.7552,-2.2337,-2.0198,-2.113,-2.9253,-2.9648,-3.0034,-4.1854,-4.68,-5.0317,-5.7423,-6.0789,-6.2176,-6.1458,-6.2507,-6.3149,-6.1497,-5.9531,-5.6983,-5.3144,-5.1747,-5.1595,-5.2878,-5.4457,-5.8149,-6.5648,-6.5879,-6.53,-6.5359,-6.514,-6.4518,-6.3317,-6.6545,-6.9026,-6.974,-6.9366,-7.0171,-7.2632,-7.1981,-7.4067,-7.9631,-7.8869,-7.7639,-7.6024,-7.5879,-7.2997,-6.7342,-6.1941,-5.7642,-5.4294,-5.1619,-4.967,-4.8437,-4.9282,-4.8785,-4.7529,-4.8438,-4.8786,-4.8711,-4.8159,-4.8259,-4.8611,-4.8033,-4.7807,-4.7857,0.0,0.0,0.0,0.0,0.0,0.0,0.0,0.0,0.0,0.0,0.0,0.0,0.0,0.0,0.0,0.0,0.0,0.0,0.0,0.0,0.0,0.0,0.0,0.0,0.0,0.0,0.0,0.0,0.0,0.0,0.0,0.0,0.0,0.0,0.0,0.0,0.0,0.0,0.0,0.0,0.0,0.0,-4.042,0.0,0.0,0.0,0.0,0.0,0.0,-2.4046,-2.568,-2.9195,-3.1134,-3.1317,-3.0743,-3.05,-3.4705,-3.992,-4.2256,-4.9096,-5.6454,-5.9869,-6.2,-6.2954,-6.1736,-6.2796,-6.2306,-5.6203,-5.0308,-4.4658,-3.9335,-3.6996,-3.8149,-4.517,-4.8022,-5.2801,-6.2633,-6.1401,-6.092,-6.4666,-6.5033,-6.6319,-6.9778,-7.1926,-7.2184,-6.9979,-7.3667,-7.6532,-7.7839,-7.7724,-7.8262,-7.9746,-7.796,-7.672,-7.63,-7.4244,-7.1132,-6.7138,-6.3432,-6.0229,-5.7243,-5.35,-5.1548,-5.0976,-4.9975,-4.9393,-4.9039,-4.9318,-4.9138,-4.8761,-4.8611,-4.8134,-4.7481,-4.6928,-4.6451,-4.6125,0.0,0.0,0.0,0.0,0.0,0.0,0.0,0.0,0.0,0.0,0.0,0.0,0.0,0.0,0.0,0.0,0.0,0.0,0.0,0.0,0.0,0.0,0.0,0.0,0.0,0.0,0.0,0.0,0.0,0.0,0.0,0.0,0.0,0.0,0.0,0.0,0.0,0.0,0.0,0.0,0.0,0.0,0.0,0.0,0.0,0.0,0.0,0.0,-2.8872,-3.1102,-3.1554,-3.2157,-3.783,-3.8122,-3.6668,-3.8257,-4.153,-4.5104,-4.7139,-5.2847,-5.8754,-6.1134,-6.2665,-6.2641,-5.895,-5.9152,-5.7853,-4.9923,-4.4152,-3.8926,-3.368,-3.2391,-3.434,-4.1159,-4.5128,-5.0548,-5.972,-5.9192,-5.9749,-6.4756,-6.4956,-6.6957,-7.2913,-7.4023,-7.4172,-7.3844,-7.4727,-7.5626,-7.6509,-7.6548,-7.756,-7.9838,-7.8022,-7.6313,-7.4941,-7.2379,-6.9706,-6.7041,-6.3589,-6.0739,-5.8307,-5.4533,-5.2118,-5.0903,0.0,-4.9106,-4.8326,-4.868,-4.8661,-4.836,-4.7883,-4.7305,-4.6702,-4.615,-4.5598,-4.5121,0.0,0.0,0.0,0.0,0.0,0.0,0.0,0.0,0.0,0.0,0.0,0.0,0.0,0.0,0.0,0.0,0.0,0.0,0.0,0.0,0.0,0.0,0.0,0.0,0.0,0.0,0.0,0.0,0.0,0.0,0.0,0.0,0.0,0.0,0.0,0.0,0.0,0.0,0.0,0.0,0.0,0.0,0.0,0.0,0.0,0.0,0.0,0.0,-3.1119,-3.9719,-3.9322,-3.6497,-4.3801,-4.359,-4.1867,-4.8284,-4.8762,-4.831,-5.3214,-5.6497,-5.91,-6.149,-6.2651,-6.1597,-5.5504,-5.4215,-5.1954,-4.3751,-3.9865,-3.6647,-3.2455,-3.3036,-3.5597,-4.0018,-4.4637,-4.9989,-5.6618,-5.8467,-6.0623,-6.4592,-6.4571,-6.6899,-7.3803,-7.3708,-7.4709,-7.8294,-7.4643,-7.2625,-7.3507,-7.343,-7.526,-7.9361,-7.8064,-7.5728,-7.2478,-7.0243,-6.832,-6.6629,-6.2693,-6.0032,-5.8535,-5.4931,-5.2124,-5.0138,-4.9677,-4.8458,-4.6778,-4.7545,-4.7857,-4.7707,-4.6778,-4.6326,-4.6125,-4.5573,-4.497,-4.4392,0.0,0.0,0.0,0.0,0.0,0.0,0.0,0.0,0.0,0.0,-2.8331,-2.9225,0.0,0.0,0.0,0.0,0.0,0.0,0.0,0.0,0.0,0.0,0.0,0.0,0.0,0.0,0.0,0.0,0.0,0.0,0.0,0.0,0.0,0.0,0.0,0.0,0.0,0.0,0.0,0.0,0.0,0.0,0.0,0.0,0.0,0.0,0.0,-2.9317,0.0,0.0,-4.1952,-4.3663,-5.1794,-5.3904,-5.3146,-5.1804,-5.3188,-5.4936,-5.3583,-5.6654,-6.0327,-6.0919,-6.1145,-6.0266,-5.678,-5.3609,-4.9001,-4.0495,-3.5893,-3.261,-3.0021,-3.0771,-3.4272,-4.1813,-4.5784,-4.9041,-5.2199,-5.8358,-6.2222,-6.1373,-6.3113,-6.6814,-7.2982,-7.111,-7.1522,-7.6464,-7.7763,-7.8646,-7.9561,-7.8877,-7.782,-7.636,-7.5521,-7.3298,-6.9559,-6.7833,-6.6057,-6.4253,-6.0942,-5.9632,-6.0107,-5.4938,-5.2678,-5.2684,-5.0078,0.0,-4.77,-4.7828,-4.7657,-4.7255,-4.7054,-4.6426,-4.5573,-4.4995,-4.4141,-4.3187,0.0,0.0,0.0,0.0,0.0,0.0,0.0,-2.7521,-2.6968,-2.6819,-2.715,-2.7583,-2.8057,-2.8382,-2.8783,0.0,0.0,0.0,0.0,0.0,0.0,0.0,0.0,0.0,0.0,0.0,-2.9857,-2.9385,0.0,-2.9841,-2.9394,-2.9394,-2.9399,-2.9433,0.0,0.0,0.0,0.0,0.0,0.0,0.0,0.0,0.0,0.0,0.0,0.0,0.0,-2.9906,-3.0806,0.0,-3.9921,-4.2771,-5.3293,-5.6881,-5.6518,-5.2809,-5.4453,-5.6843,-5.3878,-5.6807,-6.092,-6.1767,-6.092,-5.8153,-5.1303,-4.7202,-4.2054,-3.2124,-2.8935,-2.7646,-2.6677,-2.8489,-3.2634,-4.0257,-4.4804,-4.8767,-5.2793,-5.7641,-6.1053,-6.1811,-6.2635,-6.4456,-6.792,-6.6705,-6.7454,-7.156,-7.3194,-7.5656,-7.9554,-7.878,-7.7186,-7.494,-7.4001,-7.1782,-6.8233,-6.654,-6.4888,-6.313,-6.0403,-5.9263,-5.9465,-5.5195,-5.3161,-5.2862,-5.0059,-4.8158,-4.7308,-4.7482,-4.7034,-4.6389,-4.633,-4.5773,-4.497,-4.4392,-4.3489,-4.2509,0.0,0.0,0.0,0.0,0.0,0.0,0.0,-2.7148,-2.6611,-2.6435,-2.5773,-2.5693,-2.6694,-2.7328,-2.8073,0.0,0.0,0.0,0.0,0.0,0.0,0.0,0.0,0.0,0.0,0.0,0.0,-3.0486,-3.1207,0.0,0.0,0.0,0.0,0.0,-3.0583,-3.0605,-3.0605,0.0,0.0,0.0,0.0,-3.0506,0.0,0.0,0.0,0.0,0.0,-3.0169,-3.0586,-3.48,-3.6635,-3.9004,-4.9774,-5.4284,-5.5045,-5.2343,-5.4342,-5.7077,-5.5341,-5.7992,-6.1476,-6.2419,-6.064,-5.6091,-4.6385,-4.1503,-3.6216,-2.5972,-2.3885,-2.4152,-2.5038,-2.7171,-3.1116,-3.833,-4.221,-4.6704,-5.362,-5.6097,-5.8879,-6.3389,-6.2897,-6.299,-6.4947,-6.4241,-6.5054,-6.8436,-6.9497,-7.2502,-7.8207,-7.7377,-7.5953,-7.4336,-7.2791,-7.041,-6.7122,-6.5261,-6.3552,-6.2048,-5.9844,-5.8743,-5.8478,-5.5145,-5.3301,-5.2393,-4.9671,-4.7532,-4.6312,-4.6711,-4.6265,-4.5404,-4.5485,-4.5121,-4.4543,-4.3865,-4.2936,-4.1957,0.0,0.0,0.0,0.0,0.0,0.0,0.0,-2.674,-2.5976,-2.5253,-2.4725,-2.4597,-2.5059,-2.6452,-2.7579,0.0,0.0,0.0,0.0,0.0,0.0,0.0,0.0,0.0,0.0,0.0,0.0,-3.0513,-3.0567,0.0,0.0,0.0,0.0,0.0,0.0,-3.059,-3.059,-3.059,0.0,0.0,0.0,0.0,0.0,0.0,0.0,0.0,0.0,-2.8852,-2.8836,-3.2706,-3.3992,-3.4894,-3.989,-4.4641,-4.8723,-5.0624,-5.3561,-5.6854,-5.9595,-6.1571,-6.2586,-6.1858,-5.9135,-5.4853,-4.7623,-4.1684,-3.5745,-2.8565,-2.534,-2.479,-2.7959,-2.8051,-3.0161,-3.7898,-3.7485,-4.002,-5.1034,-5.2935,-5.6319,-6.4595,-6.4203,-6.5185,-7.0144,-6.7442,-6.7141,-7.1477,-7.349,-7.5681,-7.8361,-7.7377,-7.5953,-7.4336,-7.1637,-6.867,-6.5338,-6.3026,-6.1358,-6.0333,-5.8329,-5.78,-5.8446,-5.4298,-5.2481,-5.2366,-4.8842,-4.634,0.0,-4.5917,-4.5374,-4.3965,-4.5092,-4.5121,-4.4493,-4.3438,-4.2359,-4.1354,0.0,0.0,0.0,0.0,0.0,0.0,-2.6916,-2.6526,-2.5917,-2.5126,-2.4655,-2.4302,-2.4194,-2.5296,-2.6659,-2.8219,0.0,0.0,0.0,0.0,0.0,0.0,0.0,0.0,0.0,0.0,-3.081,-3.1262,-3.0772,0.0,0.0,0.0,0.0,0.0,0.0,-3.0331,-3.0494,-3.0854,0.0,0.0,0.0,0.0,0.0,0.0,0.0,0.0,0.0,0.0,-2.7557,-3.013,-3.0664,-3.025,-3.0383,-3.363,-3.8254,-4.2834,-4.8728,-5.3916,-5.4656,-5.8569,-6.2228,-6.1326,-5.7362,-5.1698,-4.3833,-3.7745,-3.1921,-2.5151,-2.3307,-2.3537,-2.5652,-2.6004,-2.7643,-3.2682,-3.3781,-3.7638,-4.7905,-5.0675,-5.4935,-6.375,-6.4087,-6.4028,-6.4984,-6.3742,-6.4081,-6.7232,-6.9285,-7.2028,-7.578,-7.5532,-7.4482,-7.2826,-7.1057,-6.8717,-6.5904,-6.3957,-6.231,-6.0899,-5.9166,-5.7775,-5.6686,-5.3531,-5.1689,-5.0656,-4.7792,-4.5305,0.0,-4.5423,-4.4734,-4.2563,-4.4277,-4.4618,-4.3991,-4.2886,-4.2007,-4.1361,0.0,0.0,0.0,0.0,0.0,-2.6507,-2.7009,-2.6853,-2.6463,-2.5743,-2.5248,-2.4797,-2.432,-2.5041,-2.6184,-2.7759,-2.8973,0.0,0.0,0.0,0.0,0.0,0.0,0.0,0.0,0.0,-3.0931,-3.1648,-3.1034,-3.1416,0.0,0.0,-3.1221,-3.1795,0.0,0.0,0.0,0.0,0.0,0.0,0.0,0.0,0.0,0.0,0.0,0.0,0.0,0.0,0.0,0.0,0.0,-2.768,-2.5861,-2.721,0.0,-3.5808,-4.3671,-5.0742,-5.1197,-5.6577,-6.1835,-6.1051,-5.5816,-4.8841,-4.1459,-3.5224,-2.9256,-2.3161,-2.2704,-2.3588,-2.4262,-2.4874,-2.6276,-2.931,-3.1539,-3.5805,-4.4181,-4.7287,-5.1943,-6.0688,-6.1551,-6.1789,-6.2531,-6.3057,-6.4265,-6.6431,-6.8072,-7.0418,-7.3732,-7.3916,-7.3194,-7.1589,-7.0154,-6.8299,-6.6043,-6.4459,-6.2781,-6.1155,-5.9769,-5.7499,-5.4465,-5.304,-5.1046,-4.8491,-4.708,-4.4923,0.0,-4.4928,-4.4259,-4.1929,-4.3672,-4.4269,-4.3765,-4.2528,-4.1986,-4.1926,0.0,0.0,0.0,0.0,0.0,0.0,-2.7649,-2.7897,-2.769,-2.7245,-2.6663,-2.614,-2.5708,-2.6042,-2.6327,-2.6388,-2.7889,0.0,0.0,0.0,0.0,0.0,0.0,0.0,0.0,0.0,-3.0752,-3.1318,-3.1318,-3.1585,-3.2109,-3.2109,-3.2109,-3.2109,0.0,0.0,0.0,0.0,0.0,0.0,0.0,0.0,0.0,0.0,0.0,0.0,0.0,0.0,0.0,0.0,0.0,0.0,0.0,0.0,0.0,0.0,-3.9199,-4.7874,-5.1744,-5.7205,-6.1661,-6.1118,-5.457,-4.6946,-4.1981,-3.5347,-2.8886,-2.4248,-2.4707,-2.5769,-2.5107,-2.5536,-2.6831,-2.9361,-3.0972,-3.3944,-3.9764,-4.2159,-4.647,-5.5051,-5.6007,-5.873,-6.5767,-6.7907,-6.9774,-7.1926,-7.2628,0.0,-7.301,-7.301,-7.2372,-7.1056,-6.8804,-6.6861,-6.5199,-6.3529,-6.1923,-6.0357,-5.9492,-5.6511,-5.184,-5.2859,-5.0602,-4.5925,-4.6473,-4.5221,0.0,-4.4135,-4.3631,-4.2242,-4.3613,-4.4112,-4.3934,-4.2434,-4.245,-4.3158,0.0,0.0,0.0,0.0,0.0,0.0,0.0,-2.8084,-2.8062,-2.7533,-2.7027,-2.6507,-2.5946,-2.5646,-2.5971,-2.7203,-2.8326,0.0,0.0,0.0,0.0,0.0,0.0,0.0,0.0,0.0,-3.1227,-3.1446,-3.0884,-3.1138,-3.2164,-3.1278,-3.1196,-3.1778,-3.1848,-3.2029,0.0,0.0,0.0,0.0,0.0,0.0,-3.0379,0.0,0.0,0.0,0.0,0.0,0.0,0.0,0.0,0.0,0.0,0.0,0.0,0.0,-3.2622,-3.9659,-4.1757,-4.6261,-5.0172,-4.9388,-4.5736,-4.1086,-3.6351,-3.2546,-2.8783,-2.4527,-2.4563,-2.5361,-2.522,-2.4824,-2.5831,-2.995,-3.1415,-3.4727,-4.2445,-4.6489,-5.12,-5.8165,-6.2401,-6.5459,-6.7156,-6.5569,-6.5934,-6.9663,-6.7614,-6.7654,-7.0842,-7.03,-6.942,-6.8527,-6.8477,-6.7425,-6.5199,-6.525,-6.4459,-6.2798,-6.143,-5.7394,-5.1014,-5.1709,-4.8824,-4.3285,-4.4838,-4.4087,-4.1866,-4.3855,-4.3358,-4.1604,-4.2874,-4.3321,-4.3161,-4.1549,-4.1983,-4.3258,0.0,0.0,0.0,0.0,0.0,0.0,0.0,-2.8308,-2.8506,-2.8168,-2.7732,-2.7339,-2.6962,-2.6477,-2.6603,-2.7731,-2.861,0.0,0.0,0.0,0.0,0.0,0.0,0.0,0.0,-3.0697,-3.1134,-3.1353,-3.072,-3.0894,-3.1883,-3.106,-3.1091,-3.1813,-3.217,-3.2535,0.0,0.0,0.0,0.0,0.0,0.0,-3.0973,0.0,0.0,0.0,0.0,0.0,0.0,0.0,0.0,0.0,0.0,0.0,0.0,0.0,-2.8983,-3.334,-3.6092,-4.0841,-4.4934,-4.435,-4.1245,-3.7586,-3.4571,-3.1384,-2.8219,-2.5229,-2.6484,-2.7509,-2.5535,-2.5567,-2.6394,-2.8012,-3.1139,-3.5015,-3.9799,-4.5275,-5.0829,-5.6365,-6.2288,-6.6386,0.0,-6.5877,-6.6062,-6.91,-6.6729,-6.6445,-6.9504,-6.8292,-6.6902,-6.5638,-6.6504,-6.6306,-6.4685,-6.4946,-6.4351,-6.2982,-6.1717,-5.7534,-5.0941,-5.2218,-4.9296,-4.3144,-4.4857,-4.4256,0.0,-4.295,-4.2476,-4.1384,-4.2267,-4.241,-4.198,-4.0706,-4.1774,-4.3813,0.0,0.0,0.0,0.0,0.0,0.0,0.0,-2.8448,-2.8962,-2.9021,-2.8651,-2.8416,-2.8491,-2.8185,-2.8039,-2.8218,0.0,0.0,0.0,0.0,0.0,0.0,0.0,0.0,0.0,-3.0226,-3.06,-3.0888,-3.0595,-3.0648,-3.1158,-3.119,-3.1474,-3.2004,-3.2798,-3.3524,0.0,0.0,0.0,0.0,0.0,0.0,0.0,0.0,0.0,0.0,0.0,0.0,0.0,0.0,0.0,0.0,0.0,0.0,0.0,0.0,0.0,0.0,0.0,-3.9485,-4.3931,-4.3995,-3.9928,-3.5791,-3.5439,-3.1522,0.0,-2.6601,0.0,-3.1614,-2.6321,-2.7752,-2.8532,-2.4842,-3.0612,-3.512,-3.3816,-4.0611,-4.724,-5.1393,-5.769,-6.3094,-6.6611,-6.8129,-6.9155,-6.9779,-6.8901,-6.8396,-6.8513,-6.6826,-6.4875,-6.2691,-6.3235,-6.3559,-6.3624,-6.3017,-6.2139,-6.112,-6.0566,-5.702,-5.1026,-5.3757,-5.1277,0.0,-4.6166,-4.5414,-4.3073,-4.1813,-4.1329,-4.1329,-4.166,-4.1406,-4.0681,-3.9923,-4.1855,-4.4657,0.0,0.0,0.0,0.0,0.0,0.0,0.0,0.0,0.0,0.0,-2.8629,-2.8465,-2.9248,-2.8946,-2.9187,0.0,0.0,0.0,0.0,0.0,0.0,0.0,0.0,0.0,0.0,-3.0283,-3.0297,-2.9,-2.9565,-2.9412,-2.8631,-2.8999,-2.973,-3.0761,-3.1881,-3.2939,0.0,0.0,0.0,0.0,0.0,0.0,0.0,0.0,0.0,0.0,-2.9574,-2.9224,0.0,0.0,0.0,0.0,0.0,0.0,0.0,0.0,-2.8401,-2.9209,-3.0579,0.0,-3.3173,-3.3246,-3.2604,-3.1843,0.0,0.0,0.0,0.0,0.0,0.0,0.0,-3.1611,-3.2827,-2.9141,-3.3655,-3.7755,-3.8054,-4.7496,0.0,-5.561,-6.297,-6.6774,-6.3763,-6.6755,-6.8458,-6.743,-6.7111,-6.6423,-6.5198,-6.4112,-6.271,-6.104,-6.0425,-6.0494,-6.1218,-6.2229,-6.0919,-5.7364,-5.9357,-5.5651,-4.7189,-5.2104,-5.0327,-4.3373,-4.5269,-4.4801,-4.2496,-4.166,-4.1329,-4.1304,-4.0933,-4.0862,-4.0681,-3.9923,-4.1855,-4.4657,0.0,0.0,0.0,0.0,0.0,0.0,0.0,0.0,0.0,0.0,0.0,0.0,0.0,0.0,0.0,0.0,0.0,0.0,0.0,0.0,0.0,0.0,0.0,0.0,-2.9162,-3.0152,-3.0066,-2.89,-2.9179,-2.8801,-2.7841,-2.8083,-2.8622,-2.9554,-3.1296,-3.2738,0.0,0.0,0.0,0.0,-3.3167,0.0,0.0,0.0,0.0,0.0,-2.9701,-2.9149,0.0,-2.7747,-2.7307,-2.7136,0.0,0.0,0.0,0.0,-2.9478,-2.9825,-2.9985,-3.0358,-3.0522,-3.0013,-3.065,-3.1096,-3.0033,0.0,0.0,0.0,0.0,0.0,0.0,0.0,-3.1235,-3.0075,-3.3408,-3.8162,-4.3889,-5.061,-5.5595,-5.7213,-6.1694,-6.4257,0.0,-6.6786,-6.8531,-6.714,-6.6391,-6.5238,-6.3526,-6.2096,-6.1033,-6.0425,-5.9136,-5.8919,-5.973,-6.0636,-5.9185,-5.5501,-5.8044,-5.5437,-4.8497,-5.2461,-5.1394,-4.6264,-4.5718,-4.4531,-4.2753,-4.0676,-4.013,-4.0551,-4.0249,-4.0174,-4.0278,-3.9823,-4.165,-4.4093,0.0,0.0,0.0,0.0,0.0,0.0,0.0,0.0,0.0,0.0,0.0,0.0,0.0,0.0,0.0,0.0,0.0,0.0,0.0,0.0,0.0,0.0,0.0,-2.9462,-2.9521,-2.9899,-2.9916,-2.9522,-2.9104,-2.8443,-2.7702,-2.7431,-2.7742,-2.8533,-3.0987,-3.2665,0.0,0.0,-3.3697,-3.3697,-3.2669,0.0,0.0,0.0,0.0,0.0,0.0,0.0,0.0,-2.7631,-2.6944,-2.6542,-2.7543,0.0,0.0,0.0,0.0,0.0,-3.0671,-3.153,-3.2019,-3.0461,-3.1243,-3.1994,-3.0526,0.0,0.0,0.0,0.0,0.0,0.0,-2.8655,0.0,-3.0348,-3.329,-3.9165,-4.9696,-5.2793,-5.478,-5.7154,-5.9039,0.0,-6.3103,-6.6773,-6.8568,-6.7388,-6.5612,-6.3955,-6.2497,-6.0644,-5.9733,-6.0013,-5.8658,-5.8186,-5.8829,-5.8829,-5.7305,-5.4452,-5.6808,-5.5593,-5.1404,-5.3749,-5.3285,-5.0434,0.0,0.0,-4.3509,-4.0062,-3.9084,-3.9697,-3.9697,-3.9697,-3.9697,-3.9697,-4.1015,-4.2821,0.0,0.0,0.0,0.0,0.0,0.0,0.0,0.0,0.0,0.0,0.0,0.0,0.0,0.0,0.0,0.0,0.0,0.0,0.0,0.0,0.0,0.0,-2.9916,-2.9431,-2.9176,-2.9779,-2.9916,-2.9589,-2.8747,-2.7926,-2.7197,-2.587,-2.6248,-2.8209,-3.0887,-3.2374,-3.2779,-3.2779,-3.3183,-3.3623,-3.1458,0.0,0.0,0.0,0.0,0.0,0.0,0.0,0.0,-2.727,-2.6998,-2.7131,-2.7535,0.0,0.0,0.0,0.0,0.0,-3.0667,-3.2401,-3.3471,-3.0447,-3.1502,-3.2814,-3.116,0.0,0.0,0.0,0.0,0.0,0.0,-3.6535,-3.869,0.0,0.0,-4.6293,0.0,0.0,-6.011,-5.5945,0.0,-6.6103,-5.8861,-6.409,-6.7273,-6.5757,-6.2964,-6.1167,-6.0814,-6.0063,-5.9217,-5.8317,-5.7993,-5.7949,-5.8051,-5.8051,-5.6298,-5.2851,-5.6231,-5.5257,-5.0512,-5.3984,-5.4142,-5.1565,0.0,-4.6766,-4.459,-4.2086,-4.0478,-3.9697,-3.9697,-3.9697,-3.9697,-3.9697,-3.9499,-3.9895,0.0,0.0,0.0,0.0,0.0,0.0,0.0,0.0,0.0,0.0,0.0,0.0,0.0,0.0,0.0,0.0,0.0,0.0,0.0,0.0,0.0,-2.9255,-2.8604,-2.899,-3.0628,-3.0295,-2.9817,-2.9214,-2.8891,-2.782,-2.6048,-2.5655,-2.635,-2.8081,-2.9748,-3.1048,-3.1935,-3.1935,-3.2155,-3.2375,0.0,0.0,0.0,0.0,0.0,0.0,0.0,0.0,0.0,0.0,-2.6953,-2.7035,-2.692,0.0,0.0,0.0,0.0,0.0,-2.9979,-3.1233,-3.2257,-3.1058,-3.2787,-3.4033,-3.0917,-3.2487,0.0,0.0,0.0,0.0,0.0,0.0,-3.7707,-3.9875,0.0,-5.3498,-5.5985,-5.8957,-6.014,0.0,0.0,-6.4146,-5.8951,-6.4056,-6.7412,-6.664,-6.1946,-5.8768,-5.7938,-5.8507,-5.8736,-5.8616,-5.8565,-5.8632,-5.8839,-5.8205,-5.6337,-5.3162,-5.5967,-5.506,-5.0985,-5.4262,-5.4534,-5.2432,0.0,-4.8175,-4.6411,-4.3055,-4.1278,-4.0642,-3.9981,-3.9697,-3.9647,-3.9728,-3.984,-4.0532,0.0,0.0,0.0,0.0,0.0,0.0,0.0,0.0,0.0,0.0,0.0,0.0,0.0,0.0,0.0,0.0,0.0,0.0,0.0,0.0,-2.8811,-2.8294,-2.7906,-2.8802,-3.1254,-3.0148,-2.9577,-2.9551,-2.8865,-2.7225,-2.4702,-2.5468,-2.6354,-2.7374,-2.8476,-2.964,-3.0888,-3.0965,-3.121,-3.1466,0.0,0.0,0.0,0.0,0.0,0.0,0.0,0.0,0.0,0.0,0.0,0.0,0.0,0.0,0.0,-2.7814,-2.8487,-2.9075,-2.901,-2.986,-3.0791,-3.0944,-3.3232,-3.4581,-3.147,-3.3362,0.0,0.0,0.0,0.0,0.0,-3.3276,0.0,-4.5159,-5.3213,-5.8736,-5.9464,-6.0841,-6.2115,-6.3167,-6.4043,-6.3925,-6.224,-6.5478,-6.7707,-6.7684,-6.2335,-5.8543,-5.7423,-5.821,-5.8941,-5.9441,-5.9348,-5.9241,-5.918,-5.8321,-5.6829,-5.4728,-5.6275,-5.5508,-5.2774,-5.496,-5.515,-5.3562,-5.1638,-4.9877,-4.8199,-4.4308,-4.2253,-4.1518,-4.016,-3.9697,-3.9725,-3.9675,-4.0109,-4.1218,0.0,0.0,0.0,0.0,0.0,0.0,0.0,0.0,0.0,0.0,0.0,0.0,0.0,0.0,0.0,0.0,0.0,0.0,0.0,0.0,-2.9112,-2.9449,-2.9431,-2.9339,-2.9237,-2.837,-2.9148,-3.1562,-2.818,-2.5381,-2.3219,-2.4575,-2.5274,-2.5408,-2.76,-2.8794,-2.9312,-2.9584,-3.065,-3.1936,-3.0709,0.0,0.0,0.0,0.0,0.0,0.0,0.0,0.0,0.0,0.0,0.0,0.0,0.0,-2.7022,-2.7504,-2.821,-2.8695,-2.8011,-2.9175,-3.0358,-2.9266,-3.1307,-3.3683,-3.3957,-3.6836,0.0,-3.4657,0.0,0.0,0.0,-3.725,-4.29,-4.8285,-5.4756,-6.0044,-6.303,0.0,-7.0734,-7.1552,-7.1739,-7.1154,-6.954,-6.8356,-6.7701,-6.7746,-6.4471,-6.2388,-6.2317,-6.1021,-6.0285,-6.032,-5.984,-5.9067,-5.8012,-5.791,-5.7774,-5.7606,-5.7746,-5.7326,-5.6422,-5.6656,-5.6299,-5.5424,-5.4381,-5.2168,-4.9337,-4.6905,-4.4195,-4.1518,-4.016,-3.9697,-3.9647,-3.9702,-3.9699,-3.999,0.0,0.0,0.0,0.0,0.0,0.0,0.0,0.0,0.0,0.0,0.0,0.0,0.0,0.0,0.0,0.0,0.0,0.0,0.0,0.0,-2.743,-2.8088,-2.738,-2.7489,-2.8532,-2.8557,-2.8925,-2.9622,-2.6624,-2.4831,-2.4334,-2.492,-2.5438,-2.5843,-2.7161,-2.7722,-2.767,-2.7807,-2.8317,-2.9057,-2.8603,-2.9479,0.0,0.0,0.0,0.0,0.0,0.0,0.0,0.0,-2.6282,-2.5755,0.0,0.0,-2.6764,-2.6042,-2.6759,-2.7646,-2.6858,-2.7586,-2.9306,-3.2367,-3.2305,0.0,0.0,-3.6691,-3.8117,-3.5081,-3.7493,0.0,0.0,0.0,-4.4989,-4.9728,-5.4242,-5.8541,-6.2353,-6.6178,-6.9652,-7.2746,-7.3149,-7.2807,-7.1695,-6.9236,-6.7704,-6.7726,-6.6573,-6.4949,-6.2948,-6.2241,-6.157,-6.0917,-6.1348,-6.1377,-6.0974,-5.894,-5.7915,-5.7933,-5.8599,-5.8452,-5.7509,-5.858,-5.8534,-5.7601,-5.6904,-5.5531,-5.3464,-4.9834,-4.6496,-4.3499,-4.0792,-3.9674,-3.9702,-3.9676,-3.9702,-3.9792,0.0,0.0,0.0,0.0,0.0,0.0,0.0,0.0,0.0,0.0,0.0,0.0,0.0,0.0,0.0,0.0,0.0,0.0,0.0,-2.7137,-2.7079,-2.7393,-2.6834,-2.7053,-2.8105,-2.8485,-2.8644,-2.8652,-2.6372,-2.5162,-2.5013,-2.554,-2.587,-2.6048,-2.6771,-2.6857,-2.6422,-2.6289,-2.6623,-2.7209,-2.7814,-2.8907,0.0,0.0,0.0,0.0,0.0,0.0,0.0,0.0,-2.7112,0.0,0.0,0.0,0.0,0.0,-2.6414,-2.7223,-2.6047,-2.6305,-2.8222,-3.3835,0.0,0.0,-3.7609,-3.9091,-3.8728,-3.7311,-3.8799,-4.0694,-4.1085,0.0,0.0,0.0,-5.243,-5.6495,-6.0935,-6.4445,-6.7914,-7.1749,-7.3035,-7.323,-7.2389,-7.0124,-6.8433,-6.7709,-6.7694,-6.6302,-6.2961,-6.2792,-6.2475,-6.1704,-6.2412,-6.2803,-6.2802,-6.0568,-5.9432,-5.9487,-6.026,-5.9951,-5.873,-5.9889,-6.0272,-5.9833,-5.904,-5.7774,-5.5879,-5.1691,-4.7569,-4.3631,-4.033,-3.9295,-3.9677,-3.9701,-3.9753,-3.9675,0.0,0.0,0.0,0.0,0.0,0.0,0.0,0.0,0.0,0.0,0.0,0.0,0.0,0.0,0.0,0.0,0.0,0.0,-2.7791,-2.8565,-2.8631,-2.7824,-2.8558,-2.8631,-2.7824,-2.7887,-2.8433,-2.9488,-2.7861,-2.629,-2.4839,-2.6389,-2.6576,-2.5642,-2.642,-2.6319,-2.5573,-2.5252,-2.5757,-2.6952,-2.8891,-2.989,-3.0283,0.0,0.0,0.0,0.0,0.0,0.0,0.0,-2.9305,0.0,0.0,0.0,0.0,0.0,-2.7474,-2.7657,-2.5772,-2.5615,-2.7301,-3.2724,0.0,0.0,-4.635,-4.5037,-4.1186,-4.1757,-4.0817,-4.0129,-4.1045,-4.1869,0.0,-4.4611,-4.931,-5.4398,-5.8925,-6.3256,-6.6766,-6.9278,-7.1838,-7.2967,-7.1912,-7.1237,-7.0001,-6.7858,-6.7714,-6.6256,-6.2975,-6.2815,-6.2818,-6.2806,-6.2769,-6.2764,-6.2803,-6.2766,-6.2784,-6.2805,-6.2855,-6.2026,-6.0413,-6.0587,-6.1237,-6.2118,-6.0659,-5.8537,-5.5936,-5.2168,-4.7109,-4.1287,-3.8617,-3.8361,-3.9647,-3.9728,-3.9728,-3.9697,0.0,0.0,0.0,0.0,0.0,0.0,0.0,0.0,0.0,0.0,0.0,0.0,0.0,0.0,0.0,0.0,0.0,0.0,-2.7826,-2.7266,-2.7136,-2.7787,-2.7493,-2.7457,-2.7787,-2.8117,-2.7836,-2.7056,-2.6571,-2.6096,-2.5664,-2.6656,-2.6809,-2.6488,-2.9218,-2.8329,-2.4968,-2.7408,-2.7298,-2.5722,-2.7094,-2.8514,-2.9911,0.0,0.0,0.0,0.0,0.0,0.0,0.0,0.0,0.0,0.0,0.0,0.0,-2.899,-2.8382,-2.7397,-2.8685,-2.736,-2.6741,-3.1264,0.0,0.0,0.0,-4.1751,0.0,0.0,-4.333,-4.1517,-4.3069,-4.3493,0.0,-4.3206,-4.713,-5.1796,-5.6394,-6.0965,-6.4858,-6.7693,-7.0688,-7.2169,-7.1322,-7.0602,-6.9495,-6.7819,-6.7709,-6.6279,-6.2984,-6.2805,-6.2794,-6.2806,-6.0616,-6.0493,-6.2771,-6.2788,-6.2808,-6.2829,-6.6642,-6.6238,-6.2103,-6.3439,-6.3378,-6.2144,-6.1298,-5.9822,-5.762,-5.1597,-4.6436,-4.2181,-3.9887,-3.8668,-3.8262,-3.9346,-3.9725,-3.9725,0.0,0.0,0.0,0.0,0.0,0.0,0.0,0.0,0.0,0.0,0.0,0.0,0.0,0.0,0.0,0.0,0.0,0.0,0.0,0.0,-2.7284,-2.7984,-2.772,-2.7638,-2.7852,-2.8211,-2.7712,-2.628,-2.6454,-2.6454,-2.6279,-2.7381,-2.7626,-2.7198,-2.9065,-2.804,-2.5002,-2.6305,-2.605,-2.4944,-2.6269,-2.7635,-2.9028,0.0,0.0,0.0,0.0,0.0,0.0,0.0,0.0,0.0,0.0,0.0,0.0,-2.9489,-2.9593,-2.9972,-3.1526,-3.1011,-3.152,-3.7963,-3.922,-3.9674,-4.2677,0.0,0.0,0.0,-4.8061,-4.6332,-4.6935,-4.5875,0.0,-4.4118,-4.7009,-4.994,-5.189,-5.6646,-6.1058,-6.4111,-6.6647,-6.8196,-6.821,-6.7642,-6.7283,-6.736,-6.6993,-6.562,-6.2944,-6.2815,-6.2194,-6.097,-5.9014,-5.9541,-6.2769,-6.3631,-6.4716,-6.6059,-6.9625,-6.9637,-6.6498,-6.73,-6.6333,-6.3917,-6.1003,-5.8322,-5.5506,-5.0064,-4.6251,-4.3482,-4.109,-3.944,-3.8442,-3.9018,-4.0109,-4.1077,0.0,0.0,0.0,0.0,0.0,0.0,0.0,0.0,0.0,0.0,0.0,0.0,0.0,0.0,0.0,0.0,0.0,0.0,0.0,0.0,-2.8268,-2.8319,-2.8664,-2.8615,-2.8088,-2.8228,-2.7833,-2.6758,-2.7115,-2.7083,-2.6725,-2.8247,-2.8552,-2.7772,-2.7366,-2.659,-2.5507,-2.3725,-2.3577,-2.4605,-2.6232,-2.727,-2.8036,-2.9622,0.0,0.0,0.0,0.0,0.0,0.0,0.0,0.0,0.0,0.0,-3.1885,-2.9094,-3.1005,-3.4151,-3.4514,-3.5568,-3.8761,-4.7903,-4.5106,-4.2268,-5.0495,-5.1336,-5.127,-5.4361,0.0,-5.3709,-5.2541,-4.9427,-4.6881,-4.6634,-4.8078,-4.8258,-4.5988,-5.0709,-5.5411,-5.8215,-5.9845,-6.1502,-6.319,-6.2877,-6.3555,-6.5975,-6.5374,-6.4266,-6.2911,-6.2506,-6.1153,-5.8505,-5.8903,-6.0604,-6.3622,-6.5534,-6.7992,-7.0991,-7.1688,-7.1974,-7.1882,-7.1236,-6.9283,-6.6134,-5.9994,-5.5104,-5.1165,-4.8255,-4.6314,-4.4967,-4.2141,-4.0507,-3.9645,-3.9146,-4.0789,-4.3076,0.0,0.0,0.0,0.0,0.0,0.0,0.0,0.0,0.0,0.0,0.0,0.0,0.0,0.0,0.0,0.0,0.0,0.0,0.0,0.0,-2.7323,-2.7894,-2.7694,-2.8128,-2.9224,-2.8433,-2.7718,-2.7178,-2.7272,-2.7083,-2.6725,-2.8247,-2.8552,-2.7908,-2.9931,-2.892,-2.5679,-2.7448,-2.692,-2.5108,-2.6929,-2.7888,-2.842,-2.971,-3.021,0.0,0.0,0.0,0.0,0.0,0.0,0.0,-2.7266,-2.7504,-2.8443,-3.0444,-3.2226,-3.4408,-3.828,-3.7191,-3.5778,-3.9112,-4.0891,-4.6452,-6.4148,-6.4288,-6.0764,-6.1078,-6.1051,-6.089,-6.0625,-5.6198,-5.1795,-4.9267,-4.6876,-4.4114,-4.0688,-4.4858,-4.7832,-4.6771,-4.8827,-5.2461,-5.7715,-5.818,-5.8803,-6.0423,-6.1112,-6.1875,-6.2767,-6.0413,-5.9852,-6.17,-6.5908,-6.8741,-6.9999,-7.0456,-7.1044,0.0,-7.1898,-7.1672,-7.1108,-7.0961,-6.8143,-6.3145,-5.8698,-5.4398,-5.053,-4.8992,-4.6606,-4.3854,-4.3176,-4.1603,-3.9803,-4.0993,-4.1875,-4.2807,0.0,0.0,0.0,0.0,0.0,0.0,0.0,0.0,0.0,0.0,0.0,0.0,0.0,0.0,0.0,0.0,0.0,0.0,0.0,0.0,0.0,-2.7825,-2.7671,-2.7843,-2.8486,-2.8103,-2.7607,-2.7019,-2.721,-2.7083,-2.6725,-2.8247,-2.8755,-2.8414,-2.9509,-2.8748,-2.6691,-2.7075,-2.6623,-2.5727,-2.6901,-2.7799,-2.85,-2.932,-3.0099,-3.0809,-3.106,0.0,0.0,0.0,0.0,0.0,0.0,0.0,-2.9674,-2.9468,-3.1461,-3.4399,-3.7502,-3.9614,-4.1995,-4.622,0.0,-5.8552,-6.6593,-6.8629,-6.8576,-6.7861,-6.6998,-6.6464,-6.6901,-6.1343,-5.511,-5.0395,-4.5007,-4.0734,-3.8856,-4.0212,-4.0646,-3.8648,-4.2391,-4.6954,-5.1631,-5.3302,-5.5287,-5.8128,-5.8875,-5.958,-6.0411,-6.0372,-6.1069,-6.2737,-6.65,-6.9434,-7.1474,-7.1832,-7.2007,-7.2018,-7.1618,-7.1295,-7.0844,-6.9046,-6.6111,-6.2132,-5.7806,-5.3777,-5.0242,-4.8677,-4.6608,-4.4349,-4.3787,-4.235,-4.0668,-4.0948,-4.1518,-4.2382,0.0,0.0,0.0,0.0,0.0,0.0,0.0,0.0,0.0,0.0,0.0,0.0,0.0,0.0,0.0,0.0,0.0,0.0,0.0,0.0,0.0,-2.8287,-2.8123,-2.7882,-2.7716,-2.7822,-2.7504,-2.6691,-2.7019,-2.7495,-2.8118,-2.9517,-3.016,-3.0153,-2.9479,-2.8589,-2.7532,-2.5678,-2.5384,-2.6254,-2.6711,-2.7468,-2.8324,-2.8676,-2.9637,-3.067,-2.9827,-3.0112,-3.0638,-2.9057,0.0,0.0,0.0,0.0,-3.1232,-2.7561,-3.0061,-3.4233,-3.5463,-4.1866,-4.9938,-5.7394,-6.3714,0.0,-6.5686,-6.8823,-7.214,-7.2381,-7.1337,-7.0546,-7.0995,-6.4643,-5.7557,-5.2071,-4.5171,-3.9542,-3.6858,-3.6249,-3.5874,-3.5666,-3.9659,-4.3781,-4.7169,-4.9397,-5.2332,-5.6606,-5.7248,-5.7395,-5.7176,-6.0747,-6.2814,-6.2817,-6.4815,-6.7506,-7.0874,-7.1549,-7.1935,-7.2003,-7.1245,-7.093,-7.076,-6.671,-6.3996,-6.2185,-5.7196,-5.3219,-5.0069,-4.8126,-4.6432,-4.4932,-4.3882,-4.2544,-4.1219,-4.0389,-4.0811,-4.1705,0.0,0.0,0.0,0.0,0.0,0.0,0.0,0.0,0.0,0.0,0.0,0.0,0.0,0.0,0.0,0.0,0.0,0.0,-2.7272,0.0,0.0,-2.9844,-2.8876,-2.8618,-2.9277,-2.8288,-2.7437,-2.6691,-2.6758,-2.9111,-3.356,-3.4434,-3.4866,-3.4981,-3.4766,-3.1823,-2.6986,-2.6588,-2.6341,-2.6259,-2.6948,-2.7531,-2.7982,-2.8037,-2.8172,-2.8457,-2.8963,-2.9022,-2.8789,-2.858,-2.8253,0.0,0.0,0.0,-2.7296,-2.6117,-2.9424,-3.3927,-3.6096,0.0,-5.0844,0.0,-5.7026,-5.6281,0.0,0.0,-6.4563,0.0,-7.1936,-7.2228,-7.0356,-6.4625,-5.9693,-5.8089,-5.2423,-4.3421,-2.991,-3.2574,-3.8126,-4.3939,-4.1847,-4.2384,-4.8659,-4.8553,-4.9459,-5.2581,-5.475,-5.5414,-5.4171,-5.9646,-6.2785,-6.2785,-6.4815,-6.7496,-7.0853,-7.1338,-7.1705,-7.2003,-7.1245,-7.0898,-7.0718,-6.5501,-6.2992,-6.2439,-5.6971,-5.2605,-4.936,-4.792,-4.5869,-4.3787,-4.3598,-4.2084,-4.0083,-4.1402,-4.1067,-4.0659,0.0,0.0,0.0,0.0,0.0,0.0,0.0,0.0,0.0,0.0,0.0,0.0,0.0,0.0,0.0,-2.6048,-2.6082,-2.5976,-2.5757,-2.6109,-2.6539,-2.6991,-2.7291,-2.7433,-2.7363,-2.764,-2.7435,-2.6691,-2.6691,-3.0906,-3.8996,-3.9278,-3.8169,-3.6027,-3.8813,-3.5675,-2.8339,-3.027,-2.9592,-2.716,-2.7696,-2.8021,-2.8207,-2.8447,-2.8818,-2.9107,-2.8363,-2.8533,-2.8899,-2.7841,-2.7913,-2.8213,-2.6691,0.0,0.0,0.0,-2.8146,-3.2015,-3.986,-4.2824,-4.6952,0.0,-5.6335,-5.2858,-6.8932,-6.56,-6.116,-6.8406,-6.9876,-6.9883,-6.9849,-6.7322,-6.3929,-5.9817,-4.9525,-3.9627,-3.2721,-3.6269,-4.055,-4.3117,-4.4154,-4.5642,-4.8002,-5.0241,-5.2094,-5.3343,-5.56,-5.6673,-5.6021,-5.6982,-5.9185,-6.2701,-6.482,-6.7528,-7.0875,-7.1085,-7.124,-7.1387,-7.1052,-7.0907,-7.0796,-6.7165,-6.4568,-6.2545,-5.8374,-5.3515,-4.8536,-4.7619,-4.561,-4.3062,-4.3926,-4.2369,-3.9825,-4.0568,-4.0313,-4.0185,0.0,0.0,0.0,0.0,0.0,0.0,0.0,0.0,0.0,0.0,0.0,0.0,0.0,0.0,0.0,0.0,-2.5879,-2.5575,-2.4831,-2.5035,-2.5094,-2.4794,-2.6015,-2.6454,-2.5879,-2.713,-2.7435,-2.6691,-2.6691,-3.1497,-4.0717,-4.2092,-4.1079,-3.833,-4.1952,-3.9568,-3.3017,-3.4369,-3.3072,-3.0137,-3.0209,-2.9661,-2.8869,-2.9164,-2.9782,-3.0239,-2.8589,-2.8766,-2.9455,-2.7607,-2.774,-2.8416,-2.6894,-2.642,0.0,0.0,0.0,-3.0662,-4.1067,0.0,-4.2977,-5.7515,-5.287,-4.8398,0.0,0.0,-5.6591,0.0,-6.6316,-6.7029,-6.8143,-6.8392,-6.6656,-6.0966,-4.9328,-4.0354,-3.876,-4.2645,-4.5023,-4.3456,-4.7205,-4.9633,-4.8598,-5.2248,-5.4876,-5.5296,-5.6371,-5.7287,-5.7857,-5.6623,-5.7975,-6.2635,-6.5615,-6.8354,-7.0875,-7.0232,-7.0335,-7.1182,-7.1004,-7.093,-7.0808,-6.8367,-6.5203,-6.143,-5.833,-5.3681,-4.8211,-4.7169,-4.5624,-4.3724,-4.4265,-4.2494,-3.9722,-3.9661,-3.9357,-3.9312,0.0,0.0,0.0,0.0,0.0,0.0,0.0,0.0,0.0,0.0,0.0,0.0,-2.6556,-2.6015,-2.5879,-2.659,-2.6623,-2.6319,-2.5609,-2.5541,-2.5541,-2.5541,-2.6285,0.0,-2.6623,-2.7402,-2.7435,-2.6691,-2.6691,-2.9901,-3.6166,-4.1181,-4.3893,-4.4424,-4.3905,-4.3447,-4.2713,-3.7868,-3.6061,-3.6365,-3.5574,-3.3119,-3.001,-3.001,-3.0523,-3.1031,-3.0247,-3.001,-2.9841,-2.8281,-2.7807,-2.757,-2.6116,-2.5676,-2.5812,0.0,0.0,0.0,-3.6336,-3.862,0.0,-4.6358,-4.2114,-3.8977,0.0,0.0,-4.8365,-5.5712,-6.1491,-6.5033,-6.435,-6.5733,-6.6059,-6.3248,-5.7993,-5.221,-4.6586,-5.0871,-5.3173,-4.9367,-5.1422,-5.3077,-5.2408,-5.3917,-5.5539,-5.7009,-5.5653,-5.5715,-5.7782,-6.0726,-6.2484,-6.2785,-6.7911,-7.0713,-7.0914,-6.8374,-6.8749,-7.1949,-7.1203,-7.0914,-7.0783,-6.7512,-6.315,-5.8069,-5.5036,-5.1953,-4.8795,-4.6389,-4.6052,-4.6807,-4.4462,-4.1967,-3.9697,-3.9722,-3.8599,-3.7604,0.0,0.0,0.0,0.0,0.0,0.0,0.0,0.0,0.0,0.0,0.0,0.0,0.0,-2.6454,-2.642,-2.6657,-2.6251,-2.5676,-2.4932,-2.4864,-2.4661,-2.4222,-2.5812,-2.6251,-2.5304,-2.6962,-2.7296,-2.6245,-2.6245,-2.8915,-3.4014,-3.6367,-3.9434,-4.3232,-5.0962,-4.9162,-4.0521,-4.48,-4.1185,-3.3184,-3.9608,-3.7378,-3.0475,-3.3338,-3.4936,-3.4961,-3.0299,-3.1131,-3.3852,-2.989,-2.8552,-2.8383,-2.7368,-2.6691,-2.6454,-2.7199,-2.8526,-3.0822,-3.5576,0.0,0.0,-4.4864,-3.9223,-3.4896,-4.7865,-4.8245,-4.7001,-5.1048,-5.8179,-6.2927,-6.009,-6.3136,-6.5567,-6.3866,-5.8846,-5.3489,-4.8868,-4.9088,-4.972,-4.9524,-5.3023,-5.5008,-5.4006,-5.679,-5.8221,-5.7409,-5.793,-5.8232,-5.7913,-6.2288,-6.5998,-6.8641,-7.0118,-7.1154,-7.158,-7.0628,-7.0114,-7.0013,-7.1106,-7.0247,-6.7629,-6.6444,-6.2997,-5.7698,-5.2749,-5.0025,-4.8756,-4.5419,-4.4285,-4.4624,-4.3863,-4.1904,-3.9473,-3.7604,-3.6456,-3.5904,0.0,0.0,0.0,0.0,0.0,0.0,0.0,0.0,-2.6987,-2.6725,0.0,0.0,0.0,0.0,-2.6793,-2.7063,-2.6623,-2.6048,-2.527,-2.5236,-2.4898,-2.4154,-2.5778,-2.6353,-2.5609,-2.7126,-2.7511,-2.6685,-2.6269,-2.78,-3.1141,-3.3152,-3.6195,-4.0377,-5.0486,-5.0557,-4.3568,-4.9946,-4.7192,-3.8948,-4.412,-4.2367,-3.6825,-3.8831,-3.9568,-3.928,-3.7365,-3.7586,-3.8515,-3.6561,-3.451,-3.2689,-3.186,-3.0173,-2.8391,-2.8425,-2.9661,-3.1603,-3.4643,-3.3561,-3.3251,-4.0259,-3.5897,-3.2595,-4.2533,0.0,-4.6988,-4.8433,-5.6367,-6.2556,-6.0527,-6.3507,-6.5948,-6.5091,-6.0487,-5.5862,-5.2337,-5.1506,-5.1149,-5.0934,-5.5193,-5.8274,-5.8488,-6.0849,-6.1767,-6.0218,-6.1098,0.0,-5.9589,-6.4895,-6.918,-7.1909,-7.1505,-7.1479,-7.2016,-7.1977,-7.1296,-6.9955,-6.9948,-6.9259,-6.7859,-6.4702,-6.0221,-5.4693,-4.9344,-4.7081,-4.6881,-4.4373,-4.3331,-4.3262,-4.2509,-4.0605,-3.7995,-3.6354,-3.5373,-3.4578,0.0,0.0,0.0,0.0,0.0,0.0,0.0,0.0,-2.6691,-2.6691,0.0,0.0,0.0,0.0,0.0,-2.7739,-2.7806,-2.7502,-2.6793,-2.6759,-2.6454,-2.571,-2.6353,-2.7097,-2.7772,-2.8002,-2.8056,-2.8024,-2.6752,-2.6509,-2.7294,-3.185,-3.4665,-3.6219,-4.1587,-4.7082,-5.235,-5.2661,-5.3388,-5.3809,-4.9215,-4.795,-4.8496,-4.6224,-4.4109,-4.3441,-5.1258,-4.9221,-4.3543,-4.8028,-4.549,-4.0285,-3.9294,-3.5654,-3.153,-3.0109,-3.1633,-3.3659,0.0,0.0,0.0,-3.1796,-3.1765,0.0,-3.0973,0.0,-4.7543,-4.7543,-5.5708,-6.3532,-6.5699,-6.6681,-6.7289,-6.7235,-6.3748,-6.0135,-5.7476,-5.9002,-5.8634,-5.4019,-5.8522,-6.3128,-6.6017,-6.6003,-6.5741,-6.5558,-6.4862,-6.4016,-6.3091,-6.8717,-7.1969,-7.1961,-7.1991,-7.1993,-7.1992,-7.1992,-7.1954,-7.1891,-6.7954,-6.7997,-7.1253,-6.198,-5.4527,-4.8785,-4.5056,-4.3396,-4.3323,-4.3239,-4.3175,-4.2859,-4.0602,-3.7992,-3.5557,-3.6307,-3.5423,-3.3833,0.0,0.0,0.0,0.0,0.0,-2.7404,-2.7303,-2.6761,-2.6436,0.0,0.0,0.0,-2.7127,-2.7081,-2.7336,-2.7954,-2.7992,-2.8115,-2.8349,-2.8349,-2.801,-2.7232,-2.7943,-2.7967,-2.716,-2.7773,-2.7477,-2.6146,-2.579,-2.5288,-2.467,-2.6914,-2.8154,-2.8842,-3.5547,-3.9429,-4.1476,-5.0044,-4.7317,-3.8566,-5.335,-5.0119,-3.7576,-4.8841,-4.8018,-4.171,-4.8411,-4.9758,-4.8532,-4.9876,-4.6265,-4.0348,-3.5483,-3.2995,-3.1986,-3.2508,-3.3405,-3.4258,-3.4104,0.0,0.0,0.0,0.0,0.0,-3.3354,0.0,-4.3575,-4.3761,-5.2253,-6.0297,-6.2267,-6.5969,-6.8792,-6.9266,-6.6522,-6.3299,-6.0289,-6.0944,-6.1883,-6.241,-6.6396,-6.8296,-6.6281,-6.7821,-6.7485,0.0,-6.4762,-6.6402,-6.8547,-7.0292,-7.1201,-7.1209,-7.1705,-7.1981,-7.1992,-7.2016,-7.1358,-7.0127,-7.0266,-6.7208,-6.1224,-5.4507,-5.059,-4.889,-4.6927,-4.488,-4.2952,-4.2279,-4.0592,-3.8437,-3.9294,-3.9165,-3.8251,-3.641,-3.5091,-3.4268,0.0,0.0,0.0,0.0,0.0,-2.7776,-2.7674,-2.6826,-2.6349,0.0,0.0,0.0,-2.6594,-2.7217,-2.7656,-2.7737,-2.824,-2.8715,-2.9059,-2.9319,-2.9262,-2.8789,-2.9228,-2.9101,-2.8359,-2.851,-2.7881,-2.628,-2.5768,-2.5122,-2.4448,-2.4956,-2.5604,-2.6565,-3.0784,-3.2983,-3.4086,-4.3463,-4.4674,-4.1365,-5.3207,-5.3095,-4.685,-5.5749,-5.4821,-4.9667,-5.6962,-5.8,-5.6191,-5.8016,-5.264,-4.4362,-3.9617,-3.5821,-3.3599,-3.6211,-3.6429,-3.5745,-3.5684,-3.6297,-3.6703,-3.558,0.0,0.0,-3.4762,-4.0452,-4.5927,0.0,-5.4615,-6.1716,-6.0654,-6.2562,-6.4916,-6.6878,-6.4721,-6.2847,-6.3017,-6.3762,-6.501,-6.6881,-7.0914,-7.2662,-7.0526,-7.1922,-7.165,-6.8553,-6.8912,-6.9745,-7.0848,-7.2274,-7.3053,-7.3042,-7.2069,-7.1708,-7.1987,-7.1979,-7.0642,-6.7889,-6.1465,-5.5957,-5.1429,-4.8972,-4.7649,-4.7362,-4.6094,-4.4535,-4.2758,-4.1054,-3.9554,-3.835,-3.8968,-3.8416,-3.7154,-3.595,-3.4658,-3.3314,0.0,0.0,-3.0561,-3.0628,-2.9547,-2.8553,-2.8247,-2.7114,-2.6532,0.0,-2.684,-2.6449,-2.6471,-2.7517,-2.8005,-2.7551,-2.854,-2.919,-2.9297,-2.9822,-3.0095,-3.0017,-3.0133,-3.0168,-3.0107,-2.9629,-2.874,-2.7411,-2.6257,-2.5674,-2.5585,-2.5122,-2.5849,-2.7503,-2.7657,-2.8352,-2.972,-3.5183,-4.3255,-5.2265,-5.088,-5.5946,-6.4253,-6.4061,-6.2192,-6.0859,-7.0147,-6.9059,-6.3819,-6.7384,-6.0848,-5.0633,-4.7486,-4.1601,-3.6559,-4.0276,-3.9589,-3.7624,-3.7558,-3.7649,-3.7607,-3.6822,-3.6423,0.0,-3.5393,-4.2635,-4.9693,0.0,-5.8032,-6.329,-5.9318,-5.7488,-5.7752,-6.1115,-5.9389,-5.9426,-6.4516,-6.6702,-6.7814,-6.7986,-7.269,-7.6185,-7.6792,-7.6785,-7.6549,-7.6103,-7.4973,-7.3447,-7.1583,-7.4361,-7.5995,-7.5995,-7.3047,-7.1628,-7.2017,-7.0633,-6.7716,-6.3188,-4.7347,-4.1016,-4.3317,-4.5113,-4.5681,-4.5164,-4.4106,-4.3452,-4.2802,-3.9968,-3.9505,-4.042,-3.9257,-3.6964,-3.4603,-3.5491,-3.4243,-3.2191,-3.0286,-3.0281,-3.0213,-3.0281,-2.9524,-2.8948,-2.8916,-2.7727,-2.7264,-2.8577,-2.8278,-2.8045,-2.8141,-2.7879,-2.8094,-2.8979,-2.8826,-2.9074,-3.0106,-3.0238,-3.0037,-2.9567,-3.0442,-3.0344,-2.8857,-2.9225,-2.8512,-2.6766,-2.6549,-2.6123,-2.5615,-2.6535,-2.7164,-2.7503,-2.8568,-2.9188,-2.9534,-3.1848,-3.6424,-4.3034,-5.2635,-5.4974,-5.3864,-6.4451,-6.2242,-5.5111,-6.736,-6.7637,-6.2042,-6.0982,-5.8897,-5.5348,-4.7208,-4.3518,-4.1945,-4.0597,-3.9374,-3.837,-3.7947,-3.7453,-3.6928,-3.6552,-3.5536,0.0,-3.5411,-3.6713,-3.9327,0.0,-4.7049,-4.9159,-5.297,-5.3006,-5.2639,-5.3414,-5.2134,-5.3345,-6.0058,-6.7222,-6.9681,-6.4128,-7.1761,-7.8079,-7.9644,-7.7779,-7.6466,-7.6469,-7.6244,-7.5784,-7.5033,-7.5668,-7.5976,-7.5976,-7.5353,-7.4056,-7.2028,-6.2116,-5.3964,-4.7637,-4.3898,-4.2396,-4.3042,-4.4091,-4.4868,-4.5397,-4.5725,-4.517,-4.3694,-4.0851,-3.9243,-3.8634,-3.927,-3.9118,-3.8331,-3.6224,-3.518,-3.4816,-3.0451,-3.0644,-3.0667,-3.0735,-3.0174,-2.9722,-2.9775,-2.867,-2.8198,-2.9212,-2.9134,-2.891,-2.8659,-2.8577,-2.8733,-2.9012,-2.9027,-2.9259,-2.991,-2.9881,-2.9717,-2.9406,-2.9978,-2.9717,-2.8511,-2.8795,-2.8358,-2.7069,-2.7069,-2.7026,-2.7007,-2.7633,-2.81,-2.8394,-2.9394,-2.9783,-2.9807,-3.1298,-3.5161,-4.115,-5.0628,-5.4375,-5.5534,-6.5962,-6.6014,-6.1567,-6.8641,-6.8332,-6.3919,-5.9837,-5.733,-5.531,-5.1955,-4.7182,-4.2791,-4.2822,-4.1172,-3.9072,-3.8174,-3.7467,-3.6898,-3.6516,-3.5656,0.0,0.0,-3.7652,-4.0392,-4.3369,-4.638,-4.8044,-4.6562,-4.6059,-4.5967,-4.6442,-4.5648,-4.6293,-4.986,-6.0498,-6.8325,-6.9463,-7.5255,-7.9376,-7.9956,-7.8375,-7.7098,-7.6621,-7.7556,-7.8447,-7.9106,-7.8965,-7.843,-7.7553,-7.5065,-7.1992,-6.8307,-5.8298,-4.9558,-4.2064,-4.0563,-4.0141,-4.0677,-4.2019,-4.3283,-4.4434,-4.541,-4.511,-4.3617,-4.2208,-4.0481,-3.8897,-3.9119,-3.8938,-3.8453,-3.7133,-3.6672,-3.6445,-3.0742,-3.0976,-3.1108,-3.1438,-3.0856,-3.0479,-3.0846,-2.9804,-2.916,-2.9689,-2.9744,-3.0021,-3.0654,-3.0159,-3.0142,-3.1022,-3.1125,-3.0873,-2.995,-3.0688,-3.0537,-2.9295,-2.9462,-2.9264,-2.8535,-2.8508,-2.8232,-2.769,-2.769,-2.8009,-2.8629,-2.8683,-2.9014,-2.942,-3.017,-3.1012,-3.1939,-3.3407,-3.749,-4.3472,-4.9791,-5.4567,-5.8722,-6.6896,-6.9099,-6.8065,-6.9735,-6.8886,-6.6085,-6.0281,-5.664,-5.4632,-5.6217,-5.0121,-4.2922,-4.5185,-4.3048,-3.967,-3.8285,-3.7542,-3.7023,-3.6365,-3.5771,-3.5348,0.0,0.0,0.0,-4.1936,-4.6034,-4.7446,-4.0213,0.0,0.0,0.0,0.0,0.0,0.0,-5.1502,0.0,-6.9278,-7.3143,-7.5005,-7.4603,-7.521,-7.5791,-7.6281,-7.8143,-8.0129,-8.2206,-8.1757,-8.06,-7.8694,-7.3514,-6.858,-6.4019,-5.6537,-4.8931,-4.1307,-3.9307,-3.846,-3.8749,-4.0545,-4.2227,-4.3771,-4.5101,-4.5067,-4.3976,-4.2524,-4.0884,-3.9172,-3.8965,-3.8226,-3.7477,-3.8132,-3.7933,-3.6949,-3.0185,-3.0202,-3.0628,-3.2012,-3.1163,-3.0688,-3.2104,-3.1183,-3.0332,-3.0376,-3.0402,-3.2419,-3.7763,-3.3599,-3.2998,-3.9495,-3.8394,-3.5646,-3.1528,-3.5053,-3.4725,-2.897,-2.9751,-2.972,-2.8643,-2.856,-2.848,-2.8387,-2.8387,-2.8716,-2.9278,-2.9805,-3.0136,-3.0219,-3.0845,-3.3699,-3.8174,-3.9713,-4.3482,-4.8983,-5.5916,-5.6205,-5.3819,-6.524,-6.6271,-6.223,-6.6282,-6.6825,-6.4836,-5.9707,-5.7678,-5.6863,-5.377,-4.9421,-4.5558,-4.5875,-4.3253,-3.9842,-3.829,-3.7542,-3.6882,-3.571,-3.4891,-3.4416,-3.4601,0.0,-3.5456,-3.6042,0.0,-3.5413,-3.4081,0.0,0.0,0.0,0.0,0.0,-4.1281,-4.3884,-4.5078,-4.5107,-5.1777,-5.6588,-5.7178,-6.2641,-6.8671,-7.4822,-7.666,-7.8903,-8.2145,-8.1318,-7.9551,-7.6956,-7.1131,-6.6159,-6.2259,-5.5256,-4.8831,-4.2956,-4.3198,-4.2187,-4.0101,-4.1499,-4.334,-4.5419,-4.6588,-4.6965,-4.6309,-3.9867,-3.7295,-3.7577,-3.9082,-3.8488,-3.6968,-3.8858,-3.7575,-3.5219,-3.1537,-3.1036,-3.0953,-3.1618,-3.1597,-3.1564,-3.1845,-3.1752,-3.1634,-3.1631,-3.2018,-3.4778,-4.146,-3.9859,-4.0998,-4.7724,-4.7136,-4.5184,-4.2345,-4.0288,-3.7887,-3.5112,-3.1748,-2.9693,-2.9175,-2.8746,-2.8553,-2.8511,-2.8857,-2.9316,-2.9935,-3.0518,-3.0603,-3.0235,-3.0909,-3.3888,-3.8502,-3.9548,-4.3617,-4.9496,-5.1978,-5.2147,-5.2166,-6.3956,-6.6303,-6.3078,-6.1333,-6.2085,-6.2678,-5.4401,-5.4884,-5.7902,-5.2649,-4.9483,-4.805,-5.0101,-4.5525,-4.0135,-4.1771,-4.2751,-4.3057,-4.1824,-4.1582,-4.1457,-4.0672,-3.7526,-3.457,-3.4056,0.0,0.0,0.0,0.0,0.0,0.0,-3.1123,-3.1901,0.0,0.0,-3.7893,0.0,0.0,0.0,-5.9874,-5.802,-5.9046,-6.4977,-6.6692,-6.8906,-7.2265,-7.6858,-7.8333,-7.6106,-7.1183,-6.6538,-6.224,-5.5936,-5.0345,-4.5515,-4.4899,-4.4065,-4.3272,-4.4683,-4.65,-4.8643,-5.024,-5.0885,-5.0504,-4.5,-3.9098,-3.3861,-3.702,-3.7244,-3.6008,-3.713,-3.7104,-3.6655,-3.3094,-3.2131,-3.1506,-3.154,-3.1856,-3.2031,-3.1743,-3.323,-3.4411,-3.4597,-3.5022,-3.8042,-4.5177,-4.3388,-4.4986,-5.3255,-5.3147,-5.2171,-5.0959,-4.5994,-4.2895,-4.2518,-3.4536,-3.0897,-3.2531,-2.9946,-2.8646,-2.879,-2.8998,-2.9451,-3.0064,-3.0642,-3.069,-3.018,-3.1117,-3.4163,-3.8748,-4.0672,-4.539,-5.1551,-5.2183,-5.2951,-5.4501,-6.1867,-6.4346,-6.3482,-5.9278,-5.9633,-6.0936,-5.2399,-5.3667,-5.8129,-5.3931,-5.1534,-5.1128,-5.5228,-5.0945,-4.5492,-4.8105,-4.9862,-5.0211,-4.6793,-4.6442,-4.6025,-4.2534,-3.8216,-3.4506,-3.3097,-3.3635,0.0,0.0,0.0,-3.2647,-3.1912,0.0,-3.1004,-3.0368,-2.9202,-3.3282,-4.6359,-4.9969,0.0,0.0,-5.3552,-5.2346,-5.6332,-6.0089,-6.2873,-6.434,-7.3549,-7.7368,-7.4294,-7.0462,-6.6174,-6.1392,-5.549,-5.0688,-4.7061,-4.5981,-4.5698,-4.622,-4.7953,-5.0134,-5.2502,-5.4027,-5.3775,-5.1999,-4.8685,-4.1759,-3.3469,-3.5434,-3.5263,-3.4167,-3.468,-3.5496,-3.6391,-3.4275,-3.3254,-3.2281,-3.2281,-3.1754,-3.1616,-3.2424,-3.6314,-3.9367,-3.9817,-4.0005,-4.2835,-5.0101,-4.1847,-4.1213,-5.475,-5.4592,-5.3729,-5.3673,-5.2271,-5.0929,-4.9888,-3.803,-3.4125,-3.9924,-3.2526,-2.8858,-2.9453,-2.8852,-2.8842,-2.9451,-3.0021,-3.0318,-3.0351,-3.1698,-3.5187,-4.0456,-4.5641,-5.1383,-5.7397,-6.1787,-6.3012,-6.1905,-5.8462,-5.8767,-6.1145,-6.2268,-6.1535,-5.9753,-5.6769,-5.6311,0.0,0.0,-5.6533,-5.5041,-6.0681,-6.0628,-5.8516,-5.779,-5.8385,-5.7043,-4.7976,-4.6257,-4.452,-3.5762,-3.3939,-3.3824,-3.2651,-3.2862,-3.3021,-3.2162,-3.2295,-3.2368,-3.188,-3.147,0.0,0.0,-3.0036,-2.9833,-2.9231,-3.4891,-3.9572,0.0,-4.6948,-5.0929,-5.2027,-6.1241,-6.5436,-6.2354,-7.3164,-7.6746,-7.0781,-6.7776,-6.3859,-5.8776,-5.266,-4.8692,-4.6809,-4.6875,-4.735,-4.8199,-5.0749,-5.3723,-5.6853,-5.7525,-5.4514,-4.9085,-4.7849,-4.4192,-3.9022,-3.5224,-3.2601,-3.1175,-3.2033,-3.2375,-3.2494,-3.5049,-3.4129,-3.3592,-3.3117,-3.3277,-3.3395,-3.3283,-3.4541,-3.7383,-4.2583,-4.411,-4.9458,-6.2205,-6.0456,-6.0015,-6.4158,-6.8311,-6.8041,-6.1732,-6.0441,-6.0147,-6.084,-5.0351,-4.3986,-4.2737,-3.8555,-3.418,-2.9576,-2.9285,-2.9508,-3.011,-3.0259,-3.054,-3.1001,-3.1388,-3.4782,-4.0447,-4.4182,-4.9641,-5.5776,-5.683,-5.7595,-5.8282,-5.9426,-6.0135,-6.0685,-6.154,-6.1058,0.0,-5.6371,-5.7559,-6.0079,-5.83,-5.884,-6.1291,-6.7078,-6.5233,-6.2093,0.0,0.0,-6.9327,-6.4592,-6.0172,-5.5299,-4.915,-4.0692,-3.3575,-3.1673,-3.2047,-3.2513,-3.176,-3.1837,-3.1986,-3.1808,-3.147,-3.1089,0.0,-3.0412,-2.9753,-2.8871,-3.0292,-3.3628,-3.9436,0.0,-3.6146,-4.2164,-4.152,-4.2805,-4.7238,-5.5396,-6.0009,-6.0003,-6.0822,-5.9683,-5.6473,-5.2221,-4.9981,-4.9684,-4.9294,-4.9244,-4.9889,-5.4704,-5.6976,-5.683,-5.3494,-4.942,-4.5095,-4.3048,-3.8894,-3.3746,-3.2309,-3.0167,-2.8009,-3.1108,-3.1828,-3.0988,-3.6186,-3.5105,-3.4577,-3.3583,-3.3624,-3.4566,-3.6729,-3.7029,-4.0599,-5.069,-5.1551,-5.6259,-6.9248,-6.907,-6.8666,-7.0401,-7.2066,-7.2,-6.932,-6.2325,-6.1434,-6.8522,-5.6242,-4.9627,-5.0617,-4.4209,-3.9227,-3.5948,-3.1633,-3.0556,-3.2546,-3.1075,-3.0424,-3.0663,-3.1307,-3.3721,-3.769,-4.255,-4.7341,-5.1777,-5.3106,-5.5038,-5.7192,-5.8555,-5.9779,-6.0929,0.0,-6.094,-5.9941,-5.7958,-5.998,-6.303,-6.1569,-6.3768,-6.7765,-7.3028,-7.2161,-7.0517,-7.4754,-7.7666,0.0,-7.3793,-6.9116,0.0,-5.7484,-4.8566,-4.1098,-3.9174,-3.9222,-3.8764,-3.5979,-3.5465,-3.4695,-3.2196,-3.147,-3.1089,0.0,-3.0649,-3.0209,-2.9465,-3.0867,-3.2731,-3.4971,-3.2156,-3.1247,-3.3723,-3.334,-3.357,-3.4934,-4.6936,-5.2491,-4.9604,-5.545,-5.7046,-5.3764,-5.1267,-5.018,-5.0533,-4.925,-4.9094,-4.9961,-5.6115,-5.8343,-5.6881,-4.8271,-4.3528,-4.1727,-3.8111,-3.4342,-3.0701,-2.8349,-2.6417,-2.5358,-2.8969,-3.0368,-3.0048,-3.7581,-3.6129,-3.515,-3.3751,-3.3228,-3.5335,-4.2341,-4.3608,-4.8802,-6.2724,-6.1791,-6.2948,-7.1213,-6.8054,-6.7405,-7.2583,-6.6498,-6.6096,-7.4903,-5.8856,-5.6399,-7.3168,-5.663,-5.205,-6.2668,-4.96,-4.4227,-4.7456,-3.5744,-3.231,-3.6437,-3.2321,-3.0064,-2.9579,-3.1483,-3.2347,-3.2923,-4.1102,-4.5172,-4.6479,-5.1211,-5.5482,-5.8722,-5.5842,-5.77,-6.1815,-6.173,-6.1261,-6.0949,-6.172,-6.3497,-6.5709,-6.8041,-7.0926,-7.426,-7.8272,-8.1148,-8.3189,-8.4318,-8.5361,-8.4177,-7.5784,-7.2966,0.0,0.0,-5.6805,-5.5054,-5.366,-5.2874,-5.0499,-4.4216,-4.25,-3.9883,-3.3265,-3.1617,-3.0954,-3.0243,-3.0751,-3.092,-3.0213,-3.5223,-3.572,-2.8063,-3.4474,-3.5648,-2.7378,-3.6334,-3.7535,-2.6883,-4.7095,-5.323,-4.073,-5.1459,-5.5348,-5.1023,-4.977,-4.9272,-4.9284,-4.7263,-4.6899,-4.8297,-5.4435,-5.7248,-5.6455,-4.2194,-3.7284,-3.8818,-3.2814,-3.0466,-2.9812,-2.3598,-2.1714,-2.2656,-2.5202,-2.74,-2.8786,-3.6797,-3.5757,-3.5476,-3.5116,-3.7615,-4.0525,-4.2996,-4.763,-5.2954,-5.8806,-6.4413,-6.9776,-7.4719,-7.7865,-7.5901,-6.6719,-6.9045,-6.8964,-6.4155,-6.37,-6.8291,-7.8685,-7.1498,-6.6409,-6.47,-5.8671,-5.3096,-4.8112,-4.0059,-3.6972,-3.8515,-3.295,-3.0575,-3.0942,-3.1874,-3.2577,-3.3626,-4.1305,-4.6679,-4.9681,-4.6493,-4.9497,-5.5695,0.0,-5.78,-6.3639,-6.2752,-6.2716,-6.3435,-6.5268,-6.6685,-6.8215,-7.1052,-7.4745,-7.8348,-8.0654,-8.4012,-8.7259,-8.8797,-9.0212,-9.0302,-8.6152,-8.0267,-7.4021,0.0,0.0,0.0,0.0,-5.1983,-5.0185,-4.7141,-4.2926,-3.9308,-3.7494,-3.3844,-3.1123,-3.0954,-3.1089,-3.104,-3.059,-3.1394,-3.1284,-2.9527,-2.9983,-2.9595,-2.7645,-3.0097,-3.1362,-3.0653,0.0,-3.7671,-4.3668,-4.3007,-4.5631,-5.2138,-4.9331,-4.8572,-5.0119,-4.8457,-4.6386,-4.4246,-4.6195,-4.704,-4.6405,-3.5274,-3.1486,-3.2609,-2.6278,-2.3612,-2.3486,-2.2711,-1.9404,-1.5316,-1.5949,-1.6591,-1.7817,-3.7921,-3.6852,-3.6491,-3.6152,-4.2781,-4.8272,-4.8762,-5.156,-5.6847,-6.5639,-6.9947,-7.4237,-7.9546,-8.3977,-8.3103,-7.4563,-7.1589,-6.9852,-6.8996,-6.4033,-6.6731,-7.9415,-7.4714,-6.9776,-6.5416,-6.2379,-5.7904,-5.1793,-4.3078,-4.0213,-4.2668,-3.4579,-3.1229,-3.188,-3.2202,-3.2713,-3.3863,-4.1035,-4.6465,-5.0017,-4.6612,-4.9664,0.0,-5.4414,-5.8569,-6.5223,-6.4648,-6.5077,-6.6048,-6.7684,-6.9295,-7.1035,-7.3432,-7.7017,-8.0801,-8.2874,-8.5868,-8.8857,-9.0262,-9.1307,-9.1461,-8.8972,-8.4552,-7.99,-7.6331,-7.0639,-6.5542,0.0,-6.1483,-5.8701,0.0,-4.8476,-4.2187,-3.6569,-3.3704,-3.2116,-3.2051,-3.431,-3.5142,-3.2792,-3.3761,-3.4056,-3.2648,-2.9601,-2.7876,-2.8278,-2.8668,-2.921,0.0,0.0,-3.443,-3.6373,-3.8571,-4.1211,-4.4346,-4.4395,-4.5588,-4.7918,-4.5556,-4.3342,-4.1379,-4.1603,-4.031,-3.7442,-2.8878,-2.5663,-2.6287,-2.2602,-2.1397,-2.158,-1.9037,-1.3531,-0.748,-1.1103,-1.2635,-1.4245,-3.9685,-3.8391,-3.8013,-3.7816,-4.7223,-5.5291,-5.6753,-5.6967,-6.1861,-7.5595,-7.6008,-7.7214,-8.2978,-8.6257,-8.7329,-8.558,-7.355,-6.99,-7.9037,-6.3269,-6.109,-7.8115,-7.2922,-6.8747,-6.6791,-6.4312,-6.1359,-5.7949,-4.632,-4.3045,-4.7356,-3.6601,-3.1933,-3.2628,-3.2597,-3.3507,-3.5358,-4.0612,-4.5219,-4.9033,-4.9101,-5.2458,-5.7157,-5.597,-5.9979,-6.6341,-6.6883,-6.7728,-6.8749,-6.9654,-7.157,-7.3839,-7.5385,-7.8402,-8.1953,-8.4528,-8.6796,-8.8779,-8.9982,-9.0325,-8.9746,-8.7638,-8.6553,-8.5272,-8.2604,-8.0056,-7.7884,-7.6427,-7.373,-6.9673,0.0,-5.5502,-4.6181,-3.4347,-3.2963,-3.3345,-3.3202,-3.8543,-4.06,-3.5579,-3.8774,0.0,-3.6064,-3.1518,-2.9014,-2.9599,-2.9989,-2.9698,0.0,0.0,-3.7028,-2.7612,-3.694,-3.9862,-3.507,-3.7606,-4.0375,-4.3269,-4.0833,-3.9793,-3.9912,-3.9951,-3.6626,-3.0615,-2.4808,-2.1915,-2.1024,-2.0144,-2.051,-2.0738,-1.4205,-0.7485,-0.2414,-0.8618,-1.1959,-1.4467,-3.8865,-3.8444,-3.9709,-4.2526,-4.688,-5.3017,-6.2033,-6.8963,-7.2796,-7.17,-7.6998,-7.9817,-7.7155,-8.1421,-8.1952,-7.5607,-7.2883,-7.1636,-7.1839,-6.9415,-7.1765,-8.0292,-7.8814,-7.671,-7.4524,-7.205,-6.955,-6.7096,-5.3904,-4.8222,-4.9405,-3.773,-3.2676,-3.334,-3.3873,-3.7627,-4.338,-4.083,-4.3355,-4.9054,-4.9734,-5.1045,-5.3187,-5.8584,-6.2934,-6.6254,-6.7814,-6.9548,-7.1225,-7.2093,-7.3568,-7.5365,-7.7156,-7.9263,-8.1727,-8.487,-8.6556,-8.7831,-8.9978,-8.9544,-8.8298,-8.733,-8.5966,-8.4351,-8.2435,-8.0034,-7.7334,-7.4266,-7.1534,-6.8694,-6.5507,0.0,-4.6216,-3.9884,-3.565,-3.3271,-3.353,-3.9586,-4.1825,-3.6125,-3.9516,-4.0667,-3.6575,-3.2957,-3.1444,-3.2852,-3.1237,-3.1528,0.0,0.0,-3.3301,0.0,-3.711,0.0,0.0,0.0,-3.1202,-3.5396,-3.8324,-4.0205,-4.1039,-4.1071,-3.7269,-3.0857,-2.963,-2.6076,-2.0719,-1.541,-1.3344,-1.3426,-1.2113,-1.1076,-0.9639,-0.4185,-0.6627,-1.3793,-4.3407,-4.1852,-4.1389,-4.3429,-4.9679,-5.6295,-6.1908,-7.1237,-7.6693,-7.3891,-7.7328,-7.9244,-7.7324,-8.0736,-8.1804,-7.8482,-7.4918,-7.3888,-7.6197,-7.3363,-7.4406,-8.083,-8.0285,-7.7456,-7.2508,-7.3451,-7.1141,-6.5336,-5.5368,-5.0378,-4.9911,-3.8029,-3.3031,-3.4225,-3.7534,-4.0631,-4.3533,-4.6011,0.0,-5.048,-5.3217,-5.4811,-5.599,-6.0351,-6.3646,-6.6159,-6.7937,-6.9866,-7.1837,-7.3016,-7.4609,-7.6251,-7.7396,-7.9039,-8.1069,-8.3427,-8.5037,-8.6354,-8.7637,-8.7369,-8.6398,-8.4842,-8.3515,-8.2037,-7.9868,-7.7352,-7.4789,-7.225,-6.9794,-6.6707,-6.2065,-5.7177,0.0,0.0,-4.2257,-3.9727,-4.0269,-4.387,-4.5217,-4.1937,-4.5271,-4.5978,-4.1323,-3.8293,-3.5652,-3.333,-3.1715,-3.1331,0.0,0.0,-3.3505,0.0,0.0,0.0,0.0,0.0,0.0,-3.2759,-3.6619,-3.9318,-4.1039,-4.1429,-4.0023,-3.6929,-3.3187,-2.771,-2.112,-1.4305,-1.1543,-1.1643,-1.1871,-1.2299,-1.2059,-0.7995,-0.9031,-1.3093,-4.9388,-4.7222,-4.5746,-4.7215,-5.4188,-6.0416,-6.2768,-7.0511,-7.6326,-7.6893,-7.7681,-7.8441,-7.9056,-8.0926,-8.1843,-8.1167,-7.7151,-7.5588,-7.775,-7.5209,-7.5171,-7.8726,-7.9652,-7.7259,-7.1177,-7.4243,-7.2236,-6.467,-5.7457,-5.2881,-5.0657,-3.9684,-3.5229,-3.6683,-4.2323,0.0,0.0,0.0,-5.3892,-5.3366,-5.7326,-5.9487,-6.0496,-6.2493,-6.4898,-6.7317,-6.8739,-7.0606,-7.2538,-7.3484,-7.4858,-7.6252,-7.6546,-7.799,-7.9871,-8.1531,-8.3125,-8.4507,-8.5232,-8.5027,-8.4132,-8.2161,-8.0702,-7.9067,-7.6635,-7.4101,-7.1787,-6.9927,-6.799,-6.503,-5.9862,-5.9077,0.0,0.0,-4.7831,-4.53,-4.4701,-4.6945,-4.8153,-4.6765,-4.9474,-4.9733,-4.5287,-4.1928,-3.7995,-3.3055,-3.1949,-3.1299,-3.0815,0.0,0.0,0.0,0.0,-3.8062,-3.6374,0.0,-3.6606,-3.52,-3.669,-3.8702,-4.1164,-4.1679,-4.2077,-4.2004,-3.6326,-2.8994,-2.0475,-1.4224,-1.1626,-1.1697,-1.231,-1.2543,-1.2421,-1.2381,-1.2333,-1.2536,-5.4438,-5.4721,-5.6169,-6.0163,-6.0146,-6.2199,-6.9873,-7.0349,-7.1747,-7.7174,-7.8557,-7.9311,-7.9894,-8.0201,-7.837,-7.3458,-7.7509,-7.5547,-6.4196,-7.3991,-7.767,-7.1933,-7.7667,-8.0292,-7.8769,-7.8377,-7.7032,-7.4635,-6.5676,-5.854,-5.3034,-4.5029,-4.1697,-4.2629,0.0,0.0,0.0,-5.441,-5.6102,-5.8718,-6.0611,-6.2149,-6.3702,-6.6491,-6.9058,-7.1248,-7.187,-7.3334,-7.4834,-7.4091,-7.411,-7.4518,-7.4583,-7.5836,-7.7698,-7.976,-8.1168,-8.2468,-8.4627,-8.3561,-8.1589,-8.0768,-7.8386,-7.5774,-7.3806,-7.1636,-6.9374,-6.7005,-6.5702,-6.4955,-6.4813,-6.1214,-5.6742,0.0,0.0,-4.3685,-3.8999,-4.4841,-4.8431,-4.5293,-4.6224,-4.6266,-4.4228,-3.8765,-3.4658,-3.3059,-3.2203,-3.3213,0.0,0.0,0.0,-3.651,0.0,-3.782,-4.1246,-3.8631,-3.9848,-4.4864,-3.9974,-3.9168,-4.2057,-4.2133,-4.1496,-4.029,-3.9451,-3.0946,-1.7276,-1.3232,-1.1647,-1.1683,-1.2192,-1.2282,-1.2067,-1.1775,-1.1993,-1.2486,-6.0405,-5.8916,-5.8545,-6.1712,-6.2795,-6.5045,-7.0676,-7.242,-7.4335,-7.7568,-7.7926,-7.8339,-7.9475,-7.9888,-7.9362,-7.7586,-7.9659,-7.887,-7.3611,-7.819,-7.9889,-7.7026,-7.9626,-8.0977,-8.0785,-8.0285,-7.9054,-7.6947,-6.5082,-5.7299,-5.3336,-4.4947,0.0,0.0,0.0,-5.4859,-5.5775,-5.8215,-5.9706,-6.0551,-6.2242,-6.3763,-6.536,-6.8409,-7.0497,-7.2124,-7.365,-7.4789,-7.5525,-7.5542,-7.5298,-7.5068,-7.5284,-7.6366,-7.7916,-7.9707,-8.096,-8.1786,-8.2216,-8.1581,-8.0163,-7.7422,-7.5054,-7.2465,-6.89,-6.6306,-6.4382,-6.341,-6.3833,-6.4572,-6.5255,-6.4166,-6.2093,-5.8836,0.0,-5.3676,-4.9664,-5.1082,-5.2752,-5.334,-5.0968,-4.9426,-4.9743,-4.3876,-3.91,-3.6875,-3.3636,-3.1982,0.0,0.0,0.0,-3.8085,0.0,-4.0645,-4.316,-4.185,-4.2498,-4.5185,-4.2651,-4.1905,-4.266,-4.266,-4.1355,-3.8778,-3.6609,-2.9849,-2.0158,-1.6428,-1.0862,-0.5134,-1.0058,-1.1898,-1.177,-1.1623,-0.8836,-0.5686,-6.7384,-6.5169,-6.3911,-6.6024,-6.7555,-6.9039,-7.0514,-7.3859,-7.6137,-7.6009,-7.6938,-7.8107,-7.9349,-7.9847,-7.9628,-7.8492,-8.0037,-7.9473,-7.5583,-7.8947,-8.019,-7.8084,-8.0005,-8.117,-8.1285,-8.117,-7.9953,-7.7642,-6.7013,-5.9689,-5.5423,0.0,0.0,0.0,-5.6792,-5.8624,-5.8164,-6.1124,-6.222,-6.204,-6.3201,-6.4986,-6.7173,-7.0119,-7.2105,-7.3635,-7.5813,-7.6626,-7.68,-7.7331,-7.7096,-7.6495,-7.5909,-7.6659,-7.7797,-7.8741,-7.9727,-8.0423,-8.0029,-7.9645,-7.85,-7.5093,-7.2419,-6.9472,-6.544,-6.2548,-6.0719,-6.0724,-6.2302,-6.3906,-6.4457,-6.5632,-6.5448,-6.2254,0.0,-6.0236,-5.6308,-5.4816,-5.4828,-5.6625,-5.2196,-4.9672,-5.148,-4.6115,-4.1665,-3.9511,-3.6058,-3.334,0.0,0.0,0.0,0.0,0.0,0.0,-4.3278,-4.3469,-4.4015,-4.498,-4.4269,-4.3542,-4.3008,-4.2856,-4.1314,-3.8449,-3.5081,-2.9976,-2.3975,-2.0304,-1.2102,-0.2334,-0.8977,-1.167,-1.1643,-1.1643,-0.8174,-0.3914,-7.5324,-7.4891,-7.491,-7.6354,-7.617,-7.4412,-7.0494,-7.3828,-7.5435,-7.168,-7.5682,-7.9171,-8.001,-8.0125,-7.7913,-7.2472,-7.7581,-7.5583,-6.2576,-7.3877,-7.8007,-7.1014,-7.7402,-8.1093,-8.1093,-8.1093,-7.9977,-7.7721,-7.4211,-6.8449,-6.0554,0.0,-5.641,-5.8067,-6.2368,-6.3984,-6.3482,-6.2699,-6.2848,-6.355,-6.3593,-6.5833,-6.9462,-7.1972,-7.4472,-7.6793,-7.8696,-7.9277,-7.9198,-7.931,-7.9275,-7.8679,-7.6038,-7.589,-7.6621,-7.6245,-7.6846,-7.7809,-7.8626,-7.7792,-7.6338,-7.4643,-7.0918,-6.6998,-6.431,-6.1462,-5.9313,-5.9349,-6.1178,-6.2842,-6.2842,-6.4861,-6.4897,-6.0052,0.0,0.0,-5.4032,-5.3444,-5.3012,-5.1491,-4.6778,-4.4519,-4.6651,-4.2736,-3.9919,-3.963,-3.9527,0.0,0.0,0.0,0.0,-3.7327,-3.3234,0.0,-4.1566,-4.2398,-4.4048,-4.6368,-4.4257,-4.3256,-4.3178,-4.2531,-4.1336,-3.958,-3.6553,-3.2455,-2.7881,-2.4266,-1.6103,-0.608,-1.0082,-1.1583,-1.1563,-1.1563,-1.1556,-1.0384,-6.8158,-7.2186,-7.5426,-7.3317,-7.4935,-7.66,-7.6797,-7.7647,-7.8154,-7.795,-7.9354,-8.0553,-8.0937,-8.086,-8.0136,-7.853,-7.622,-7.4898,0.0,-7.4936,-7.5692,-7.7667,-7.5883,-7.4898,-7.5054,-7.3991,-7.2797,-7.1613,0.0,0.0,0.0,-5.7221,-5.8202,-6.1077,-6.2572,-6.3075,-6.273,-6.215,-6.2717,-6.4138,-6.4138,-6.647,-7.019,-7.2778,-7.5118,-7.7307,-7.9635,-8.0477,-8.0392,-8.031,-8.0255,-7.966,-7.6402,-7.6679,-7.8078,-7.7563,-7.7628,-7.7689,-7.6948,-7.684,-7.5959,-7.1995,-6.9569,-6.6785,-6.1722,-5.9076,-5.7646,-5.7626,-5.9522,-6.152,-6.2622,-6.3466,-6.2952,-5.9722,-6.1448,0.0,-5.6418,-5.528,-5.4345,-5.2744,-4.8378,-4.6359,-4.8575,-4.5812,-4.3541,-4.2721,-4.0763,0.0,0.0,0.0,0.0,0.0,-4.1929,0.0,-4.5464,-4.4216,-4.4464,-4.6246,-4.5571,-4.4814,-4.405,-4.3854,-4.2651,-4.0795,-3.975,-3.6436,-3.1265,-2.5308,-1.7696,-0.9293,-0.5323,-0.3747,-0.3712,-0.374,-0.3631,-0.3376,-7.0413,-7.4281,-7.7387,-7.5253,-7.6625,-7.8025,-7.787,-7.8932,-7.9432,-7.8627,-8.001,-8.1131,-8.1246,-8.117,0.0,-8.197,-7.8361,-7.7724,-8.1632,-7.8164,-7.7509,-8.0977,-7.7179,-7.4905,-7.4714,-7.3506,0.0,-7.097,-6.7317,-6.3527,-5.9761,-5.9336,-6.0496,-6.2911,-6.2435,-6.2341,-6.247,-6.1521,-6.241,-6.437,-6.4369,-6.6739,-7.0527,-7.3479,-7.5889,-7.8008,-8.0586,-8.1222,-8.0883,-8.0744,-8.0054,-7.8755,-7.5926,-7.5605,-7.6183,-7.577,-7.5887,-7.5818,-7.4576,-7.4474,-7.3861,-7.0616,-6.844,-6.5591,-5.9962,-5.7736,-5.6901,-5.6898,-5.8761,-6.0713,-6.1704,-6.2658,-6.2805,-6.13,-6.2711,-6.2888,-5.9637,-5.7077,-5.4921,-5.3131,-4.9068,-4.7198,0.0,-4.7913,-4.6824,0.0,0.0,0.0,0.0,0.0,0.0,-4.2966,-4.3586,0.0,-4.5981,-4.4493,-4.4625,-4.657,-4.6316,-4.5712,-4.4729,-4.4176,-4.3451,-4.2499,-4.127,-3.8849,-3.5018,-2.5939,-1.6335,-0.6723,-0.1838,0.185,0.4385,0.4302,0.4358,0.3974,-7.8678,-7.9282,-7.9972,0.0,-8.0161,0.0,-7.5127,-7.8202,-7.9369,-7.5095,-7.8241,-8.0939,-8.0939,-8.0939,-8.1439,-8.2733,0.0,0.0,0.0,-8.2096,-8.1523,-8.0907,-7.9779,-7.8788,-7.8065,-7.7376,-7.6102,-7.4183,-6.9654,-6.6236,-6.3872,-6.3064,-6.3064,-6.3665,-6.2216,-6.1946,-6.2515,-6.1151,-6.207,-6.4483,-6.452,-6.6891,-7.0681,-7.4094,-7.6646,-7.875,-8.1286,-8.1506,-8.0598,-8.0453,-7.8726,-7.6313,-7.4486,-7.2886,-7.1648,-7.1534,-7.202,-7.2416,-7.1454,-7.0934,-7.061,-7.0265,-6.7375,-6.3474,-5.9078,-5.7499,-5.6993,-5.7045,-5.8919,-6.0493,-6.0566,-6.2511,-6.4127,-6.4163,-6.4002,-6.3589,-6.2526,-5.8322,-5.4466,-5.2258,0.0,0.0,-4.8837,-4.9144,-4.9513,0.0,0.0,0.0,0.0,0.0,-3.7724,-4.1523,-4.0261,-4.1021,-4.4237,-4.3864,-4.4929,-4.7369,-4.6628,-4.6064,-4.5413,-4.4166,-4.4041,-4.4617,-4.1595,-4.003,-3.8727,-2.67,-1.3449,-0.0673,0.0416,0.5477,1.2492,1.3031,1.2887,1.1364,0.0,0.0,-7.6852,-7.4563,-7.6427,-7.8314,-7.8453,-7.8846,-7.8723,-7.7636,-7.8423,-7.9169,-7.9323,-7.9361,-7.9785,-8.0923,-7.7054,-7.6574,-8.1392,-7.6161,-7.4522,-7.8362,-7.2854,-6.9612,-6.9425,-6.8218,-6.844,-7.0155,-6.7761,-6.5871,-6.4716,-6.3833,-6.3206,-6.2892,-6.244,-6.2077,-6.1778,-6.2018,-6.3395,-6.5351,-6.6031,-6.8269,-7.1505,-7.4289,-7.6216,-7.7806,-8.024,-8.0473,-7.9499,-7.816,-7.6463,-7.4237,-7.0869,-6.9532,-6.9045,-6.8527,-6.8494,-6.8498,-6.7716,-6.8371,-6.9015,-6.8114,-6.4951,-6.177,-6.0082,-5.8752,-5.801,-5.861,-6.0085,-6.1484,-6.2144,-6.3246,-6.431,-6.4934,-6.3877,-6.1664,-5.7942,-5.4712,-5.1276,0.0,-4.7541,-4.8221,-4.8653,-5.0994,-5.1569,0.0,0.0,-4.8644,-4.8812,-4.5866,-4.559,-4.8835,-4.832,-4.7916,-4.8036,-4.7443,-4.7452,-4.8057,-4.7911,-4.7462,-4.6882,-4.7182,-4.7114,-4.6575,-4.5829,-4.3258,-3.9077,-3.1634,-2.0576,-0.7052,0.3847,1.3181,2.1046,2.7695,2.6505,2.0437,-6.8541,-7.2507,-7.5802,-7.4448,-7.5928,-7.7632,-7.8688,-7.8424,-7.8223,-7.8446,-7.8477,-7.83,-7.7763,-7.7692,-7.7663,-7.7676,-7.6274,-7.6693,-7.965,-7.5649,-7.4099,-7.612,-7.1995,-6.9496,-6.9125,-6.8054,-6.7534,-6.7569,-6.6647,-6.5371,-6.3829,-6.3658,-6.3433,-6.3021,-6.2569,-6.2681,-6.3023,-6.2816,-6.4009,-6.6256,-6.7541,-6.9645,-7.2418,-7.5255,-7.6894,-7.7866,-7.9546,-7.9069,-7.7322,-7.5376,-7.3269,-7.1008,-6.778,-6.6763,-6.6558,-6.5402,-6.5887,-6.656,-6.5467,-6.5759,-6.6178,-6.5214,-6.3392,-6.1647,-6.0978,-5.9671,-5.8815,-5.9631,-6.1053,-6.2291,-6.2732,-6.3833,-6.4787,-6.5228,-6.2293,-5.9015,-5.614,-5.2552,-4.9721,-4.8305,-4.9286,-5.0712,-5.2209,-5.3379,-5.3343,-5.1691,-4.9907,0.0,-5.0359,-4.8392,-4.8417,-5.1001,-5.0722,-5.0273,-4.9703,-4.9643,-4.9613,-4.9613,-4.9314,-4.9133,-4.9038,-4.8327,-4.794,-4.7871,-4.7499,-4.4464,-3.9253,-3.332,-2.1011,-0.4325,1.0424,1.9959,2.6117,3.2402,3.2762,2.8614,-7.347,-7.4335,-7.5253,-7.6135,-7.6198,-7.6373,-7.7073,-7.715,-7.7264,-7.7642,-7.7738,-7.7336,-7.6044,-7.5665,-7.5095,-7.4082,-7.6381,-7.7728,-7.7264,-7.6532,-7.5342,-7.3759,-7.2828,-7.2136,-7.169,-7.1066,-6.9261,-6.619,-6.6057,-6.4918,-6.2813,-6.3426,-6.3801,-6.3903,-6.3222,-6.3858,-6.5237,-6.3953,-6.484,-6.7193,-6.8816,-7.0718,-7.2943,-7.5863,-7.7228,-7.7738,-7.85,-7.7138,-7.4664,-7.241,-7.0018,-6.7595,-6.5213,-6.4543,-6.4462,-6.3024,-6.4217,-6.5619,-6.3962,-6.3501,-6.3279,-6.2445,-6.2144,-6.1893,-6.1511,-6.0477,-5.9822,-6.0747,-6.2254,-6.3356,-6.3356,-6.4501,-6.5291,-6.4861,-6.0336,-5.6597,-5.5491,0.0,-4.9924,-5.2027,-5.2598,-5.3881,-5.6735,-5.5576,-5.4696,-5.4696,-5.129,-5.0292,-5.2584,-4.9888,-4.908,-5.0969,-5.0638,-5.0571,-5.069,-5.1349,-5.1618,-5.1498,-5.096,-5.087,-5.1139,-4.8864,-4.8149,-4.8477,-4.7639,-4.4687,-4.0068,-3.4508,-2.0798,-0.1748,1.481,2.4018,2.8439,3.1078,3.4068,3.5878,-7.0491,-7.1451,-7.2368,-7.3699,-7.3341,-7.3335,-7.4648,-7.4623,-7.4372,-7.3909,-7.4295,-7.433,-7.3598,-7.2311,-7.1665,-7.2151,-7.1006,-7.1306,-7.3787,-7.2064,-7.0836,-7.0546,-6.8642,-6.8141,-6.9355,-6.859,-6.7547,-6.6366,-6.5604,-6.4972,-6.4597,-6.4738,-6.5125,-6.5758,-6.5652,-6.6226,-6.7158,-6.6906,-6.7378,-6.8315,-6.9332,-7.0572,-7.2014,-7.3509,-7.4478,-7.5084,-7.5367,-7.4226,-7.2244,-6.9953,-6.784,-6.5788,-6.3653,-6.3293,-6.3655,-6.3396,-6.4019,-6.4551,-6.3033,-6.2581,-6.2445,-6.1637,-6.096,-6.0671,-6.133,-6.1353,-6.1664,-6.321,-6.4824,-6.5925,-6.5925,-6.6097,-6.5363,-6.2631,-5.9636,-5.6652,-5.3871,0.0,-5.3432,-5.3817,-5.569,-5.7141,-5.7679,-5.6137,-5.5048,-5.5048,-5.2997,-5.1821,-5.1934,-5.1452,-5.1436,-5.1931,-5.1922,-5.2157,-5.2725,-5.3414,-5.3443,-5.2875,-5.2785,-5.2187,-5.1199,-5.0747,-4.9731,-4.8298,-4.7636,-4.6035,-4.3715,-3.9857,-3.0469,-1.6484,0.4952,1.9387,2.7965,2.5991,3.2296,4.1175,-6.9155,-7.011,-7.1011,-7.2087,-7.2004,-7.2042,-7.3023,-7.2698,-7.2359,-7.2373,-7.2619,-7.2387,-7.1419,-7.0623,-6.9851,-6.8995,-6.7629,-6.7209,-6.8222,-6.816,-6.7852,-6.7407,-6.6427,-6.6219,-6.6953,-6.6592,-6.6126,-6.5718,-6.5284,-6.5027,-6.4999,-6.5424,-6.6026,-6.6769,-6.6769,-6.7588,-6.8786,-6.8389,-6.8604,-6.9219,-7.0124,-7.0793,-7.1407,-7.2731,-7.2954,-7.2533,-7.2633,-7.1283,-6.907,-6.6772,-6.5384,-6.4358,-6.2488,-6.2634,-6.3599,-6.4005,-6.3768,-6.3159,-6.211,-6.1501,-6.0892,-5.9742,-5.9505,-5.9638,-6.0073,-6.0229,-6.0614,-6.1861,-6.3764,-6.4911,-6.4043,-6.4888,-6.496,-6.263,-5.8556,0.0,-5.4221,-5.3403,-5.3094,-5.3494,-5.6062,-5.7821,-5.7821,-5.6287,-5.528,-5.528,-5.3216,-5.2121,-5.2348,-5.1114,-5.0971,-5.2127,-5.3234,-5.4132,-5.479,-5.5448,-5.5598,-5.5299,-5.494,-5.4461,-5.3862,-5.2755,-5.1588,-5.0331,-4.8949,-4.7561,-4.5949,-4.2937,-3.4274,-2.1611,-0.8925,0.4341,1.6997,2.3677,3.1099,3.4547,-6.8311,-6.9412,-7.022,-7.068,-7.0917,-7.112,-7.1416,-7.1042,-7.0816,-7.1111,-7.125,-7.0818,-6.9458,-6.9137,-6.8272,-6.6381,-6.5485,-6.4875,-6.4598,-6.5372,-6.5602,-6.5044,-6.5191,-6.5118,-6.4751,-6.5118,-6.5257,-6.512,-6.5301,-6.5478,-6.5681,-6.6523,-6.7402,-6.8155,-6.8454,-6.9405,-7.0641,-6.9937,-6.9558,-6.9554,-6.9999,-7.0003,-6.9804,-7.0853,-7.056,-6.9669,-6.9535,-6.8126,-6.601,-6.4148,-6.3435,-6.3102,-6.1732,-6.2313,-6.3666,-6.4377,-6.3606,-6.2219,-6.1144,-6.0671,-5.9937,-5.8193,-5.81,-5.854,-5.8805,-5.9007,-5.9377,-6.0211,-6.2188,-6.3323,-6.2107,-6.3244,-6.3617,-6.1369,0.0,-5.398,0.0,-5.3063,-5.2657,-5.4083,-5.6456,-5.798,-5.798,-5.6479,-5.5574,-5.5574,-5.3295,-5.2119,-5.261,-5.0608,-5.0242,-5.1917,-5.4072,-5.5568,-5.6376,-5.7004,-5.7334,-5.7334,-5.6855,-5.6466,-5.6137,-5.4581,-5.3354,-5.2336,-5.084,-4.9094,-4.7131,-4.5176,-3.7348,-2.6216,-2.1987,-1.1815,0.2367,1.8453,2.8181,2.8372,-6.7467,-6.9026,-6.9871,-6.9229,-6.9687,-6.9907,-6.9282,-6.9545,-6.9707,-6.9205,-6.9558,-6.9372,-6.7994,-6.7206,-6.6381,-6.5485,-6.464,-6.4722,-6.5895,-6.4629,-6.3947,-6.4177,-6.4897,-6.4567,-6.3025,-6.453,-6.5286,-6.527,-6.6003,-6.6773,-6.7542,-6.8925,-6.9955,-7.0785,-7.2033,-7.2773,-7.309,-7.2272,-7.0735,-6.879,-6.8102,-6.7221,-6.6125,-6.5743,-6.5832,-6.6079,-6.5625,-6.4841,-6.3831,-6.2959,-6.2616,-6.2324,-6.1535,-6.2313,-6.3666,-6.4377,-6.3701,-6.2306,-6.0225,-6.0458,-6.0593,-5.7939,-5.7105,-5.7114,-5.7907,-5.8692,-5.9443,-6.0273,-6.1761,-6.2852,-6.2754,-6.2213,-6.0458,-5.6309,0.0,0.0,-5.3269,-5.2909,-5.4148,-5.7941,-5.8556,-5.8748,-5.8748,-5.7052,-5.6,-5.6,-5.3584,-5.2162,-5.2222,-5.087,-5.0511,-5.1259,-5.3832,-5.5777,-5.7004,-5.7693,-5.8052,-5.8052,-5.7992,-5.7334,-5.6166,-5.6017,-5.491,-5.3084,-5.2965,-5.0773,-4.7384,-4.7173,-4.2531,-3.5306,-3.1381,-2.4054,-1.3171,0.5788,2.1541,3.0022,-6.7914,-6.9806,-7.0909,-7.0029,-7.0323,-7.0347,-6.9558,-6.8877,-6.8409,-6.8181,-6.8357,-6.8262,-6.7777,-6.743,-6.6916,-6.6109,-6.5742,-6.5717,-6.6089,-6.5501,-6.4733,-6.3826,-6.4086,-6.3785,-6.2842,-6.3429,-6.418,-6.4975,-6.5875,-6.6807,-6.7958,-6.9573,-7.0712,-7.1538,-7.2547,-7.2891,-7.2609,-7.2311,-7.0605,-6.8053,-6.7728,-6.6639,-6.5276,-6.5095,-6.4796,-6.4456,-6.4253,-6.3647,-6.2897,-6.259,-6.2421,-6.2347,-6.2076,-6.2381,-6.2797,-6.2782,-6.3405,-6.3317,-5.9521,-5.8549,-5.7985,-5.5992,-5.5968,-5.6396,-5.6264,-5.7348,-5.8528,-5.8841,-6.018,-6.0866,-5.9356,-5.9423,-5.8757,-5.5598,0.0,-5.384,-5.4143,-5.3944,-5.436,-5.6326,-5.6541,-5.6541,-5.6541,-5.5969,-5.5523,-5.5523,-5.3826,-5.2815,-5.2815,-5.1558,-5.112,-5.1603,-5.2718,-5.4162,-5.5897,-5.7393,-5.8112,-5.8141,-5.853,-5.8471,-5.7962,-5.7573,-5.6735,-5.5538,-5.4341,-5.2606,-5.0418,-4.819,-4.5681,-4.31,-4.1646,-3.9956,-3.5404,-1.1531,-0.8419,-1.5947,-6.8213,-7.0068,-7.1111,-7.0255,-7.0359,-7.0313,-6.9453,-6.8195,-6.7393,-6.765,-6.7467,-6.732,-6.732,-6.754,-6.7247,-6.6219,-6.6366,-6.6592,-6.6731,-6.6608,-6.5774,-6.404,-6.3742,-6.3317,-6.2805,-6.2965,-6.378,-6.5195,-6.5976,-6.7171,-6.886,-7.023,-7.1214,-7.1845,-7.2538,-7.2504,-7.1789,-7.1218,-6.9504,-6.7115,-6.661,-6.553,-6.4148,-6.4148,-6.3829,-6.3314,-6.3314,-6.2931,-6.2381,-6.2381,-6.2381,-6.2381,-6.2381,-6.2447,-6.2446,-6.2042,-6.2656,-6.2711,-5.9496,-5.7432,-5.5956,-5.4806,-5.5127,-5.5422,-5.4737,-5.571,-5.6811,-5.6811,-5.8253,-5.8916,-5.702,-5.7409,-5.733,-5.5393,-5.4553,-5.4329,-5.4665,-5.4533,-5.467,-5.5149,-5.5732,-5.6061,-5.575,-5.6267,-5.6592,-5.6378,-5.5306,-5.4357,-5.3714,-5.2611,-5.1963,-5.1909,-5.2032,-5.2778,-5.4221,-5.6226,-5.7513,-5.8141,-5.859,-5.8919,-5.9099,-5.865,-5.8052,-5.7334,-5.6017,-5.4428,-5.2886,-5.1455,-4.9491,-4.7443,-4.8718,-5.0879,-5.1391,-3.5,-3.8473,-4.9529,-6.8325,-6.9579,-7.0252,-6.9453,-6.9538,-6.9442,-6.8652,-6.739,-6.6786,-6.763,-6.699,-6.6512,-6.6512,-6.721,-6.7063,-6.5485,-6.6035,-6.6975,-6.8027,-6.7797,-6.6782,-6.4949,-6.4078,-6.3354,-6.2805,-6.3354,-6.445,-6.6097,-6.6582,-6.8105,-7.0599,-7.114,-7.1521,-7.1811,-7.2356,-7.1971,-7.0895,-6.9163,-6.7534,-6.6029,-6.4356,-6.3199,-6.2381,-6.2381,-6.2381,-6.2381,-6.2381,-6.2381,-6.2381,-6.2381,-6.2381,-6.2381,-6.2381,-6.2515,-6.2673,-6.2673,-6.1404,-6.016,-6.0059,-5.7739,-5.518,-5.4976,-5.4606,-5.423,-5.3674,-5.4026,-5.4389,-5.4389,-5.608,-5.7324,-5.6622,-5.6495,-5.6176,-5.5069,-5.4916,-5.4696,-5.4299,-5.479,-5.5209,-5.5209,-5.696,-5.7831,-5.7053,-5.8778,-5.9548,-5.8876,-5.8229,-5.6883,-5.4851,-5.4031,-5.3152,-5.1996,-5.1909,-5.2058,-5.2157,-5.4162,-5.6166,-5.8112,-5.8112,-5.8471,-5.9099,-5.9099,-5.874,-5.8112,-5.8112,-5.6504,-5.4196,-5.7434,-5.4335,-4.7812,-5.1875,-5.5315,-5.8718,-6.4677,-6.4948,-6.1168,-6.88,-7.0457,-7.1389,-7.0566,-7.0699,-7.0616,-6.9783,-6.8958,-6.8548,-6.8791,-6.8257,-6.7888,-6.7888,-6.7782,-6.7504,-6.7026,-6.7173,-6.7405,-6.7509,-6.7236,-6.656,-6.5457,-6.478,-6.4398,-6.4299,-6.5001,-6.5928,-6.7161,-6.7505,-6.8262,-6.9353,-7.0384,-7.0871,-7.0976,-7.1706,-7.0968,-6.9163,-6.862,-6.6873,-6.4427,-6.3861,-6.3199,-6.2381,-6.2381,-6.2381,-6.2381,-6.2381,-6.2381,-6.2381,-6.2381,-6.2381,-6.2302,-6.1399,-6.1863,-6.232,-6.0612,-6.0376,-6.0413,-5.9119,-5.7978,-5.6929,-5.55,-5.4944,-5.4715,-5.4527,-5.5588,-5.6591,-5.6591,-5.7777,-5.8701,-5.8,-5.7239,-5.6622,-5.6182,-5.5572,-5.5189,-5.558,-5.699,-5.7702,-5.7242,-5.8938,-5.982,-5.9122,-6.0064,-6.0344,-5.9671,-5.8486,-5.7678,-5.738,-5.6376,-5.5628,-5.5037,-5.4749,-5.4071,-5.3107,-5.3584,-5.4551,-5.6077,-5.7385,-5.8206,-5.8411,-6.0237,-6.0764,-6.0198,-6.0615,-6.0297,-5.9447,-6.0096,-5.9348,-5.7642,-5.4634,-5.5358,-5.8377,-6.1486,-6.2324,-6.1591,-6.9323,-7.0751,-7.1541,-7.0975,-7.0898,-7.0716,-7.0192,-6.9359,-6.8943,-6.9261,-6.8278,-6.7663,-6.8,-6.751,-6.721,-6.721,-6.7694,-6.7778,-6.7356,-6.7117,-6.6736,-6.6144,-6.5913,-6.5627,-6.5212,-6.5999,-6.6814,-6.7797,-6.7959,-6.8527,-6.9509,-6.9926,-6.9971,-6.9714,-6.9901,-6.8925,-6.7062,-6.6668,-6.5445,-6.3647,-6.3314,-6.2855,-6.2381,-6.2381,-6.2381,-6.2381,-6.2381,-6.2381,-6.2381,-6.2381,-6.2381,-6.2189,-6.0953,-6.1229,-6.1536,-5.9465,-5.9562,-5.9953,-5.8804,-5.8321,-5.7842,-5.6645,-5.5901,-5.5298,-5.5053,-5.6025,-5.6995,-5.7244,-5.8425,-5.9265,-5.8763,-5.8109,-5.7647,-5.7303,-5.6696,-5.6496,-5.6885,-5.842,-5.9284,-5.8882,-6.0739,-6.1847,-6.1134,-6.2166,-6.2464,-6.136,-6.0214,-5.9597,-5.9585,-5.8657,-5.7821,-5.7206,-5.6662,-5.5945,-5.4891,-5.4514,-5.4698,-5.5743,-5.7432,-5.8363,-5.8754,-6.0613,-6.1249,-6.0949,-6.1599,-6.222,-6.2671,-6.2431,-6.3045,-6.3692,-5.8894,-5.7433,-5.8105,-5.9277,-6.0372,-6.1445,-6.9836,-7.0524,-7.0898,-7.0898,-7.0514,-7.0179,-7.0157,-6.9126,-6.8587,-6.9247,-6.7573,-6.6506,-6.7073,-6.6706,-6.6402,-6.6402,-6.7629,-6.8081,-6.7263,-6.7235,-6.7179,-6.6821,-6.7155,-6.6855,-6.5728,-6.6558,-6.7351,-6.8107,-6.795,-6.8662,-7.0169,-6.9251,-6.8548,-6.8092,-6.7341,-6.6198,-6.4799,-6.4042,-6.3647,-6.3501,-6.2736,-6.2381,-6.2381,-6.2381,-6.2381,-6.2381,-6.2381,-6.2381,-6.2381,-6.2381,-6.2381,-6.2223,-6.0936,-6.0615,-6.0486,-5.9166,-5.8966,-5.9129,-5.9189,-5.871,-5.8231,-5.8291,-5.7363,-5.6256,-5.5538,-5.5867,-5.6526,-5.7154,-5.8351,-5.9308,-5.9368,-5.9308,-5.9099,-5.856,-5.8381,-5.8321,-5.8381,-5.9551,-6.0276,-6.0152,-6.2453,-6.3804,-6.2925,-6.4555,-6.5121,-6.3802,-6.3024,-6.2279,-6.1637,-6.0892,-6.0035,-5.9112,-5.8449,-5.7963,-5.7532,-5.7053,-5.6718,-5.6659,-5.8116,-5.9177,-5.9864,-6.0688,-6.1009,-6.1046,-6.1938,-6.3219,-6.4586,-6.4673,-6.5637,-6.6773,-6.427,-6.1328,-5.8373,-5.8087,-5.9084,-6.061,-6.9722,-7.0524,-7.0898,-7.0898,-7.0821,-7.0728,-7.0708,-7.0479,-7.0123,-6.9681,-6.848,-6.7212,-6.6093,-6.5726,-6.5558,-6.553,-6.6969,-6.7494,-6.6721,-6.7072,-6.6955,-6.6231,-6.7326,-6.7497,-6.6558,-6.7992,-6.852,-6.8107,-6.7021,-6.6692,-6.6975,-6.5711,-6.5309,-6.5725,-6.5546,-6.4928,-6.3971,-6.3791,-6.3314,-6.2659,-6.2459,-6.2381,-6.2381,-6.2381,-6.2381,-6.2381,-6.2381,-6.2381,-6.2381,-6.2381,-6.2381,-6.2131,-6.0467,-6.028,-6.0392,-5.8807,-5.8654,-5.9219,-5.9727,-5.9398,-5.9009,-5.9548,-5.9069,-5.8141,-5.6944,-5.7214,-5.7872,-5.853,-5.9727,-6.0835,-6.1343,-6.1014,-6.0805,-6.1164,-6.0356,-5.9847,-6.0386,-6.1523,-6.1908,-6.0856,-6.3517,-6.5,-6.3715,-6.4857,-6.5561,-6.5256,-6.4546,-6.4038,-6.3903,-6.3734,-6.3611,-6.3474,-6.3377,-6.3021,-6.2536,-6.3463,-6.2086,-5.8619,-5.9892,-6.0969,-6.1847,-6.3238,-6.3666,-6.3434,-6.5183,-6.6189,-6.6529,-6.744,-6.7931,-6.8433,-6.9741,-6.6799,-6.1462,-5.897,-5.8248,-5.8614,-7.0668,-7.0988,-7.1014,-7.1437,-7.1168,-7.0898,-7.0898,-7.0591,-7.0063,-6.9382,-6.7922,-6.6483,-6.5389,-6.4938,-6.5051,-6.584,-6.7376,-6.8031,-6.7506,-6.8171,-6.832,-6.7648,-6.8071,-6.7716,-6.6515,-6.6926,-6.6963,-6.6515,-6.555,-6.5041,-6.4983,-6.4242,-6.4093,-6.4357,-6.4357,-6.39,-6.3049,-6.3049,-6.2779,-6.2381,-6.2381,-6.2381,-6.2381,-6.2381,-6.2178,-6.1907,-6.2245,-6.2381,-6.2381,-6.2381,-6.2381,-6.2177,-6.0672,-6.0393,-6.0519,-5.9338,-5.9304,-5.9638,-5.9997,-5.9847,-5.9578,-5.9608,-5.9368,-5.8919,-5.8201,-5.8351,-5.889,-5.9847,-6.0625,-6.1403,-6.2391,-6.2271,-6.2061,-6.2091,-6.1762,-6.1523,-6.1583,-6.2683,-6.3083,-6.2031,-6.3701,-6.4659,-6.389,-6.4924,-6.5392,-6.4715,-6.4309,-6.4072,-6.4072,-6.4072,-6.4449,-6.5422,-6.5422,-6.5687,-6.6138,-6.6858,-6.6328,-6.4635,-6.4198,-6.3893,-6.3716,-6.5336,-6.5683,-6.5169,-6.7012,-6.7826,-6.7934,-6.9246,-6.967,-6.968,-7.05,-6.8512,-6.4737,-6.1492,-5.9318,-5.7978,-7.1573,-7.1398,-7.1063,-7.1545,-7.1046,-7.0508,-7.0249,-6.9644,-6.9002,-6.8407,-6.6557,-6.5031,-6.4351,-6.4118,-6.4709,-6.647,-6.832,-6.9309,-6.907,-6.999,-7.0202,-6.9246,-6.8614,-6.7432,-6.555,-6.4658,-6.4256,-6.4217,-6.3581,-6.3352,-6.3493,-6.3326,-6.331,-6.3462,-6.3462,-6.3049,-6.2381,-6.2381,-6.2381,-6.2381,-6.2381,-6.2381,-6.2381,-6.2381,-6.1941,-6.14,-6.2144,-6.2381,-6.2381,-6.2381,-6.2381,-6.2223,-6.1119,-6.0671,-6.0454,-6.0048,-5.9923,-5.9967,-6.0206,-6.0176,-5.9967,-5.9548,-5.9279,-5.9099,-5.9099,-5.9099,-5.9488,-6.0835,-6.1104,-6.1523,-6.2839,-6.3079,-6.2899,-6.2361,-6.272,-6.2899,-6.2331,-6.3163,-6.3626,-6.2948,-6.3539,-6.4062,-6.4129,-6.5225,-6.5324,-6.4005,-6.3903,-6.3835,-6.37,-6.37,-6.4493,-6.6408,-6.6442,-6.7295,-6.91,-6.9331,-6.9941,-7.1078,-6.9355,-6.7673,-6.6164,-6.7261,-6.738,-6.6754,-6.8318,-6.9062,-6.9204,-7.0909,-7.1421,-7.1033,-6.9803,-6.8525,-6.6976,-6.3016,-6.0062,-5.8077,-7.0805,-7.0975,-7.0584,-6.9527,-6.9273,-6.8788,-6.7631,-6.733,-6.6996,-6.6139,-6.4841,-6.3354,-6.185,-6.2917,-6.4681,-6.7012,-6.9746,-7.1412,-7.1384,-7.2122,-7.1416,-6.8646,-6.7841,-6.608,-6.3182,-6.2375,-6.1923,-6.2007,-6.1235,-6.1154,-6.1745,-6.0998,-6.134,-6.2581,-6.2581,-6.2537,-6.2381,-6.2381,-6.2381,-6.2381,-6.2381,-6.2381,-6.2381,-6.2381,-6.1941,-6.14,-6.2144,-6.2381,-6.2381,-6.2381,-6.2381,-6.2324,-6.1682,-6.0736,-5.9882,-5.9923,-5.9618,-5.9488,-6.0655,-6.0535,-6.0206,-6.0715,-5.9967,-5.9099,-5.9099,-5.9099,-5.9488,-6.0835,-6.1104,-6.1523,-6.2839,-6.3079,-6.3049,-6.2959,-6.3019,-6.3049,-6.2959,-6.3159,-6.3003,-6.2341,-6.3267,-6.4449,-6.5542,-6.6263,-6.6305,-6.5459,-6.5392,-6.5121,-6.4478,-6.4444,-6.5637,-6.8187,-6.8223,-6.946,-7.1945,-7.2981,-7.3325,-7.3019,-7.3737,-7.2655,-7.0161,-6.9577,-6.8968,-6.8553,-7.0165,-7.0851,-7.1059,-7.3359,-7.3946,-7.309,-7.1369,-6.8808,-6.5442,-5.9005,-5.7285,-5.8284,-7.0923,-7.0425,-6.9649,-6.9243,-6.8411,-6.7579,-6.6974,-6.6481,-6.5946,-6.5291,-6.4298,-6.34,-6.2608,-6.4807,-6.7146,-6.9139,-7.136,-7.2841,-7.3319,-7.2837,-7.1503,-6.9154,-6.7176,-6.4842,-6.208,-6.0771,-5.9977,-5.9529,-5.956,-5.9758,-6.0027,-5.9695,-6.0317,-6.1772,-6.1772,-6.2009,-6.2381,-6.2381,-6.2381,-6.2381,-6.2381,-6.2381,-6.2381,-6.2381,-6.1941,-6.1332,-6.167,-6.2042,-6.2381,-6.2381,-6.2381,-6.237,-6.2125,-6.1,-5.994,-6.0643,-6.0014,-5.9398,-6.0745,-6.0625,-6.0146,-6.0475,-5.9817,-5.9099,-5.9099,-5.9398,-5.9937,-6.0924,-6.1104,-6.1403,-6.2361,-6.2241,-6.2091,-6.248,-6.254,-6.254,-6.254,-6.2839,-6.2839,-6.2181,-6.3225,-6.4063,-6.4156,-6.5392,-6.5865,-6.5121,-6.5087,-6.5121,-6.5189,-6.5312,-6.6526,-6.9141,-6.9301,-7.048,-7.296,-7.3541,-7.3841,-7.3888,-7.4384,-7.3608,-7.1678,-7.1724,-7.1195,-7.0251,-7.1441,-7.1951,-7.2024,-7.3589,-7.3744,-7.2841,-7.1112,-6.7508,-6.2711,-5.7559,-5.6715,-5.8139]}]]